<?xml version='1.0' encoding='UTF-8'?><gpx version="1.1" creator="JPX - https://github.com/jenetics/jpx" xmlns="http://www.topografix.com/GPX/1/1"><trk><trkseg><trkpt lat="37.963509339379684" lon="13.45567667703663"><ele>361.0</ele><time>2026-04-28T13:02:17.999Z</time></trkpt><trkpt lat="37.96348170391105" lon="13.455775363575881"><ele>361.0</ele><time>2026-04-28T13:02:20.999Z</time></trkpt><trkpt lat="37.96354226642553" lon="13.455875131118734"><ele>361.0</ele><time>2026-04-28T13:02:24.999Z</time></trkpt><trkpt lat="37.963645182492314" lon="13.455907918519145"><ele>361.0</ele><time>2026-04-28T13:02:26.999Z</time></trkpt><trkpt lat="37.963720515054426" lon="13.455939384943418"><ele>361.0</ele><time>2026-04-28T13:02:27.999Z</time></trkpt><trkpt lat="37.96385409828727" lon="13.455995507337816"><ele>361.0</ele><time>2026-04-28T13:02:29.999Z</time></trkpt><trkpt lat="37.96396128766448" lon="13.456045673347257"><ele>361.0</ele><time>2026-04-28T13:02:32.999Z</time></trkpt><trkpt lat="37.964023732327725" lon="13.456073111277469"><ele>361.0</ele><time>2026-04-28T13:02:34.999Z</time></trkpt><trkpt lat="37.9641342762148" lon="13.456113888593418"><ele>361.0</ele><time>2026-04-28T13:02:36.999Z</time></trkpt><trkpt lat="37.964206506121556" lon="13.456127095779559"><ele>361.0</ele><time>2026-04-28T13:02:37.999Z</time></trkpt><trkpt lat="37.96427093985135" lon="13.456145988663682"><ele>361.0</ele><time>2026-04-28T13:02:38.999Z</time></trkpt><trkpt lat="37.96433612718105" lon="13.456175287848788"><ele>359.0</ele><time>2026-04-28T13:02:39.999Z</time></trkpt><trkpt lat="37.96441473479867" lon="13.456205573422835"><ele>357.0</ele><time>2026-04-28T13:02:40.999Z</time></trkpt><trkpt lat="37.964498188220645" lon="13.45625187328754"><ele>355.0</ele><time>2026-04-28T13:02:41.999Z</time></trkpt><trkpt lat="37.964601837085276" lon="13.456321043652004"><ele>353.0</ele><time>2026-04-28T13:02:42.999Z</time></trkpt><trkpt lat="37.9646982460487" lon="13.456321536767158"><ele>351.0</ele><time>2026-04-28T13:02:43.999Z</time></trkpt><trkpt lat="37.964818110189306" lon="13.456349052869738"><ele>350.8333333333333</ele><time>2026-04-28T13:02:44.999Z</time></trkpt><trkpt lat="37.964891579014754" lon="13.45641800037902"><ele>350.6666666666667</ele><time>2026-04-28T13:02:45.999Z</time></trkpt><trkpt lat="37.96498756802235" lon="13.456447628857282"><ele>350.5</ele><time>2026-04-28T13:02:46.999Z</time></trkpt><trkpt lat="37.96508364801737" lon="13.456495847123596"><ele>350.33333333333337</ele><time>2026-04-28T13:02:47.999Z</time></trkpt><trkpt lat="37.965157072235584" lon="13.45652480244172"><ele>350.1666666666667</ele><time>2026-04-28T13:02:48.999Z</time></trkpt><trkpt lat="37.965228060541655" lon="13.456553079605401"><ele>350.0</ele><time>2026-04-28T13:02:49.999Z</time></trkpt><trkpt lat="37.96531383997006" lon="13.45658713228905"><ele>349.0</ele><time>2026-04-28T13:02:50.999Z</time></trkpt><trkpt lat="37.96538722983409" lon="13.456616266480912"><ele>348.0</ele><time>2026-04-28T13:02:51.999Z</time></trkpt><trkpt lat="37.96547872356924" lon="13.456654363717718"><ele>347.0</ele><time>2026-04-28T13:02:53.999Z</time></trkpt><trkpt lat="37.96554444464811" lon="13.456677025633125"><ele>346.0</ele><time>2026-04-28T13:02:55.999Z</time></trkpt><trkpt lat="37.965597839371185" lon="13.456763090963596"><ele>345.0</ele><time>2026-04-28T13:02:56.999Z</time></trkpt><trkpt lat="37.96568629653142" lon="13.456775228054669"><ele>344.0</ele><time>2026-04-28T13:02:58.999Z</time></trkpt><trkpt lat="37.96584809303318" lon="13.456559866100932"><ele>342.2</ele><time>2026-04-28T13:03:00.999Z</time></trkpt><trkpt lat="37.965985483168346" lon="13.456615527464955"><ele>340.4</ele><time>2026-04-28T13:03:02.999Z</time></trkpt><trkpt lat="37.9660705204957" lon="13.456649979208757"><ele>338.6</ele><time>2026-04-28T13:03:03.999Z</time></trkpt><trkpt lat="37.966168766525016" lon="13.456689781548498"><ele>336.8</ele><time>2026-04-28T13:03:05.999Z</time></trkpt><trkpt lat="37.96626118599289" lon="13.45672788814959"><ele>335.0</ele><time>2026-04-28T13:03:07.999Z</time></trkpt><trkpt lat="37.96633220919347" lon="13.456756969036572"><ele>335.0</ele><time>2026-04-28T13:03:10.999Z</time></trkpt><trkpt lat="37.96632285172593" lon="13.45687239638159"><ele>335.0</ele><time>2026-04-28T13:03:11.999Z</time></trkpt><trkpt lat="37.96640255934953" lon="13.456887495972834"><ele>335.0</ele><time>2026-04-28T13:03:13.999Z</time></trkpt><trkpt lat="37.96649209668729" lon="13.45691020467655"><ele>335.0</ele><time>2026-04-28T13:03:15.999Z</time></trkpt><trkpt lat="37.96656161629488" lon="13.456952898335212"><ele>335.0</ele><time>2026-04-28T13:03:19.999Z</time></trkpt><trkpt lat="37.966671447008295" lon="13.456781096618588"><ele>333.6</ele><time>2026-04-28T13:03:20.999Z</time></trkpt><trkpt lat="37.966785700329076" lon="13.45678645657819"><ele>332.2</ele><time>2026-04-28T13:03:25.999Z</time></trkpt><trkpt lat="37.96686768788759" lon="13.456826847347475"><ele>330.79999999999995</ele><time>2026-04-28T13:03:27.999Z</time></trkpt><trkpt lat="37.96698931237006" lon="13.456933992722162"><ele>329.4</ele><time>2026-04-28T13:03:29.999Z</time></trkpt><trkpt lat="37.9670467128253" lon="13.456974395999023"><ele>328.0</ele><time>2026-04-28T13:03:30.999Z</time></trkpt><trkpt lat="37.96710212156187" lon="13.457014524356264"><ele>328.0</ele><time>2026-04-28T13:03:32.016Z</time></trkpt><trkpt lat="37.96715675688266" lon="13.457054591462747"><ele>328.0</ele><time>2026-04-28T13:03:33.016Z</time></trkpt><trkpt lat="37.96721134820574" lon="13.45709472462931"><ele>328.0</ele><time>2026-04-28T13:03:34.016Z</time></trkpt><trkpt lat="37.96726607853902" lon="13.45713504634116"><ele>328.0</ele><time>2026-04-28T13:03:35.017Z</time></trkpt><trkpt lat="37.967375316136895" lon="13.457215190897394"><ele>328.0</ele><time>2026-04-28T13:03:37.017Z</time></trkpt><trkpt lat="37.967628543888445" lon="13.456813505631397"><ele>307.0</ele><time>2026-04-28T13:03:48.591Z</time></trkpt><trkpt lat="37.969465345555726" lon="13.457437482855875"><ele>307.0</ele><time>2026-04-28T13:04:18.016Z</time></trkpt><trkpt lat="37.96953826993106" lon="13.457473976243854"><ele>307.0</ele><time>2026-04-28T13:04:19.02Z</time></trkpt><trkpt lat="37.96961825099687" lon="13.457522444761395"><ele>307.0</ele><time>2026-04-28T13:04:20.018Z</time></trkpt><trkpt lat="37.96970259078862" lon="13.457579822271144"><ele>307.0</ele><time>2026-04-28T13:04:21.017Z</time></trkpt><trkpt lat="37.97019692607035" lon="13.457934279007333"><ele>307.5</ele><time>2026-04-28T13:04:27.999Z</time></trkpt><trkpt lat="37.97033440185718" lon="13.458187584829723"><ele>308.0</ele><time>2026-04-28T13:04:31.999Z</time></trkpt><trkpt lat="37.97037674604771" lon="13.458302689050958"><ele>308.5</ele><time>2026-04-28T13:04:33.999Z</time></trkpt><trkpt lat="37.97042750703498" lon="13.458403243251011"><ele>309.0</ele><time>2026-04-28T13:04:35.999Z</time></trkpt><trkpt lat="37.97047647975858" lon="13.458515641412145"><ele>309.0</ele><time>2026-04-28T13:04:37.999Z</time></trkpt><trkpt lat="37.97059584761754" lon="13.458529356371153"><ele>309.0</ele><time>2026-04-28T13:04:39.999Z</time></trkpt><trkpt lat="37.97067452969191" lon="13.458552459154197"><ele>309.0</ele><time>2026-04-28T13:04:41.999Z</time></trkpt><trkpt lat="37.97074914434017" lon="13.458553969205088"><ele>309.0</ele><time>2026-04-28T13:04:43.999Z</time></trkpt><trkpt lat="37.970833539438715" lon="13.458565808403389"><ele>309.0</ele><time>2026-04-28T13:04:45.999Z</time></trkpt><trkpt lat="37.97093735295884" lon="13.458555170678492"><ele>309.8333333333333</ele><time>2026-04-28T13:04:48.999Z</time></trkpt><trkpt lat="37.97097076509554" lon="13.458637612700418"><ele>310.6666666666667</ele><time>2026-04-28T13:04:50.999Z</time></trkpt><trkpt lat="37.971017503371584" lon="13.458695950726062"><ele>311.5</ele><time>2026-04-28T13:04:52.999Z</time></trkpt><trkpt lat="37.97100842455667" lon="13.458777200470735"><ele>312.33333333333337</ele><time>2026-04-28T13:04:55.999Z</time></trkpt><trkpt lat="37.97104535566226" lon="13.458854474331478"><ele>313.1666666666667</ele><time>2026-04-28T13:04:59.018Z</time></trkpt><trkpt lat="37.97121404097656" lon="13.458869448975339"><ele>314.0</ele><time>2026-04-28T13:05:02.015Z</time></trkpt><trkpt lat="37.971303120752" lon="13.458914436011002"><ele>314.6666666666667</ele><time>2026-04-28T13:05:05.019Z</time></trkpt><trkpt lat="37.97163424307059" lon="13.45888161711252"><ele>315.3333333333333</ele><time>2026-04-28T13:05:13.999Z</time></trkpt><trkpt lat="37.97172760688335" lon="13.458882345239482"><ele>316.0</ele><time>2026-04-28T13:05:15.999Z</time></trkpt><trkpt lat="37.97183060292981" lon="13.458867388424764"><ele>316.8333333333333</ele><time>2026-04-28T13:05:17.999Z</time></trkpt><trkpt lat="37.97188989635352" lon="13.45889836520862"><ele>317.66666666666663</ele><time>2026-04-28T13:05:19.999Z</time></trkpt><trkpt lat="37.97197818495192" lon="13.4589290800411"><ele>318.5</ele><time>2026-04-28T13:05:22.999Z</time></trkpt><trkpt lat="37.97206884212801" lon="13.458930259162452"><ele>319.3333333333333</ele><time>2026-04-28T13:05:25.999Z</time></trkpt><trkpt lat="37.97214249552317" lon="13.45893567801032"><ele>320.1666666666667</ele><time>2026-04-28T13:05:28.998Z</time></trkpt><trkpt lat="37.97221068984838" lon="13.458937554583025"><ele>321.0</ele><time>2026-04-28T13:05:30.998Z</time></trkpt><trkpt lat="37.97227818986009" lon="13.458922494535157"><ele>320.99999999999994</ele><time>2026-04-28T13:05:32.998Z</time></trkpt><trkpt lat="37.972360341662416" lon="13.458922271035151"><ele>321.0</ele><time>2026-04-28T13:05:35.999Z</time></trkpt><trkpt lat="37.972429081239504" lon="13.458915683519132"><ele>321.0</ele><time>2026-04-28T13:05:38.999Z</time></trkpt><trkpt lat="37.97249609349668" lon="13.458895566060848"><ele>321.0</ele><time>2026-04-28T13:05:41.999Z</time></trkpt><trkpt lat="37.972567820738455" lon="13.45889900406241"><ele>321.0</ele><time>2026-04-28T13:05:44.999Z</time></trkpt><trkpt lat="37.97263597417004" lon="13.458896395038979"><ele>320.99999999999994</ele><time>2026-04-28T13:05:47.999Z</time></trkpt><trkpt lat="37.972717611843144" lon="13.45889322365084"><ele>321.0</ele><time>2026-04-28T13:05:51.999Z</time></trkpt><trkpt lat="37.97280241790531" lon="13.45889911598804"><ele>321.5</ele><time>2026-04-28T13:05:55Z</time></trkpt><trkpt lat="37.972883026925906" lon="13.458908415639424"><ele>322.0</ele><time>2026-04-28T13:05:58Z</time></trkpt><trkpt lat="37.972974403504914" lon="13.458907400010801"><ele>322.5</ele><time>2026-04-28T13:06:00Z</time></trkpt><trkpt lat="37.97304066785505" lon="13.45887512207738"><ele>323.0</ele><time>2026-04-28T13:06:01Z</time></trkpt><trkpt lat="37.97311235748517" lon="13.458911553688708"><ele>323.5</ele><time>2026-04-28T13:06:03Z</time></trkpt><trkpt lat="37.973175557483515" lon="13.458941097639352"><ele>324.0</ele><time>2026-04-28T13:06:05Z</time></trkpt><trkpt lat="37.97326881248914" lon="13.458954992382033"><ele>322.4</ele><time>2026-04-28T13:06:07Z</time></trkpt><trkpt lat="37.973361001474736" lon="13.458976010529568"><ele>320.79999999999995</ele><time>2026-04-28T13:06:09Z</time></trkpt><trkpt lat="37.97344561794809" lon="13.4589819772953"><ele>319.20000000000005</ele><time>2026-04-28T13:06:11Z</time></trkpt><trkpt lat="37.97354832370317" lon="13.458973464124787"><ele>317.6</ele><time>2026-04-28T13:06:13Z</time></trkpt><trkpt lat="37.97366222131945" lon="13.458946534728472"><ele>316.0</ele><time>2026-04-28T13:06:15Z</time></trkpt><trkpt lat="37.97372564892059" lon="13.458945259293182"><ele>316.00000000000006</ele><time>2026-04-28T13:06:16Z</time></trkpt><trkpt lat="37.97379427189809" lon="13.458959400682035"><ele>316.0</ele><time>2026-04-28T13:06:17Z</time></trkpt><trkpt lat="37.97386431065396" lon="13.458946384375155"><ele>316.0</ele><time>2026-04-28T13:06:18Z</time></trkpt><trkpt lat="37.97392695219089" lon="13.4589062175662"><ele>316.0</ele><time>2026-04-28T13:06:19Z</time></trkpt><trkpt lat="37.97399745434641" lon="13.458888192095317"><ele>316.0</ele><time>2026-04-28T13:06:20Z</time></trkpt><trkpt lat="37.97406221422289" lon="13.458881718375212"><ele>316.00000000000006</ele><time>2026-04-28T13:06:21Z</time></trkpt><trkpt lat="37.97413897794369" lon="13.45886990076563"><ele>316.0</ele><time>2026-04-28T13:06:22Z</time></trkpt><trkpt lat="37.97426680160586" lon="13.458855088502942"><ele>315.3333333333333</ele><time>2026-04-28T13:06:24Z</time></trkpt><trkpt lat="37.97434255416736" lon="13.458865258136143"><ele>314.66666666666663</ele><time>2026-04-28T13:06:25Z</time></trkpt><trkpt lat="37.97442162328085" lon="13.458849003958882"><ele>314.0</ele><time>2026-04-28T13:06:26Z</time></trkpt><trkpt lat="37.97448282441251" lon="13.458870411605211"><ele>313.3333333333333</ele><time>2026-04-28T13:06:27Z</time></trkpt><trkpt lat="37.974609988718385" lon="13.45889432468504"><ele>312.6666666666667</ele><time>2026-04-28T13:06:29Z</time></trkpt><trkpt lat="37.97467568438293" lon="13.458900549437105"><ele>312.0</ele><time>2026-04-28T13:06:30Z</time></trkpt><trkpt lat="37.97473732198374" lon="13.458917389018882"><ele>312.0</ele><time>2026-04-28T13:06:31Z</time></trkpt><trkpt lat="37.974858711390034" lon="13.458963344896821"><ele>312.0</ele><time>2026-04-28T13:06:33Z</time></trkpt><trkpt lat="37.974982111860825" lon="13.458983601741933"><ele>312.0</ele><time>2026-04-28T13:06:35Z</time></trkpt><trkpt lat="37.975052848113336" lon="13.458985187457236"><ele>312.0</ele><time>2026-04-28T13:06:36Z</time></trkpt><trkpt lat="37.975123677166785" lon="13.458956177567336"><ele>312.0</ele><time>2026-04-28T13:06:37Z</time></trkpt><trkpt lat="37.97519186361045" lon="13.45891304320986"><ele>312.0</ele><time>2026-04-28T13:06:38Z</time></trkpt><trkpt lat="37.97526013072405" lon="13.458867917612931"><ele>312.0</ele><time>2026-04-28T13:06:39Z</time></trkpt><trkpt lat="37.975329863250806" lon="13.45882851724429"><ele>312.0</ele><time>2026-04-28T13:06:40Z</time></trkpt><trkpt lat="37.97539783527298" lon="13.458795762692615"><ele>312.0</ele><time>2026-04-28T13:06:41Z</time></trkpt><trkpt lat="37.97546359479234" lon="13.458809465126896"><ele>312.0</ele><time>2026-04-28T13:06:42Z</time></trkpt><trkpt lat="37.97552781766478" lon="13.458775032832646"><ele>312.0</ele><time>2026-04-28T13:06:43Z</time></trkpt><trkpt lat="37.9756544234416" lon="13.458768491222111"><ele>312.0</ele><time>2026-04-28T13:06:45Z</time></trkpt><trkpt lat="37.975766077835864" lon="13.458775020942664"><ele>312.0</ele><time>2026-04-28T13:06:47Z</time></trkpt><trkpt lat="37.975852465372405" lon="13.45880406283193"><ele>312.0</ele><time>2026-04-28T13:06:49Z</time></trkpt><trkpt lat="37.97593129395675" lon="13.45878921178753"><ele>312.0</ele><time>2026-04-28T13:06:51Z</time></trkpt><trkpt lat="37.97603412453113" lon="13.458820781230772"><ele>312.0</ele><time>2026-04-28T13:06:54Z</time></trkpt><trkpt lat="37.976090766786314" lon="13.458900330841825"><ele>312.6666666666667</ele><time>2026-04-28T13:06:57Z</time></trkpt><trkpt lat="37.97618051953819" lon="13.458881462539363"><ele>313.3333333333333</ele><time>2026-04-28T13:06:58.999Z</time></trkpt><trkpt lat="37.976274656296894" lon="13.458882721398295"><ele>314.0</ele><time>2026-04-28T13:07:00.999Z</time></trkpt><trkpt lat="37.97634523358362" lon="13.458871463129698"><ele>314.66666666666663</ele><time>2026-04-28T13:07:02.999Z</time></trkpt><trkpt lat="37.976421823690174" lon="13.458909368456569"><ele>315.3333333333333</ele><time>2026-04-28T13:07:04.999Z</time></trkpt><trkpt lat="37.97651971520404" lon="13.458926453153525"><ele>316.0</ele><time>2026-04-28T13:07:06.999Z</time></trkpt><trkpt lat="37.97662168714502" lon="13.458908802265645"><ele>317.16666666666663</ele><time>2026-04-28T13:07:08.999Z</time></trkpt><trkpt lat="37.976745569734845" lon="13.458894263809785"><ele>318.3333333333333</ele><time>2026-04-28T13:07:10.999Z</time></trkpt><trkpt lat="37.976813300571756" lon="13.45888968172368"><ele>319.5</ele><time>2026-04-28T13:07:11.999Z</time></trkpt><trkpt lat="37.976876800875914" lon="13.45889756896902"><ele>320.6666666666667</ele><time>2026-04-28T13:07:12.999Z</time></trkpt><trkpt lat="37.9769457319441" lon="13.458913096704261"><ele>321.83333333333337</ele><time>2026-04-28T13:07:13.999Z</time></trkpt><trkpt lat="37.9770110964974" lon="13.45890955897121"><ele>323.0</ele><time>2026-04-28T13:07:14.999Z</time></trkpt><trkpt lat="37.97707666676758" lon="13.458899614044457"><ele>323.0</ele><time>2026-04-28T13:07:15.999Z</time></trkpt><trkpt lat="37.977180451367126" lon="13.45889717606806"><ele>323.0</ele><time>2026-04-28T13:07:17.999Z</time></trkpt><trkpt lat="37.9772747507529" lon="13.458882866240993"><ele>323.0</ele><time>2026-04-28T13:07:19.999Z</time></trkpt><trkpt lat="37.977339825160136" lon="13.458861355125972"><ele>323.0</ele><time>2026-04-28T13:07:21.999Z</time></trkpt><trkpt lat="37.97740525499631" lon="13.458829808209986"><ele>323.0</ele><time>2026-04-28T13:07:23.999Z</time></trkpt><trkpt lat="37.977470967530465" lon="13.458800009949641"><ele>323.0</ele><time>2026-04-28T13:07:26.999Z</time></trkpt><trkpt lat="37.97756326439487" lon="13.458740486057383"><ele>324.5</ele><time>2026-04-28T13:07:29.999Z</time></trkpt><trkpt lat="37.977634613183675" lon="13.458724887201834"><ele>326.0</ele><time>2026-04-28T13:07:32.999Z</time></trkpt><trkpt lat="37.97771824831947" lon="13.45871003521358"><ele>327.5</ele><time>2026-04-28T13:07:35.999Z</time></trkpt><trkpt lat="37.97777817308464" lon="13.458682126681564"><ele>329.0</ele><time>2026-04-28T13:07:38.999Z</time></trkpt><trkpt lat="37.97785393837154" lon="13.458656679994032"><ele>330.5</ele><time>2026-04-28T13:07:40.999Z</time></trkpt><trkpt lat="37.97792548772719" lon="13.458612409411366"><ele>332.0</ele><time>2026-04-28T13:07:43.999Z</time></trkpt><trkpt lat="37.977999210105274" lon="13.458579391849916"><ele>332.0</ele><time>2026-04-28T13:07:46.999Z</time></trkpt><trkpt lat="37.97809970469459" lon="13.4585531137594"><ele>332.0</ele><time>2026-04-28T13:07:49.999Z</time></trkpt><trkpt lat="37.978182113454686" lon="13.458573484087582"><ele>332.0</ele><time>2026-04-28T13:07:52.999Z</time></trkpt><trkpt lat="37.97825765289579" lon="13.458574083550742"><ele>332.0</ele><time>2026-04-28T13:07:54.999Z</time></trkpt><trkpt lat="37.97831897649058" lon="13.45864653632377"><ele>332.0</ele><time>2026-04-28T13:07:57.999Z</time></trkpt><trkpt lat="37.97839341388338" lon="13.45869983487816"><ele>332.0</ele><time>2026-04-28T13:08:01Z</time></trkpt><trkpt lat="37.978453098783994" lon="13.458731201700868"><ele>331.33333333333337</ele><time>2026-04-28T13:08:03Z</time></trkpt><trkpt lat="37.97852020128368" lon="13.458784232051903"><ele>330.6666666666667</ele><time>2026-04-28T13:08:06Z</time></trkpt><trkpt lat="37.97859896915962" lon="13.458831609420992"><ele>330.0</ele><time>2026-04-28T13:08:09Z</time></trkpt><trkpt lat="37.97868104685237" lon="13.458890169207365"><ele>329.3333333333333</ele><time>2026-04-28T13:08:12Z</time></trkpt><trkpt lat="37.97876351891564" lon="13.458932667416578"><ele>328.66666666666663</ele><time>2026-04-28T13:08:15Z</time></trkpt><trkpt lat="37.9788447568441" lon="13.458961747948536"><ele>328.0</ele><time>2026-04-28T13:08:18Z</time></trkpt><trkpt lat="37.978912310828036" lon="13.458964470341497"><ele>329.66666666666663</ele><time>2026-04-28T13:08:20Z</time></trkpt><trkpt lat="37.97900457704101" lon="13.458975733537532"><ele>331.3333333333333</ele><time>2026-04-28T13:08:23Z</time></trkpt><trkpt lat="37.97910004597998" lon="13.459009067477389"><ele>333.0</ele><time>2026-04-28T13:08:26Z</time></trkpt><trkpt lat="37.979174445862775" lon="13.45908175132569"><ele>334.6666666666667</ele><time>2026-04-28T13:08:29Z</time></trkpt><trkpt lat="37.9792197433945" lon="13.45913812734503"><ele>336.33333333333337</ele><time>2026-04-28T13:08:31Z</time></trkpt><trkpt lat="37.97928247686708" lon="13.459210972211913"><ele>338.0</ele><time>2026-04-28T13:08:33Z</time></trkpt><trkpt lat="37.97934639559494" lon="13.459280124316704"><ele>338.0</ele><time>2026-04-28T13:08:35Z</time></trkpt><trkpt lat="37.979402579873636" lon="13.459357666168714"><ele>338.0</ele><time>2026-04-28T13:08:37Z</time></trkpt><trkpt lat="37.97946785838594" lon="13.459428674701407"><ele>338.0</ele><time>2026-04-28T13:08:39Z</time></trkpt><trkpt lat="37.97953143693584" lon="13.459496531866805"><ele>338.0</ele><time>2026-04-28T13:08:41Z</time></trkpt><trkpt lat="37.9795962811601" lon="13.459550340348015"><ele>338.0</ele><time>2026-04-28T13:08:43Z</time></trkpt><trkpt lat="37.979651473710454" lon="13.459594615081716"><ele>338.0</ele><time>2026-04-28T13:08:45Z</time></trkpt><trkpt lat="37.979710565164545" lon="13.45963741911828"><ele>339.0</ele><time>2026-04-28T13:08:47Z</time></trkpt><trkpt lat="37.979764757733996" lon="13.459680696154527"><ele>340.0</ele><time>2026-04-28T13:08:49Z</time></trkpt><trkpt lat="37.97984339346885" lon="13.4597310101543"><ele>341.0</ele><time>2026-04-28T13:08:52Z</time></trkpt><trkpt lat="37.97990480081792" lon="13.45977893689349"><ele>342.0</ele><time>2026-04-28T13:08:55Z</time></trkpt><trkpt lat="37.979960076372116" lon="13.45983975748371"><ele>343.0</ele><time>2026-04-28T13:08:58Z</time></trkpt><trkpt lat="37.98003059463856" lon="13.459890242977572"><ele>344.0</ele><time>2026-04-28T13:09:01Z</time></trkpt><trkpt lat="37.98008418350439" lon="13.459946489605619"><ele>345.0</ele><time>2026-04-28T13:09:04Z</time></trkpt><trkpt lat="37.98016001355937" lon="13.45996831430355"><ele>345.1666666666667</ele><time>2026-04-28T13:09:07Z</time></trkpt><trkpt lat="37.980222027794674" lon="13.460018736945383"><ele>345.3333333333333</ele><time>2026-04-28T13:09:10Z</time></trkpt><trkpt lat="37.980299305366856" lon="13.460077022451298"><ele>345.5</ele><time>2026-04-28T13:09:13Z</time></trkpt><trkpt lat="37.98037412923913" lon="13.460114015984876"><ele>345.66666666666663</ele><time>2026-04-28T13:09:16Z</time></trkpt><trkpt lat="37.980439179077884" lon="13.460143591452976"><ele>345.8333333333333</ele><time>2026-04-28T13:09:19Z</time></trkpt><trkpt lat="37.98050363345267" lon="13.460162827158927"><ele>346.0</ele><time>2026-04-28T13:09:21Z</time></trkpt><trkpt lat="37.980597271891696" lon="13.460177206685689"><ele>346.0</ele><time>2026-04-28T13:09:23Z</time></trkpt><trkpt lat="37.980666075083064" lon="13.460179380632672"><ele>346.0</ele><time>2026-04-28T13:09:24Z</time></trkpt><trkpt lat="37.980678653231365" lon="13.460258637441186"><ele>346.0</ele><time>2026-04-28T13:09:26Z</time></trkpt><trkpt lat="37.98075274769793" lon="13.46030596742413"><ele>346.0</ele><time>2026-04-28T13:09:27.999Z</time></trkpt><trkpt lat="37.98084532105157" lon="13.460360708167954"><ele>346.0</ele><time>2026-04-28T13:09:29.999Z</time></trkpt><trkpt lat="37.980910837852804" lon="13.460409215042956"><ele>346.0</ele><time>2026-04-28T13:09:31.999Z</time></trkpt><trkpt lat="37.981009309052304" lon="13.460494211913685"><ele>345.8</ele><time>2026-04-28T13:09:33.999Z</time></trkpt><trkpt lat="37.98108195037792" lon="13.460533005509443"><ele>345.6</ele><time>2026-04-28T13:09:34.999Z</time></trkpt><trkpt lat="37.98117498827357" lon="13.460625315075253"><ele>345.4</ele><time>2026-04-28T13:09:36.999Z</time></trkpt><trkpt lat="37.98124008926605" lon="13.460668613679204"><ele>345.2</ele><time>2026-04-28T13:09:37.999Z</time></trkpt><trkpt lat="37.98135518200354" lon="13.46074705980129"><ele>345.0</ele><time>2026-04-28T13:09:39.999Z</time></trkpt><trkpt lat="37.981417279603754" lon="13.460782918635433"><ele>345.0</ele><time>2026-04-28T13:09:40.999Z</time></trkpt><trkpt lat="37.98150156782136" lon="13.460878247600508"><ele>345.0</ele><time>2026-04-28T13:09:42.999Z</time></trkpt><trkpt lat="37.98157630936964" lon="13.460921573152678"><ele>345.0</ele><time>2026-04-28T13:09:43.999Z</time></trkpt><trkpt lat="37.98164045540732" lon="13.460964469816352"><ele>345.0</ele><time>2026-04-28T13:09:44.999Z</time></trkpt><trkpt lat="37.98170128247505" lon="13.461011158849425"><ele>345.0</ele><time>2026-04-28T13:09:46Z</time></trkpt><trkpt lat="37.98182710982458" lon="13.461079656493505"><ele>344.2857142857143</ele><time>2026-04-28T13:09:48Z</time></trkpt><trkpt lat="37.981880687530705" lon="13.46112996361927"><ele>343.57142857142856</ele><time>2026-04-28T13:09:49Z</time></trkpt><trkpt lat="37.98193552609884" lon="13.461176664940778"><ele>342.8571428571429</ele><time>2026-04-28T13:09:50Z</time></trkpt><trkpt lat="37.98198989376031" lon="13.461233221883278"><ele>342.1428571428571</ele><time>2026-04-28T13:09:51Z</time></trkpt><trkpt lat="37.98205191527665" lon="13.461279775839296"><ele>341.4285714285714</ele><time>2026-04-28T13:09:52Z</time></trkpt><trkpt lat="37.982112667689705" lon="13.461334867918799"><ele>340.7142857142857</ele><time>2026-04-28T13:09:53Z</time></trkpt><trkpt lat="37.9821807207653" lon="13.461385736809529"><ele>340.0</ele><time>2026-04-28T13:09:54Z</time></trkpt><trkpt lat="37.98224035779725" lon="13.461434804788087"><ele>339.8571428571429</ele><time>2026-04-28T13:09:55Z</time></trkpt><trkpt lat="37.982311448582564" lon="13.461474258770671"><ele>339.71428571428567</ele><time>2026-04-28T13:09:56Z</time></trkpt><trkpt lat="37.98237063197967" lon="13.461519958054488"><ele>339.57142857142856</ele><time>2026-04-28T13:09:57Z</time></trkpt><trkpt lat="37.98243069756097" lon="13.461570270633397"><ele>339.42857142857144</ele><time>2026-04-28T13:09:58Z</time></trkpt><trkpt lat="37.982487482911424" lon="13.461605699711862"><ele>339.28571428571433</ele><time>2026-04-28T13:09:59Z</time></trkpt><trkpt lat="37.98254496757335" lon="13.461665024570898"><ele>339.1428571428571</ele><time>2026-04-28T13:10:00Z</time></trkpt><trkpt lat="37.982600903335516" lon="13.461723224670216"><ele>339.0</ele><time>2026-04-28T13:10:01Z</time></trkpt><trkpt lat="37.98265365068091" lon="13.461777990909052"><ele>338.79999999999995</ele><time>2026-04-28T13:10:02Z</time></trkpt><trkpt lat="37.98277635216036" lon="13.46187844459644"><ele>338.59999999999997</ele><time>2026-04-28T13:10:04Z</time></trkpt><trkpt lat="37.98283697885113" lon="13.462003097441027"><ele>338.4</ele><time>2026-04-28T13:10:06Z</time></trkpt><trkpt lat="37.982886455527655" lon="13.462067812114366"><ele>338.2</ele><time>2026-04-28T13:10:07Z</time></trkpt><trkpt lat="37.9829310911532" lon="13.46212913713369"><ele>338.0</ele><time>2026-04-28T13:10:08Z</time></trkpt><trkpt lat="37.982978625640975" lon="13.462185468032787"><ele>338.0</ele><time>2026-04-28T13:10:09Z</time></trkpt><trkpt lat="37.98305609460773" lon="13.462301426817168"><ele>338.0</ele><time>2026-04-28T13:10:11Z</time></trkpt><trkpt lat="37.98310220098092" lon="13.462358318394433"><ele>338.0</ele><time>2026-04-28T13:10:12Z</time></trkpt><trkpt lat="37.98318749179191" lon="13.462465160374007"><ele>338.0</ele><time>2026-04-28T13:10:14Z</time></trkpt><trkpt lat="37.983230566209286" lon="13.462528102068378"><ele>338.0</ele><time>2026-04-28T13:10:15Z</time></trkpt><trkpt lat="37.98330138133432" lon="13.462665769747385"><ele>337.0</ele><time>2026-04-28T13:10:17Z</time></trkpt><trkpt lat="37.983372975422796" lon="13.462790997872318"><ele>336.0</ele><time>2026-04-28T13:10:19Z</time></trkpt><trkpt lat="37.983461963456655" lon="13.46291780911994"><ele>335.0</ele><time>2026-04-28T13:10:21Z</time></trkpt><trkpt lat="37.983524511859" lon="13.46295015582144"><ele>334.0</ele><time>2026-04-28T13:10:22Z</time></trkpt><trkpt lat="37.983554387665194" lon="13.463030576593573"><ele>333.0</ele><time>2026-04-28T13:10:23Z</time></trkpt><trkpt lat="37.983594039961986" lon="13.463096820957817"><ele>333.0</ele><time>2026-04-28T13:10:24Z</time></trkpt><trkpt lat="37.98366951068336" lon="13.463232536944593"><ele>333.0</ele><time>2026-04-28T13:10:26Z</time></trkpt><trkpt lat="37.98372574729515" lon="13.463373035955087"><ele>333.0</ele><time>2026-04-28T13:10:28Z</time></trkpt><trkpt lat="37.98378799444812" lon="13.463501517793606"><ele>333.0</ele><time>2026-04-28T13:10:30Z</time></trkpt><trkpt lat="37.983813016909124" lon="13.463577423317012"><ele>333.0</ele><time>2026-04-28T13:10:31Z</time></trkpt><trkpt lat="37.983849483071026" lon="13.463644827708835"><ele>333.0</ele><time>2026-04-28T13:10:32Z</time></trkpt><trkpt lat="37.98391566439495" lon="13.463780045955392"><ele>333.0</ele><time>2026-04-28T13:10:34Z</time></trkpt><trkpt lat="37.98398457794465" lon="13.463878718397465"><ele>333.0</ele><time>2026-04-28T13:10:36Z</time></trkpt><trkpt lat="37.98400999818822" lon="13.463960147904897"><ele>333.0</ele><time>2026-04-28T13:10:37Z</time></trkpt><trkpt lat="37.98404301760072" lon="13.464031126809775"><ele>333.0</ele><time>2026-04-28T13:10:38Z</time></trkpt><trkpt lat="37.98409632565216" lon="13.464161924703472"><ele>333.2</ele><time>2026-04-28T13:10:40Z</time></trkpt><trkpt lat="37.984130827931644" lon="13.46423163496459"><ele>333.4</ele><time>2026-04-28T13:10:41Z</time></trkpt><trkpt lat="37.98416665405544" lon="13.464300320503911"><ele>333.59999999999997</ele><time>2026-04-28T13:10:42Z</time></trkpt><trkpt lat="37.98423595803134" lon="13.46442659840993"><ele>333.79999999999995</ele><time>2026-04-28T13:10:44Z</time></trkpt><trkpt lat="37.98429644444449" lon="13.464549873693025"><ele>334.0</ele><time>2026-04-28T13:10:46Z</time></trkpt><trkpt lat="37.98436260318649" lon="13.464674596907368"><ele>334.0</ele><time>2026-04-28T13:10:48Z</time></trkpt><trkpt lat="37.98444077863665" lon="13.464777709424956"><ele>334.0</ele><time>2026-04-28T13:10:50Z</time></trkpt><trkpt lat="37.98451522108324" lon="13.464888460953741"><ele>334.0</ele><time>2026-04-28T13:10:52Z</time></trkpt><trkpt lat="37.98458713215422" lon="13.464965950412736"><ele>334.0</ele><time>2026-04-28T13:10:54Z</time></trkpt><trkpt lat="37.984665045250914" lon="13.465032672485995"><ele>334.0</ele><time>2026-04-28T13:10:56Z</time></trkpt><trkpt lat="37.984719665001194" lon="13.465117512022887"><ele>334.0</ele><time>2026-04-28T13:10:58Z</time></trkpt><trkpt lat="37.98475273815376" lon="13.46522312087783"><ele>334.0</ele><time>2026-04-28T13:11:00Z</time></trkpt><trkpt lat="37.98482000119154" lon="13.46529185855126"><ele>334.0</ele><time>2026-04-28T13:11:02Z</time></trkpt><trkpt lat="37.98489488650968" lon="13.465352725671151"><ele>334.0</ele><time>2026-04-28T13:11:04Z</time></trkpt><trkpt lat="37.9849687304625" lon="13.465413086379368"><ele>334.0</ele><time>2026-04-28T13:11:06Z</time></trkpt><trkpt lat="37.98504595204242" lon="13.465475456098838"><ele>334.0</ele><time>2026-04-28T13:11:08Z</time></trkpt><trkpt lat="37.985132437076246" lon="13.465538798279905"><ele>333.0</ele><time>2026-04-28T13:11:10Z</time></trkpt><trkpt lat="37.98522052391743" lon="13.465618302641705"><ele>332.0</ele><time>2026-04-28T13:11:12Z</time></trkpt><trkpt lat="37.98533434711659" lon="13.465679113128045"><ele>331.0</ele><time>2026-04-28T13:11:14Z</time></trkpt><trkpt lat="37.985391760220544" lon="13.465719629412037"><ele>330.0</ele><time>2026-04-28T13:11:15Z</time></trkpt><trkpt lat="37.985470962719276" lon="13.465769961243941"><ele>329.0</ele><time>2026-04-28T13:11:16Z</time></trkpt><trkpt lat="37.98554749075884" lon="13.46581919488617"><ele>329.0</ele><time>2026-04-28T13:11:17Z</time></trkpt><trkpt lat="37.98565869143591" lon="13.465871313163563"><ele>329.0</ele><time>2026-04-28T13:11:18Z</time></trkpt><trkpt lat="37.98573039297096" lon="13.465914157205441"><ele>329.0</ele><time>2026-04-28T13:11:19Z</time></trkpt><trkpt lat="37.98581571324862" lon="13.46594718391011"><ele>329.0</ele><time>2026-04-28T13:11:20Z</time></trkpt><trkpt lat="37.98591504292635" lon="13.465999228263662"><ele>329.0</ele><time>2026-04-28T13:11:21Z</time></trkpt><trkpt lat="37.98601120772973" lon="13.466081128205987"><ele>328.1666666666667</ele><time>2026-04-28T13:11:22Z</time></trkpt><trkpt lat="37.986088345583596" lon="13.466101040244206"><ele>327.33333333333337</ele><time>2026-04-28T13:11:23Z</time></trkpt><trkpt lat="37.98616576424057" lon="13.46613681495518"><ele>326.5</ele><time>2026-04-28T13:11:24Z</time></trkpt><trkpt lat="37.98625130032144" lon="13.466167454232588"><ele>325.6666666666667</ele><time>2026-04-28T13:11:25Z</time></trkpt><trkpt lat="37.98633730185229" lon="13.466229029883035"><ele>324.8333333333333</ele><time>2026-04-28T13:11:26Z</time></trkpt><trkpt lat="37.98639143982706" lon="13.4662739370802"><ele>324.0</ele><time>2026-04-28T13:11:27Z</time></trkpt><trkpt lat="37.986456752027095" lon="13.466307061221581"><ele>324.0</ele><time>2026-04-28T13:11:28Z</time></trkpt><trkpt lat="37.98653476966095" lon="13.46633666962494"><ele>324.0</ele><time>2026-04-28T13:11:29Z</time></trkpt><trkpt lat="37.98660162553908" lon="13.466366803059975"><ele>324.0</ele><time>2026-04-28T13:11:30Z</time></trkpt><trkpt lat="37.98666652491241" lon="13.46639278002581"><ele>324.0</ele><time>2026-04-28T13:11:31Z</time></trkpt><trkpt lat="37.98672539794331" lon="13.466424562639872"><ele>324.0</ele><time>2026-04-28T13:11:32Z</time></trkpt><trkpt lat="37.986826703813136" lon="13.466484643547524"><ele>324.0</ele><time>2026-04-28T13:11:34Z</time></trkpt><trkpt lat="37.98691076398716" lon="13.466538124308164"><ele>324.1666666666667</ele><time>2026-04-28T13:11:36Z</time></trkpt><trkpt lat="37.98698306324741" lon="13.466571323182425"><ele>324.3333333333333</ele><time>2026-04-28T13:11:38Z</time></trkpt><trkpt lat="37.98704284195222" lon="13.466603588827825"><ele>324.5</ele><time>2026-04-28T13:11:40Z</time></trkpt><trkpt lat="37.987103767326104" lon="13.466635069582813"><ele>324.66666666666663</ele><time>2026-04-28T13:11:42Z</time></trkpt><trkpt lat="37.987187078686176" lon="13.466692892562111"><ele>324.8333333333333</ele><time>2026-04-28T13:11:45Z</time></trkpt><trkpt lat="37.987235655375095" lon="13.466748260526938"><ele>325.0</ele><time>2026-04-28T13:11:47Z</time></trkpt><trkpt lat="37.9873239639751" lon="13.466800453972192"><ele>325.0</ele><time>2026-04-28T13:11:50Z</time></trkpt><trkpt lat="37.987414741624995" lon="13.46682719701284"><ele>325.0</ele><time>2026-04-28T13:11:52Z</time></trkpt><trkpt lat="37.98751569357782" lon="13.46688161887641"><ele>325.0</ele><time>2026-04-28T13:11:55Z</time></trkpt><trkpt lat="37.987582596818164" lon="13.466920616347362"><ele>325.0</ele><time>2026-04-28T13:11:58Z</time></trkpt><trkpt lat="37.98764484225839" lon="13.466970295656012"><ele>325.0</ele><time>2026-04-28T13:12:01Z</time></trkpt><trkpt lat="37.98771675489266" lon="13.46701692777718"><ele>325.0</ele><time>2026-04-28T13:12:04Z</time></trkpt><trkpt lat="37.987795217039285" lon="13.467054572645477"><ele>324.25</ele><time>2026-04-28T13:12:07Z</time></trkpt><trkpt lat="37.987854151587285" lon="13.467084006879183"><ele>323.5</ele><time>2026-04-28T13:12:09Z</time></trkpt><trkpt lat="37.98790878562504" lon="13.467125247367507"><ele>322.75</ele><time>2026-04-28T13:12:11Z</time></trkpt><trkpt lat="37.987984671320994" lon="13.467168805946132"><ele>322.0</ele><time>2026-04-28T13:12:14Z</time></trkpt><trkpt lat="37.98830841334825" lon="13.467297036923513"><ele>322.3333333333333</ele><time>2026-04-28T13:12:15Z</time></trkpt><trkpt lat="37.98837410105027" lon="13.467325914475376"><ele>322.66666666666663</ele><time>2026-04-28T13:12:16Z</time></trkpt><trkpt lat="37.98844487788751" lon="13.467378268629762"><ele>323.0</ele><time>2026-04-28T13:12:18Z</time></trkpt><trkpt lat="37.98853583506477" lon="13.467424406848185"><ele>323.3333333333333</ele><time>2026-04-28T13:12:20Z</time></trkpt><trkpt lat="37.98863929662719" lon="13.467506856229301"><ele>323.6666666666667</ele><time>2026-04-28T13:12:22Z</time></trkpt><trkpt lat="37.98870865805934" lon="13.467542203718942"><ele>324.0</ele><time>2026-04-28T13:12:23Z</time></trkpt><trkpt lat="37.98880692691476" lon="13.467633489961976"><ele>324.0</ele><time>2026-04-28T13:12:25Z</time></trkpt><trkpt lat="37.988867037635345" lon="13.467668980397564"><ele>324.0</ele><time>2026-04-28T13:12:26Z</time></trkpt><trkpt lat="37.98892436316755" lon="13.467704700789906"><ele>324.0</ele><time>2026-04-28T13:12:27Z</time></trkpt><trkpt lat="37.98898038245387" lon="13.467742320210178"><ele>324.0</ele><time>2026-04-28T13:12:28Z</time></trkpt><trkpt lat="37.98904672085568" lon="13.467779160231183"><ele>324.0</ele><time>2026-04-28T13:12:29Z</time></trkpt><trkpt lat="37.98916334804743" lon="13.467869585333803"><ele>324.0</ele><time>2026-04-28T13:12:31Z</time></trkpt><trkpt lat="37.98927211437934" lon="13.467962602666972"><ele>323.4</ele><time>2026-04-28T13:12:33Z</time></trkpt><trkpt lat="37.989330237819864" lon="13.468008269361002"><ele>322.79999999999995</ele><time>2026-04-28T13:12:34Z</time></trkpt><trkpt lat="37.98941534131508" lon="13.468091132823139"><ele>322.20000000000005</ele><time>2026-04-28T13:12:36Z</time></trkpt><trkpt lat="37.989485091416974" lon="13.468130350913802"><ele>321.6</ele><time>2026-04-28T13:12:37Z</time></trkpt><trkpt lat="37.98960518988822" lon="13.468203580474444"><ele>321.0</ele><time>2026-04-28T13:12:39Z</time></trkpt><trkpt lat="37.98966624904622" lon="13.468243998115186"><ele>321.0</ele><time>2026-04-28T13:12:40Z</time></trkpt><trkpt lat="37.98973207563421" lon="13.468279876269754"><ele>321.0</ele><time>2026-04-28T13:12:41Z</time></trkpt><trkpt lat="37.98979644445477" lon="13.468307758381094"><ele>321.0</ele><time>2026-04-28T13:12:42Z</time></trkpt><trkpt lat="37.9898622688813" lon="13.468331357943736"><ele>321.0</ele><time>2026-04-28T13:12:43Z</time></trkpt><trkpt lat="37.989925950466464" lon="13.468356771620883"><ele>321.0</ele><time>2026-04-28T13:12:44Z</time></trkpt><trkpt lat="37.990046617124214" lon="13.468374780796918"><ele>321.0</ele><time>2026-04-28T13:12:46Z</time></trkpt><trkpt lat="37.99011054711569" lon="13.468363994032945"><ele>321.0</ele><time>2026-04-28T13:12:47Z</time></trkpt><trkpt lat="37.9902266039504" lon="13.468349035770911"><ele>321.0</ele><time>2026-04-28T13:12:49Z</time></trkpt><trkpt lat="37.99033118067834" lon="13.4683319316506"><ele>321.0</ele><time>2026-04-28T13:12:51Z</time></trkpt><trkpt lat="37.990410611343734" lon="13.468329522195376"><ele>321.0</ele><time>2026-04-28T13:12:53Z</time></trkpt><trkpt lat="37.9904969365324" lon="13.46832446203075"><ele>321.0</ele><time>2026-04-28T13:12:55Z</time></trkpt><trkpt lat="37.99058065937498" lon="13.468323499150033"><ele>321.0</ele><time>2026-04-28T13:12:58Z</time></trkpt><trkpt lat="37.99066771638421" lon="13.468301950748401"><ele>321.0</ele><time>2026-04-28T13:13:01Z</time></trkpt><trkpt lat="37.9907410874545" lon="13.468306536431028"><ele>321.0</ele><time>2026-04-28T13:13:04Z</time></trkpt><trkpt lat="37.99083366430094" lon="13.468307943291757"><ele>321.0</ele><time>2026-04-28T13:13:07Z</time></trkpt><trkpt lat="37.99091075761367" lon="13.468303105738995"><ele>321.0</ele><time>2026-04-28T13:13:10Z</time></trkpt><trkpt lat="37.99098236276234" lon="13.468291807575135"><ele>321.0</ele><time>2026-04-28T13:13:12Z</time></trkpt><trkpt lat="37.9910526071026" lon="13.468281463904608"><ele>320.6</ele><time>2026-04-28T13:13:15Z</time></trkpt><trkpt lat="37.99115538208957" lon="13.468277920843303"><ele>320.20000000000005</ele><time>2026-04-28T13:13:18Z</time></trkpt><trkpt lat="37.99122087466917" lon="13.468289224234914"><ele>319.79999999999995</ele><time>2026-04-28T13:13:21Z</time></trkpt><trkpt lat="37.991297721267266" lon="13.468286575336858"><ele>319.4</ele><time>2026-04-28T13:13:24Z</time></trkpt><trkpt lat="37.99138445151996" lon="13.468263656916358"><ele>319.0</ele><time>2026-04-28T13:13:27Z</time></trkpt><trkpt lat="37.991741276655794" lon="13.468112506592314"><ele>319.0</ele><time>2026-04-28T13:13:30Z</time></trkpt><trkpt lat="37.9918313477171" lon="13.46808407116562"><ele>319.0</ele><time>2026-04-28T13:13:32Z</time></trkpt><trkpt lat="37.99193403839929" lon="13.468028639730118"><ele>319.0</ele><time>2026-04-28T13:13:34Z</time></trkpt><trkpt lat="37.992034881731115" lon="13.46804903140902"><ele>319.0</ele><time>2026-04-28T13:13:36Z</time></trkpt><trkpt lat="37.99213167388146" lon="13.468055300798513"><ele>319.0</ele><time>2026-04-28T13:13:38Z</time></trkpt><trkpt lat="37.992237324674576" lon="13.468048541922313"><ele>319.0</ele><time>2026-04-28T13:13:40Z</time></trkpt><trkpt lat="37.99233224193751" lon="13.46806544095946"><ele>319.0</ele><time>2026-04-28T13:13:42Z</time></trkpt><trkpt lat="37.99242101785485" lon="13.468069819830818"><ele>319.0</ele><time>2026-04-28T13:13:44Z</time></trkpt><trkpt lat="37.99251006235668" lon="13.468045543017862"><ele>319.0</ele><time>2026-04-28T13:13:46Z</time></trkpt><trkpt lat="37.992590678858335" lon="13.468096642118685"><ele>319.0</ele><time>2026-04-28T13:13:48Z</time></trkpt><trkpt lat="37.992725601872344" lon="13.468117290646102"><ele>320.2857142857143</ele><time>2026-04-28T13:13:53Z</time></trkpt><trkpt lat="37.99278828005378" lon="13.468149920406127"><ele>321.57142857142856</ele><time>2026-04-28T13:13:57Z</time></trkpt><trkpt lat="37.99284817812966" lon="13.46811613935917"><ele>322.85714285714283</ele><time>2026-04-28T13:14:00Z</time></trkpt><trkpt lat="37.992915123867625" lon="13.46813119798028"><ele>324.1428571428571</ele><time>2026-04-28T13:14:05Z</time></trkpt><trkpt lat="37.99298611246446" lon="13.46815049904837"><ele>325.42857142857144</ele><time>2026-04-28T13:14:10Z</time></trkpt><trkpt lat="37.99306343002254" lon="13.468142315016271"><ele>326.71428571428567</ele><time>2026-04-28T13:14:14Z</time></trkpt><trkpt lat="37.99314136812726" lon="13.468149488868365"><ele>328.0</ele><time>2026-04-28T13:14:19Z</time></trkpt><trkpt lat="37.99321905447244" lon="13.468160764986402"><ele>327.99999999999994</ele><time>2026-04-28T13:14:24Z</time></trkpt><trkpt lat="37.993283343043856" lon="13.468163182022224"><ele>328.0</ele><time>2026-04-28T13:14:28Z</time></trkpt><trkpt lat="37.99335192692677" lon="13.46817388245826"><ele>328.0</ele><time>2026-04-28T13:14:32Z</time></trkpt><trkpt lat="37.993430008406804" lon="13.468171390901842"><ele>328.0</ele><time>2026-04-28T13:14:37Z</time></trkpt><trkpt lat="37.993495200607725" lon="13.46817060102454"><ele>328.0</ele><time>2026-04-28T13:14:41Z</time></trkpt><trkpt lat="37.993572556640345" lon="13.46818726836467"><ele>327.99999999999994</ele><time>2026-04-28T13:14:46Z</time></trkpt><trkpt lat="37.99363482294755" lon="13.468159416185548"><ele>328.0</ele><time>2026-04-28T13:14:49Z</time></trkpt><trkpt lat="37.99371017028285" lon="13.468142952083621"><ele>329.85714285714283</ele><time>2026-04-28T13:14:52Z</time></trkpt><trkpt lat="37.99375770101601" lon="13.468209690779306"><ele>331.7142857142857</ele><time>2026-04-28T13:14:56Z</time></trkpt><trkpt lat="37.99382120691083" lon="13.468240588476576"><ele>333.57142857142856</ele><time>2026-04-28T13:15:02Z</time></trkpt><trkpt lat="37.993885414048925" lon="13.468292463311196"><ele>335.42857142857144</ele><time>2026-04-28T13:15:07Z</time></trkpt><trkpt lat="37.99394837129816" lon="13.468302662997763"><ele>337.2857142857143</ele><time>2026-04-28T13:15:12Z</time></trkpt><trkpt lat="37.99401894673525" lon="13.468334625069884"><ele>339.1428571428571</ele><time>2026-04-28T13:15:17Z</time></trkpt><trkpt lat="37.99408223242555" lon="13.468367465586962"><ele>341.0</ele><time>2026-04-28T13:15:22Z</time></trkpt><trkpt lat="37.994148558138725" lon="13.468399182505028"><ele>342.57142857142856</ele><time>2026-04-28T13:15:27Z</time></trkpt><trkpt lat="37.99420865590187" lon="13.468430566878823"><ele>344.14285714285717</ele><time>2026-04-28T13:15:31Z</time></trkpt><trkpt lat="37.99428100073579" lon="13.468457364198798"><ele>345.7142857142857</ele><time>2026-04-28T13:15:36Z</time></trkpt><trkpt lat="37.994346374905355" lon="13.468488126223672"><ele>347.2857142857143</ele><time>2026-04-28T13:15:40Z</time></trkpt><trkpt lat="37.99441692037871" lon="13.468504715283563"><ele>348.85714285714283</ele><time>2026-04-28T13:15:45Z</time></trkpt><trkpt lat="37.994481939706425" lon="13.46851008148252"><ele>350.42857142857144</ele><time>2026-04-28T13:15:50Z</time></trkpt><trkpt lat="37.99454513202258" lon="13.468506551564777"><ele>352.0</ele><time>2026-04-28T13:15:54Z</time></trkpt><trkpt lat="37.99461427704958" lon="13.468529896053708"><ele>352.0</ele><time>2026-04-28T13:15:58Z</time></trkpt><trkpt lat="37.994680330192274" lon="13.468536237633245"><ele>352.0</ele><time>2026-04-28T13:16:03Z</time></trkpt><trkpt lat="37.994745410741785" lon="13.468575895835768"><ele>352.0</ele><time>2026-04-28T13:16:09Z</time></trkpt><trkpt lat="37.99481439959902" lon="13.468580174966151"><ele>352.0</ele><time>2026-04-28T13:16:14Z</time></trkpt><trkpt lat="37.99488082395745" lon="13.468588696795361"><ele>352.0</ele><time>2026-04-28T13:16:18Z</time></trkpt><trkpt lat="37.994944033793765" lon="13.468606975036009"><ele>352.0</ele><time>2026-04-28T13:16:23Z</time></trkpt><trkpt lat="37.9950140704164" lon="13.46863223288622"><ele>352.0</ele><time>2026-04-28T13:16:28Z</time></trkpt><trkpt lat="37.99508790050937" lon="13.468649260824588"><ele>353.8571428571429</ele><time>2026-04-28T13:16:33Z</time></trkpt><trkpt lat="37.995151306616215" lon="13.468648016430162"><ele>355.7142857142857</ele><time>2026-04-28T13:16:38Z</time></trkpt><trkpt lat="37.99521793958795" lon="13.468659980526553"><ele>357.57142857142856</ele><time>2026-04-28T13:16:43Z</time></trkpt><trkpt lat="37.9952871401872" lon="13.468670654507207"><ele>359.42857142857144</ele><time>2026-04-28T13:16:48Z</time></trkpt><trkpt lat="37.995354251859666" lon="13.46868278274547"><ele>361.2857142857143</ele><time>2026-04-28T13:16:53Z</time></trkpt><trkpt lat="37.995426329804786" lon="13.468703253413503"><ele>363.14285714285717</ele><time>2026-04-28T13:16:58Z</time></trkpt><trkpt lat="37.99549540976372" lon="13.46870379372657"><ele>365.0</ele><time>2026-04-28T13:17:03Z</time></trkpt><trkpt lat="37.995555191915564" lon="13.468739648810443"><ele>365.00000000000006</ele><time>2026-04-28T13:17:08Z</time></trkpt><trkpt lat="37.995616447154006" lon="13.468771964506038"><ele>365.0</ele><time>2026-04-28T13:17:13Z</time></trkpt><trkpt lat="37.99568542928127" lon="13.468785957318625"><ele>365.0</ele><time>2026-04-28T13:17:18Z</time></trkpt><trkpt lat="37.99574915127876" lon="13.468814016743982"><ele>365.0</ele><time>2026-04-28T13:17:23Z</time></trkpt><trkpt lat="37.99580007991701" lon="13.468877004728945"><ele>365.0</ele><time>2026-04-28T13:17:28Z</time></trkpt><trkpt lat="37.99584816531284" lon="13.468944400044888"><ele>365.00000000000006</ele><time>2026-04-28T13:17:33Z</time></trkpt><trkpt lat="37.99590709082117" lon="13.468996717134898"><ele>365.0</ele><time>2026-04-28T13:17:38Z</time></trkpt><trkpt lat="37.995959414436236" lon="13.469055789496254"><ele>367.00000000000006</ele><time>2026-04-28T13:17:43Z</time></trkpt><trkpt lat="37.99600666618682" lon="13.469114968827915"><ele>369.0</ele><time>2026-04-28T13:17:47Z</time></trkpt><trkpt lat="37.996049491605966" lon="13.469184834761865"><ele>371.0</ele><time>2026-04-28T13:17:51Z</time></trkpt><trkpt lat="37.99611231360328" lon="13.469251088558599"><ele>373.0</ele><time>2026-04-28T13:17:55Z</time></trkpt><trkpt lat="37.99614774303383" lon="13.469324739472484"><ele>375.0</ele><time>2026-04-28T13:17:59Z</time></trkpt><trkpt lat="37.99619755272906" lon="13.469395860725495"><ele>377.00000000000006</ele><time>2026-04-28T13:18:04Z</time></trkpt><trkpt lat="37.99623149016325" lon="13.469482137611127"><ele>379.0</ele><time>2026-04-28T13:18:09Z</time></trkpt><trkpt lat="37.99626128792693" lon="13.469561113531809"><ele>379.28571428571433</ele><time>2026-04-28T13:18:13.999Z</time></trkpt><trkpt lat="37.996291506007665" lon="13.469641622855283"><ele>379.57142857142856</ele><time>2026-04-28T13:18:19.999Z</time></trkpt><trkpt lat="37.996356930171586" lon="13.469700395056774"><ele>379.8571428571429</ele><time>2026-04-28T13:18:24.999Z</time></trkpt><trkpt lat="37.9964093994538" lon="13.46977439785533"><ele>380.14285714285717</ele><time>2026-04-28T13:18:30.999Z</time></trkpt><trkpt lat="37.996454433753094" lon="13.469830354787634"><ele>380.42857142857144</ele><time>2026-04-28T13:18:35.999Z</time></trkpt><trkpt lat="37.99649866949535" lon="13.469889385623791"><ele>380.7142857142857</ele><time>2026-04-28T13:18:39.999Z</time></trkpt><trkpt lat="37.99653766587401" lon="13.469955436361495"><ele>381.0</ele><time>2026-04-28T13:18:44.999Z</time></trkpt><trkpt lat="37.99659732052441" lon="13.470005879090618"><ele>381.0</ele><time>2026-04-28T13:18:49.999Z</time></trkpt><trkpt lat="37.996652317755306" lon="13.470054422342004"><ele>381.0</ele><time>2026-04-28T13:18:54.999Z</time></trkpt><trkpt lat="37.99668787913234" lon="13.470127910384312"><ele>381.0</ele><time>2026-04-28T13:19:00.999Z</time></trkpt><trkpt lat="37.996749883488434" lon="13.470179561516618"><ele>381.0</ele><time>2026-04-28T13:19:07Z</time></trkpt><trkpt lat="37.99678206534986" lon="13.470250792447116"><ele>381.0</ele><time>2026-04-28T13:19:12Z</time></trkpt><trkpt lat="37.99683741245072" lon="13.470299869473683"><ele>381.0</ele><time>2026-04-28T13:19:17Z</time></trkpt><trkpt lat="37.996900719711356" lon="13.470346371223512"><ele>381.0</ele><time>2026-04-28T13:19:22Z</time></trkpt><trkpt lat="37.99695654321285" lon="13.470384828312572"><ele>382.85714285714283</ele><time>2026-04-28T13:19:26Z</time></trkpt><trkpt lat="37.997006287702966" lon="13.47044889051172"><ele>384.7142857142857</ele><time>2026-04-28T13:19:32Z</time></trkpt><trkpt lat="37.99703940715733" lon="13.470521021138952"><ele>386.57142857142856</ele><time>2026-04-28T13:19:38Z</time></trkpt><trkpt lat="37.99710094067933" lon="13.47056045659684"><ele>388.42857142857144</ele><time>2026-04-28T13:19:44Z</time></trkpt><trkpt lat="37.99714978637599" lon="13.470615882009868"><ele>390.28571428571433</ele><time>2026-04-28T13:19:49Z</time></trkpt><trkpt lat="37.997201108914524" lon="13.470668459752366"><ele>392.14285714285717</ele><time>2026-04-28T13:19:54Z</time></trkpt><trkpt lat="37.99725638958675" lon="13.470709897431801"><ele>394.0</ele><time>2026-04-28T13:20:00Z</time></trkpt><trkpt lat="37.99730877428955" lon="13.470775887532083"><ele>394.0</ele><time>2026-04-28T13:20:06Z</time></trkpt><trkpt lat="37.99734660692916" lon="13.470862529842586"><ele>394.0</ele><time>2026-04-28T13:20:12Z</time></trkpt><trkpt lat="37.99738785659598" lon="13.470930337545092"><ele>394.0</ele><time>2026-04-28T13:20:18Z</time></trkpt><trkpt lat="37.99743571977643" lon="13.470994550656297"><ele>394.0</ele><time>2026-04-28T13:20:23Z</time></trkpt><trkpt lat="37.99749146291786" lon="13.47103522595969"><ele>394.0</ele><time>2026-04-28T13:20:28Z</time></trkpt><trkpt lat="37.99753022571812" lon="13.471103219851537"><ele>394.0</ele><time>2026-04-28T13:20:33Z</time></trkpt><trkpt lat="37.997574902184894" lon="13.471175935498989"><ele>394.0</ele><time>2026-04-28T13:20:38Z</time></trkpt><trkpt lat="37.99761566620325" lon="13.471247783755846"><ele>393.57142857142856</ele><time>2026-04-28T13:20:43Z</time></trkpt><trkpt lat="37.99766339196504" lon="13.471308910155068"><ele>393.14285714285717</ele><time>2026-04-28T13:20:48Z</time></trkpt><trkpt lat="37.997698183988156" lon="13.471375944296305"><ele>392.71428571428567</ele><time>2026-04-28T13:20:52Z</time></trkpt><trkpt lat="37.997739563731514" lon="13.471452497693752"><ele>392.2857142857143</ele><time>2026-04-28T13:20:57Z</time></trkpt><trkpt lat="37.997779557766215" lon="13.471525954139416"><ele>391.85714285714283</ele><time>2026-04-28T13:21:02Z</time></trkpt><trkpt lat="37.99779605147529" lon="13.471611200147569"><ele>391.4285714285714</ele><time>2026-04-28T13:21:07Z</time></trkpt><trkpt lat="37.997810047101844" lon="13.471694911172007"><ele>391.0</ele><time>2026-04-28T13:21:12Z</time></trkpt><trkpt lat="37.99782493223119" lon="13.471773566076985"><ele>390.99999999999994</ele><time>2026-04-28T13:21:17Z</time></trkpt><trkpt lat="37.997836469234315" lon="13.47186491906467"><ele>391.0</ele><time>2026-04-28T13:21:22Z</time></trkpt><trkpt lat="37.997816941240764" lon="13.47195948817938"><ele>391.0</ele><time>2026-04-28T13:21:28Z</time></trkpt><trkpt lat="37.99781636747218" lon="13.472053159577694"><ele>391.0</ele><time>2026-04-28T13:21:33Z</time></trkpt><trkpt lat="37.99780000567392" lon="13.47215324226074"><ele>391.0</ele><time>2026-04-28T13:21:38Z</time></trkpt><trkpt lat="37.9978024325242" lon="13.472234948847872"><ele>390.99999999999994</ele><time>2026-04-28T13:21:42Z</time></trkpt><trkpt lat="37.99782008455028" lon="13.472322314241083"><ele>391.0</ele><time>2026-04-28T13:21:46Z</time></trkpt><trkpt lat="37.99785796623878" lon="13.472401076649898"><ele>391.85714285714283</ele><time>2026-04-28T13:21:50Z</time></trkpt><trkpt lat="37.99788626282661" lon="13.47249098972186"><ele>392.7142857142857</ele><time>2026-04-28T13:21:54Z</time></trkpt><trkpt lat="37.997913125308926" lon="13.472566890488018"><ele>393.57142857142856</ele><time>2026-04-28T13:21:58Z</time></trkpt><trkpt lat="37.997945769122204" lon="13.472639945996733"><ele>394.42857142857144</ele><time>2026-04-28T13:22:02Z</time></trkpt><trkpt lat="37.997986720182475" lon="13.472729366728823"><ele>395.2857142857143</ele><time>2026-04-28T13:22:05Z</time></trkpt><trkpt lat="37.99802835101142" lon="13.472794662872857"><ele>396.1428571428571</ele><time>2026-04-28T13:22:07Z</time></trkpt><trkpt lat="37.998049367012705" lon="13.472889318975302"><ele>397.0</ele><time>2026-04-28T13:22:10Z</time></trkpt><trkpt lat="37.99811113977068" lon="13.47293462060355"><ele>398.83333333333337</ele><time>2026-04-28T13:22:12Z</time></trkpt><trkpt lat="37.998155011832004" lon="13.473040428754016"><ele>400.6666666666667</ele><time>2026-04-28T13:22:15Z</time></trkpt><trkpt lat="37.99820296071446" lon="13.473107591339126"><ele>402.5</ele><time>2026-04-28T13:22:17Z</time></trkpt><trkpt lat="37.99823087944751" lon="13.473194018763735"><ele>404.33333333333337</ele><time>2026-04-28T13:22:19Z</time></trkpt><trkpt lat="37.99827480044306" lon="13.473281720036493"><ele>406.1666666666667</ele><time>2026-04-28T13:22:21Z</time></trkpt><trkpt lat="37.998316372132656" lon="13.473364728942506"><ele>408.0</ele><time>2026-04-28T13:22:23Z</time></trkpt><trkpt lat="37.99835148609081" lon="13.47345484633379"><ele>407.0</ele><time>2026-04-28T13:22:25Z</time></trkpt><trkpt lat="37.99838861379821" lon="13.473546132891931"><ele>406.0</ele><time>2026-04-28T13:22:27Z</time></trkpt><trkpt lat="37.998420138661025" lon="13.473629688802607"><ele>405.0</ele><time>2026-04-28T13:22:29Z</time></trkpt><trkpt lat="37.99846228159995" lon="13.473718139240395"><ele>404.0</ele><time>2026-04-28T13:22:31Z</time></trkpt><trkpt lat="37.99850169502351" lon="13.47378997275198"><ele>403.0</ele><time>2026-04-28T13:22:33Z</time></trkpt><trkpt lat="37.998536326452026" lon="13.473856929385722"><ele>402.0</ele><time>2026-04-28T13:22:35Z</time></trkpt><trkpt lat="37.99859692705051" lon="13.473941401228052"><ele>402.0</ele><time>2026-04-28T13:22:38Z</time></trkpt><trkpt lat="37.998648107372475" lon="13.474029024797062"><ele>402.0</ele><time>2026-04-28T13:22:41Z</time></trkpt><trkpt lat="37.9987050456348" lon="13.474116853167608"><ele>402.0</ele><time>2026-04-28T13:22:43Z</time></trkpt><trkpt lat="37.99877547146303" lon="13.474197722311814"><ele>402.0</ele><time>2026-04-28T13:22:47Z</time></trkpt><trkpt lat="37.99882094089555" lon="13.474276012345634"><ele>402.0</ele><time>2026-04-28T13:22:49Z</time></trkpt><trkpt lat="37.99887588960926" lon="13.4743525657957"><ele>402.0</ele><time>2026-04-28T13:22:51Z</time></trkpt><trkpt lat="37.9989266480995" lon="13.47443127029305"><ele>402.0</ele><time>2026-04-28T13:22:53Z</time></trkpt><trkpt lat="37.99898430375527" lon="13.474514023694542"><ele>402.0</ele><time>2026-04-28T13:22:55Z</time></trkpt><trkpt lat="37.999034162906035" lon="13.474607144791097"><ele>402.0</ele><time>2026-04-28T13:22:57Z</time></trkpt><trkpt lat="37.99908154384052" lon="13.474687470558134"><ele>402.0</ele><time>2026-04-28T13:22:59Z</time></trkpt><trkpt lat="37.99911250415689" lon="13.474759315474362"><ele>402.0</ele><time>2026-04-28T13:23:02Z</time></trkpt><trkpt lat="37.99914496694485" lon="13.474840544958473"><ele>402.0</ele><time>2026-04-28T13:23:04Z</time></trkpt><trkpt lat="37.99916067015392" lon="13.474934568539608"><ele>397.5</ele><time>2026-04-28T13:23:07Z</time></trkpt><trkpt lat="37.99920987230225" lon="13.474994875119972"><ele>393.0</ele><time>2026-04-28T13:23:09Z</time></trkpt><trkpt lat="37.99923852786739" lon="13.475072727254256"><ele>388.5</ele><time>2026-04-28T13:23:11Z</time></trkpt><trkpt lat="37.99921936166279" lon="13.475163171764951"><ele>384.0</ele><time>2026-04-28T13:23:13Z</time></trkpt><trkpt lat="37.999360807631696" lon="13.47560976335464"><ele>384.0</ele><time>2026-04-28T13:23:16Z</time></trkpt><trkpt lat="37.999346879157045" lon="13.475702834026313"><ele>384.0</ele><time>2026-04-28T13:23:17Z</time></trkpt><trkpt lat="37.99934794622322" lon="13.47580423746422"><ele>384.0</ele><time>2026-04-28T13:23:18Z</time></trkpt><trkpt lat="37.99936721003302" lon="13.475924897822845"><ele>384.0</ele><time>2026-04-28T13:23:19Z</time></trkpt><trkpt lat="37.999411485145004" lon="13.476035348734795"><ele>384.0</ele><time>2026-04-28T13:23:20Z</time></trkpt><trkpt lat="37.999496719301845" lon="13.476126385882985"><ele>384.0</ele><time>2026-04-28T13:23:21Z</time></trkpt><trkpt lat="37.99954314801963" lon="13.476223417537001"><ele>384.0</ele><time>2026-04-28T13:23:22Z</time></trkpt><trkpt lat="37.99963097764001" lon="13.476326145526405"><ele>384.0</ele><time>2026-04-28T13:23:23Z</time></trkpt><trkpt lat="37.99968562523747" lon="13.476464234896973"><ele>384.0</ele><time>2026-04-28T13:23:24Z</time></trkpt><trkpt lat="37.999737738790266" lon="13.476586925445073"><ele>384.0</ele><time>2026-04-28T13:23:25Z</time></trkpt><trkpt lat="37.99980561411132" lon="13.476693110483577"><ele>384.75</ele><time>2026-04-28T13:23:26Z</time></trkpt><trkpt lat="37.99980959627241" lon="13.476885441389136"><ele>385.5</ele><time>2026-04-28T13:23:27Z</time></trkpt><trkpt lat="37.99984989278106" lon="13.47701681769848"><ele>386.25</ele><time>2026-04-28T13:23:28Z</time></trkpt><trkpt lat="37.9998965962923" lon="13.477156087909705"><ele>387.0</ele><time>2026-04-28T13:23:29Z</time></trkpt><trkpt lat="37.9999288984976" lon="13.477289604279964"><ele>387.0</ele><time>2026-04-28T13:23:30Z</time></trkpt><trkpt lat="37.999920125438756" lon="13.47743668507277"><ele>387.0</ele><time>2026-04-28T13:23:31Z</time></trkpt><trkpt lat="37.9999813236066" lon="13.477592057703987"><ele>387.0</ele><time>2026-04-28T13:23:32Z</time></trkpt><trkpt lat="38.00001424957536" lon="13.47771554162988"><ele>387.0</ele><time>2026-04-28T13:23:33Z</time></trkpt><trkpt lat="38.00006836002451" lon="13.477863942021937"><ele>385.0</ele><time>2026-04-28T13:23:34Z</time></trkpt><trkpt lat="38.00010992978579" lon="13.478007341604952"><ele>383.0</ele><time>2026-04-28T13:23:35Z</time></trkpt><trkpt lat="38.000149353859356" lon="13.478163902653906"><ele>381.0</ele><time>2026-04-28T13:23:36Z</time></trkpt><trkpt lat="38.00021015770873" lon="13.478324213399114"><ele>379.0</ele><time>2026-04-28T13:23:37Z</time></trkpt><trkpt lat="38.00026342315637" lon="13.478464072783614"><ele>379.0</ele><time>2026-04-28T13:23:38Z</time></trkpt><trkpt lat="38.00030430522242" lon="13.478607059338723"><ele>379.0</ele><time>2026-04-28T13:23:39Z</time></trkpt><trkpt lat="38.00035489073282" lon="13.478753036957213"><ele>379.0</ele><time>2026-04-28T13:23:40Z</time></trkpt><trkpt lat="38.00040364087751" lon="13.47888995069202"><ele>379.0</ele><time>2026-04-28T13:23:41Z</time></trkpt><trkpt lat="38.0004597450234" lon="13.479020931173128"><ele>376.0</ele><time>2026-04-28T13:23:42Z</time></trkpt><trkpt lat="38.00050157540058" lon="13.479163135024084"><ele>373.0</ele><time>2026-04-28T13:23:43Z</time></trkpt><trkpt lat="38.00055418690412" lon="13.479287398921866"><ele>370.0</ele><time>2026-04-28T13:23:44Z</time></trkpt><trkpt lat="38.00062619100567" lon="13.479393362525691"><ele>367.0</ele><time>2026-04-28T13:23:45Z</time></trkpt><trkpt lat="38.000721600809996" lon="13.479469112314126"><ele>367.0</ele><time>2026-04-28T13:23:46Z</time></trkpt><trkpt lat="38.000821480623614" lon="13.479534290717808"><ele>367.0</ele><time>2026-04-28T13:23:47Z</time></trkpt><trkpt lat="38.000919690841116" lon="13.479600179511918"><ele>367.0</ele><time>2026-04-28T13:23:48Z</time></trkpt><trkpt lat="38.001011321037225" lon="13.47965960972089"><ele>367.0</ele><time>2026-04-28T13:23:49Z</time></trkpt><trkpt lat="38.001095486179764" lon="13.479722668844115"><ele>367.0</ele><time>2026-04-28T13:23:50Z</time></trkpt><trkpt lat="38.00117156631701" lon="13.4797981183008"><ele>367.20000000000005</ele><time>2026-04-28T13:23:51Z</time></trkpt><trkpt lat="38.00125518212032" lon="13.479844269458994"><ele>367.4</ele><time>2026-04-28T13:23:52Z</time></trkpt><trkpt lat="38.001345286790006" lon="13.479910425765086"><ele>367.6</ele><time>2026-04-28T13:23:53Z</time></trkpt><trkpt lat="38.00143027632568" lon="13.479978697028315"><ele>367.79999999999995</ele><time>2026-04-28T13:23:54Z</time></trkpt><trkpt lat="38.00152186241532" lon="13.480023054405047"><ele>368.0</ele><time>2026-04-28T13:23:55Z</time></trkpt><trkpt lat="38.00161321785507" lon="13.48007063709414"><ele>366.59999999999997</ele><time>2026-04-28T13:23:56Z</time></trkpt><trkpt lat="38.00172465824801" lon="13.480086387967253"><ele>365.2</ele><time>2026-04-28T13:23:57Z</time></trkpt><trkpt lat="38.001822078729994" lon="13.48011826994598"><ele>363.8</ele><time>2026-04-28T13:23:58Z</time></trkpt><trkpt lat="38.001924112289174" lon="13.480169922161146"><ele>362.4</ele><time>2026-04-28T13:23:59Z</time></trkpt><trkpt lat="38.00203316301586" lon="13.480207697912727"><ele>361.0</ele><time>2026-04-28T13:24:00Z</time></trkpt><trkpt lat="38.00215442868405" lon="13.480234990160394"><ele>361.0</ele><time>2026-04-28T13:24:01Z</time></trkpt><trkpt lat="38.00228314204767" lon="13.480278401076003"><ele>361.0</ele><time>2026-04-28T13:24:02Z</time></trkpt><trkpt lat="38.00240245324988" lon="13.480327494522927"><ele>361.0</ele><time>2026-04-28T13:24:03Z</time></trkpt><trkpt lat="38.002521861776074" lon="13.48037931923391"><ele>361.0</ele><time>2026-04-28T13:24:04Z</time></trkpt><trkpt lat="38.00263380907691" lon="13.480432271681876"><ele>357.0</ele><time>2026-04-28T13:24:05Z</time></trkpt><trkpt lat="38.002752133800755" lon="13.48045545785736"><ele>353.0</ele><time>2026-04-28T13:24:06Z</time></trkpt><trkpt lat="38.0028711911723" lon="13.480469276529753"><ele>349.0</ele><time>2026-04-28T13:24:07Z</time></trkpt><trkpt lat="38.00298753004642" lon="13.48049521456736"><ele>345.0</ele><time>2026-04-28T13:24:08Z</time></trkpt><trkpt lat="38.003111747467614" lon="13.480516987856827"><ele>345.0</ele><time>2026-04-28T13:24:09Z</time></trkpt><trkpt lat="38.003235554210605" lon="13.480529341372243"><ele>345.0</ele><time>2026-04-28T13:24:10Z</time></trkpt><trkpt lat="38.00335519036058" lon="13.480534683587221"><ele>345.0</ele><time>2026-04-28T13:24:11Z</time></trkpt><trkpt lat="38.0034826451791" lon="13.480530408855657"><ele>345.0</ele><time>2026-04-28T13:24:12Z</time></trkpt><trkpt lat="38.00360695011382" lon="13.480492453892387"><ele>343.0</ele><time>2026-04-28T13:24:13Z</time></trkpt><trkpt lat="38.0037267339443" lon="13.480436814299686"><ele>341.0</ele><time>2026-04-28T13:24:14Z</time></trkpt><trkpt lat="38.003843547358564" lon="13.480373963942938"><ele>339.0</ele><time>2026-04-28T13:24:15Z</time></trkpt><trkpt lat="38.00396858986303" lon="13.48031107021199"><ele>337.0</ele><time>2026-04-28T13:24:16Z</time></trkpt><trkpt lat="38.00409269175753" lon="13.48023412801405"><ele>333.0</ele><time>2026-04-28T13:24:17Z</time></trkpt><trkpt lat="38.00422134317011" lon="13.480137369334493"><ele>329.0</ele><time>2026-04-28T13:24:18Z</time></trkpt><trkpt lat="38.00434683773496" lon="13.480073237660537"><ele>325.0</ele><time>2026-04-28T13:24:19Z</time></trkpt><trkpt lat="38.004494637465015" lon="13.480011861039253"><ele>321.0</ele><time>2026-04-28T13:24:20Z</time></trkpt><trkpt lat="38.004648430302026" lon="13.47998363286365"><ele>321.0</ele><time>2026-04-28T13:24:21Z</time></trkpt><trkpt lat="38.004791632381156" lon="13.479966504270287"><ele>321.0</ele><time>2026-04-28T13:24:22Z</time></trkpt><trkpt lat="38.00493271319251" lon="13.479951622888228"><ele>321.0</ele><time>2026-04-28T13:24:23Z</time></trkpt><trkpt lat="38.005053485430594" lon="13.47994878951401"><ele>321.0</ele><time>2026-04-28T13:24:24Z</time></trkpt><trkpt lat="38.00514183053091" lon="13.47996935719023"><ele>318.25</ele><time>2026-04-28T13:24:25Z</time></trkpt><trkpt lat="38.0052232732046" lon="13.48005513195062"><ele>315.5</ele><time>2026-04-28T13:24:26Z</time></trkpt><trkpt lat="38.00530979608687" lon="13.480150532809668"><ele>312.75</ele><time>2026-04-28T13:24:27Z</time></trkpt><trkpt lat="38.005393703503316" lon="13.480255396136425"><ele>310.0</ele><time>2026-04-28T13:24:28Z</time></trkpt><trkpt lat="38.00548178994681" lon="13.480347287013783"><ele>310.0</ele><time>2026-04-28T13:24:29Z</time></trkpt><trkpt lat="38.005588936238084" lon="13.480420165815296"><ele>310.0</ele><time>2026-04-28T13:24:30Z</time></trkpt><trkpt lat="38.00568647821176" lon="13.480493412960024"><ele>310.0</ele><time>2026-04-28T13:24:31Z</time></trkpt><trkpt lat="38.00578565137557" lon="13.480571921693429"><ele>310.0</ele><time>2026-04-28T13:24:32Z</time></trkpt><trkpt lat="38.00587944559121" lon="13.480637520417673"><ele>306.5</ele><time>2026-04-28T13:24:33Z</time></trkpt><trkpt lat="38.006063008775286" lon="13.480813270230373"><ele>303.0</ele><time>2026-04-28T13:24:35Z</time></trkpt><trkpt lat="38.00613518408155" lon="13.480920177059039"><ele>299.5</ele><time>2026-04-28T13:24:36Z</time></trkpt><trkpt lat="38.006194727740386" lon="13.481012530948675"><ele>296.0</ele><time>2026-04-28T13:24:37Z</time></trkpt><trkpt lat="38.006256966686564" lon="13.48113634975967"><ele>296.0</ele><time>2026-04-28T13:24:38Z</time></trkpt><trkpt lat="38.00630906078718" lon="13.481255698668175"><ele>296.0</ele><time>2026-04-28T13:24:39Z</time></trkpt><trkpt lat="38.00635964315486" lon="13.481365846991668"><ele>296.0</ele><time>2026-04-28T13:24:40Z</time></trkpt><trkpt lat="38.00641723318282" lon="13.481490039409868"><ele>296.0</ele><time>2026-04-28T13:24:41Z</time></trkpt><trkpt lat="38.00648250334687" lon="13.481593074683245"><ele>296.0</ele><time>2026-04-28T13:24:42Z</time></trkpt><trkpt lat="38.0065480850825" lon="13.481687115793108"><ele>293.75</ele><time>2026-04-28T13:24:43Z</time></trkpt><trkpt lat="38.006617707889305" lon="13.481785233638819"><ele>291.5</ele><time>2026-04-28T13:24:44Z</time></trkpt><trkpt lat="38.00673145359934" lon="13.481894444079499"><ele>289.25</ele><time>2026-04-28T13:24:45Z</time></trkpt><trkpt lat="38.00682079121346" lon="13.481988041770968"><ele>287.0</ele><time>2026-04-28T13:24:46Z</time></trkpt><trkpt lat="38.00691125800598" lon="13.48208263503529"><ele>285.25</ele><time>2026-04-28T13:24:47Z</time></trkpt><trkpt lat="38.00699747857606" lon="13.48218838669758"><ele>283.5</ele><time>2026-04-28T13:24:48Z</time></trkpt><trkpt lat="38.00708356772094" lon="13.482285633880933"><ele>281.75</ele><time>2026-04-28T13:24:49Z</time></trkpt><trkpt lat="38.00716363476069" lon="13.482402120196433"><ele>280.0</ele><time>2026-04-28T13:24:50Z</time></trkpt><trkpt lat="38.00723719958263" lon="13.482522278941156"><ele>280.0</ele><time>2026-04-28T13:24:51Z</time></trkpt><trkpt lat="38.00731090411954" lon="13.482642447483647"><ele>280.0</ele><time>2026-04-28T13:24:52Z</time></trkpt><trkpt lat="38.00738638579655" lon="13.4827507510737"><ele>280.0</ele><time>2026-04-28T13:24:53Z</time></trkpt><trkpt lat="38.007475632492614" lon="13.482849736146928"><ele>280.0</ele><time>2026-04-28T13:24:54Z</time></trkpt><trkpt lat="38.00756095108364" lon="13.482944910718253"><ele>279.4</ele><time>2026-04-28T13:24:55Z</time></trkpt><trkpt lat="38.007645439815455" lon="13.483026013667995"><ele>278.8</ele><time>2026-04-28T13:24:56Z</time></trkpt><trkpt lat="38.00771707818524" lon="13.483119212567692"><ele>278.2</ele><time>2026-04-28T13:24:57Z</time></trkpt><trkpt lat="38.00780005675117" lon="13.483199407366474"><ele>277.6</ele><time>2026-04-28T13:24:58Z</time></trkpt><trkpt lat="38.00787604316999" lon="13.483266630399324"><ele>277.0</ele><time>2026-04-28T13:24:59Z</time></trkpt><trkpt lat="38.00794864206535" lon="13.483336382788277"><ele>277.0</ele><time>2026-04-28T13:25:00Z</time></trkpt><trkpt lat="38.00801581661163" lon="13.483403463055629"><ele>277.0</ele><time>2026-04-28T13:25:01Z</time></trkpt><trkpt lat="38.00807757374032" lon="13.483466485026858"><ele>277.0</ele><time>2026-04-28T13:25:02Z</time></trkpt><trkpt lat="38.00814588326553" lon="13.483531296243555"><ele>277.0</ele><time>2026-04-28T13:25:03Z</time></trkpt><trkpt lat="38.00820232415591" lon="13.483599312437208"><ele>277.0</ele><time>2026-04-28T13:25:04Z</time></trkpt><trkpt lat="38.00825616042406" lon="13.483670728089145"><ele>277.0</ele><time>2026-04-28T13:25:05Z</time></trkpt><trkpt lat="38.00830388615478" lon="13.483724247156273"><ele>276.66666666666663</ele><time>2026-04-28T13:25:06Z</time></trkpt><trkpt lat="38.00834930415189" lon="13.483786212239126"><ele>276.3333333333333</ele><time>2026-04-28T13:25:07Z</time></trkpt><trkpt lat="38.008418936597536" lon="13.483886724950374"><ele>276.0</ele><time>2026-04-28T13:25:09Z</time></trkpt><trkpt lat="38.008476024890996" lon="13.483956155585581"><ele>275.6666666666667</ele><time>2026-04-28T13:25:10Z</time></trkpt><trkpt lat="38.00853724123495" lon="13.484051786880594"><ele>275.33333333333337</ele><time>2026-04-28T13:25:12Z</time></trkpt><trkpt lat="38.00860122039524" lon="13.484129436999485"><ele>275.0</ele><time>2026-04-28T13:25:14Z</time></trkpt><trkpt lat="38.00866956637066" lon="13.484207096337785"><ele>275.0</ele><time>2026-04-28T13:25:17Z</time></trkpt><trkpt lat="38.00872785238452" lon="13.484262111696141"><ele>275.0</ele><time>2026-04-28T13:25:19Z</time></trkpt><trkpt lat="38.008778998703605" lon="13.484314538422657"><ele>275.0</ele><time>2026-04-28T13:25:21Z</time></trkpt><trkpt lat="38.00883917391203" lon="13.484347131534225"><ele>275.0</ele><time>2026-04-28T13:25:23Z</time></trkpt><trkpt lat="38.0088940332519" lon="13.484396305432368"><ele>275.0</ele><time>2026-04-28T13:25:25Z</time></trkpt><trkpt lat="38.00895661574456" lon="13.484438104634991"><ele>275.0</ele><time>2026-04-28T13:25:27Z</time></trkpt><trkpt lat="38.00901468207905" lon="13.48448595047394"><ele>275.0</ele><time>2026-04-28T13:25:29Z</time></trkpt><trkpt lat="38.00908187136193" lon="13.48450536280141"><ele>275.0</ele><time>2026-04-28T13:25:31Z</time></trkpt><trkpt lat="38.009141852436215" lon="13.484549850534517"><ele>275.0</ele><time>2026-04-28T13:25:33Z</time></trkpt><trkpt lat="38.00921051546854" lon="13.484582095641832"><ele>275.0</ele><time>2026-04-28T13:25:35Z</time></trkpt><trkpt lat="38.0092682469744" lon="13.484626890925375"><ele>275.0</ele><time>2026-04-28T13:25:37Z</time></trkpt><trkpt lat="38.00933273246082" lon="13.48469686808509"><ele>275.0</ele><time>2026-04-28T13:25:40Z</time></trkpt><trkpt lat="38.00941032460319" lon="13.484747926279075"><ele>275.0</ele><time>2026-04-28T13:25:43Z</time></trkpt><trkpt lat="38.00948506439111" lon="13.484781715214513"><ele>274.8</ele><time>2026-04-28T13:25:45Z</time></trkpt><trkpt lat="38.0095596009261" lon="13.484819042634724"><ele>274.6</ele><time>2026-04-28T13:25:47Z</time></trkpt><trkpt lat="38.00964410201004" lon="13.484855758149436"><ele>274.4</ele><time>2026-04-28T13:25:49Z</time></trkpt><trkpt lat="38.009732579018504" lon="13.48489961891434"><ele>274.2</ele><time>2026-04-28T13:25:51Z</time></trkpt><trkpt lat="38.009824920654815" lon="13.484947120825614"><ele>274.0</ele><time>2026-04-28T13:25:53Z</time></trkpt><trkpt lat="38.00992276292526" lon="13.485011692374824"><ele>273.4</ele><time>2026-04-28T13:25:55Z</time></trkpt><trkpt lat="38.01003479475288" lon="13.485057704952961"><ele>272.79999999999995</ele><time>2026-04-28T13:25:57Z</time></trkpt><trkpt lat="38.010155245321" lon="13.48511436434771"><ele>272.20000000000005</ele><time>2026-04-28T13:25:59Z</time></trkpt><trkpt lat="38.01022444287125" lon="13.485137857896007"><ele>271.6</ele><time>2026-04-28T13:26:00Z</time></trkpt><trkpt lat="38.01029811666184" lon="13.485161888740455"><ele>271.0</ele><time>2026-04-28T13:26:01Z</time></trkpt><trkpt lat="38.010381567292484" lon="13.485183252335647"><ele>271.0</ele><time>2026-04-28T13:26:02Z</time></trkpt><trkpt lat="38.01046520349193" lon="13.485200870405178"><ele>271.0</ele><time>2026-04-28T13:26:03Z</time></trkpt><trkpt lat="38.010558762513064" lon="13.485206900396376"><ele>271.0</ele><time>2026-04-28T13:26:04Z</time></trkpt><trkpt lat="38.0106371470046" lon="13.485216256823938"><ele>271.0</ele><time>2026-04-28T13:26:05Z</time></trkpt><trkpt lat="38.01073377160214" lon="13.48527761075731"><ele>271.0</ele><time>2026-04-28T13:26:07Z</time></trkpt><trkpt lat="38.01069366553173" lon="13.485419885372789"><ele>268.6</ele><time>2026-04-28T13:26:09Z</time></trkpt><trkpt lat="38.01068202803813" lon="13.48550851056971"><ele>266.20000000000005</ele><time>2026-04-28T13:26:10Z</time></trkpt><trkpt lat="38.0107044246494" lon="13.485716194259695"><ele>263.79999999999995</ele><time>2026-04-28T13:26:12Z</time></trkpt><trkpt lat="38.010758626540834" lon="13.485791549993175"><ele>261.4</ele><time>2026-04-28T13:26:13Z</time></trkpt><trkpt lat="38.0108178713723" lon="13.48584730468168"><ele>259.0</ele><time>2026-04-28T13:26:14Z</time></trkpt><trkpt lat="38.01088209332537" lon="13.485905760456731"><ele>258.2857142857143</ele><time>2026-04-28T13:26:15Z</time></trkpt><trkpt lat="38.01096263291663" lon="13.48589731413219"><ele>257.57142857142856</ele><time>2026-04-28T13:26:16Z</time></trkpt><trkpt lat="38.01103119567937" lon="13.48589305643351"><ele>256.8571428571429</ele><time>2026-04-28T13:26:17Z</time></trkpt><trkpt lat="38.01110672350383" lon="13.485883959949701"><ele>256.1428571428571</ele><time>2026-04-28T13:26:18Z</time></trkpt><trkpt lat="38.01117553977799" lon="13.485868756763804"><ele>255.42857142857142</ele><time>2026-04-28T13:26:19Z</time></trkpt><trkpt lat="38.01123242757446" lon="13.485818135247655"><ele>254.71428571428572</ele><time>2026-04-28T13:26:20Z</time></trkpt><trkpt lat="38.011288672199605" lon="13.485781603174903"><ele>254.0</ele><time>2026-04-28T13:26:21Z</time></trkpt><trkpt lat="38.01135071076863" lon="13.485749760894878"><ele>254.0</ele><time>2026-04-28T13:26:22Z</time></trkpt><trkpt lat="38.0114691628787" lon="13.485710848089656"><ele>253.99999999999997</ele><time>2026-04-28T13:26:24Z</time></trkpt><trkpt lat="38.01153711980503" lon="13.485708944612727"><ele>253.99999999999997</ele><time>2026-04-28T13:26:25Z</time></trkpt><trkpt lat="38.011648909736174" lon="13.485732540392439"><ele>254.0</ele><time>2026-04-28T13:26:27Z</time></trkpt><trkpt lat="38.011757916757865" lon="13.485843177590095"><ele>254.0</ele><time>2026-04-28T13:26:29Z</time></trkpt><trkpt lat="38.01176962193708" lon="13.485982255515243"><ele>251.6</ele><time>2026-04-28T13:26:30Z</time></trkpt><trkpt lat="38.01184510360094" lon="13.486091400253024"><ele>249.2</ele><time>2026-04-28T13:26:31Z</time></trkpt><trkpt lat="38.01193634915367" lon="13.486144751396687"><ele>246.79999999999998</ele><time>2026-04-28T13:26:32Z</time></trkpt><trkpt lat="38.012039337774766" lon="13.486217275611626"><ele>244.39999999999998</ele><time>2026-04-28T13:26:33Z</time></trkpt><trkpt lat="38.01212949980144" lon="13.486271429644148"><ele>242.0</ele><time>2026-04-28T13:26:34Z</time></trkpt><trkpt lat="38.012210127810384" lon="13.4863378387879"><ele>240.50000000000003</ele><time>2026-04-28T13:26:35Z</time></trkpt><trkpt lat="38.01227609362014" lon="13.486400675509163"><ele>239.0</ele><time>2026-04-28T13:26:36Z</time></trkpt><trkpt lat="38.012357719951545" lon="13.486443142324497"><ele>237.5</ele><time>2026-04-28T13:26:37Z</time></trkpt><trkpt lat="38.012437077026426" lon="13.486491641743896"><ele>236.0</ele><time>2026-04-28T13:26:38Z</time></trkpt><trkpt lat="38.01251152561837" lon="13.486536038481134"><ele>234.50000000000003</ele><time>2026-04-28T13:26:39Z</time></trkpt><trkpt lat="38.01258619354666" lon="13.486570805393924"><ele>233.0</ele><time>2026-04-28T13:26:40Z</time></trkpt><trkpt lat="38.01266143177125" lon="13.48660324500407"><ele>232.66666666666669</ele><time>2026-04-28T13:26:41Z</time></trkpt><trkpt lat="38.01272898277911" lon="13.486637321737364"><ele>232.33333333333334</ele><time>2026-04-28T13:26:42Z</time></trkpt><trkpt lat="38.01278959100113" lon="13.486681204089844"><ele>232.0</ele><time>2026-04-28T13:26:43Z</time></trkpt><trkpt lat="38.0128483129182" lon="13.486717282722497"><ele>231.66666666666669</ele><time>2026-04-28T13:26:44Z</time></trkpt><trkpt lat="38.01290426336294" lon="13.486772711762475"><ele>231.33333333333334</ele><time>2026-04-28T13:26:45Z</time></trkpt><trkpt lat="38.01298284303057" lon="13.486850198193103"><ele>231.0</ele><time>2026-04-28T13:26:47Z</time></trkpt><trkpt lat="38.01305258184764" lon="13.486878557450044"><ele>231.0</ele><time>2026-04-28T13:26:49Z</time></trkpt><trkpt lat="38.01311026871992" lon="13.486922815093044"><ele>231.0</ele><time>2026-04-28T13:26:51Z</time></trkpt><trkpt lat="38.01317052828157" lon="13.48700808449827"><ele>231.0</ele><time>2026-04-28T13:26:55Z</time></trkpt><trkpt lat="38.01324398237402" lon="13.487042604146538"><ele>231.0</ele><time>2026-04-28T13:26:58Z</time></trkpt><trkpt lat="38.01330119538389" lon="13.487113864577047"><ele>231.0</ele><time>2026-04-28T13:27:01Z</time></trkpt><trkpt lat="38.0133592183186" lon="13.48716371105475"><ele>231.0</ele><time>2026-04-28T13:27:04Z</time></trkpt><trkpt lat="38.01341595953076" lon="13.487227655245714"><ele>232.16666666666666</ele><time>2026-04-28T13:27:07Z</time></trkpt><trkpt lat="38.01347615826868" lon="13.487318080947844"><ele>233.33333333333331</ele><time>2026-04-28T13:27:11Z</time></trkpt><trkpt lat="38.01353994405556" lon="13.487396087418185"><ele>234.5</ele><time>2026-04-28T13:27:15Z</time></trkpt><trkpt lat="38.013565664030686" lon="13.487478764095224"><ele>235.66666666666666</ele><time>2026-04-28T13:27:20Z</time></trkpt><trkpt lat="38.01363520351992" lon="13.48749488011539"><ele>236.83333333333331</ele><time>2026-04-28T13:27:23Z</time></trkpt><trkpt lat="38.01370771461536" lon="13.487518720479935"><ele>238.0</ele><time>2026-04-28T13:27:27Z</time></trkpt><trkpt lat="38.0137743728585" lon="13.487504146831512"><ele>238.0</ele><time>2026-04-28T13:27:30Z</time></trkpt><trkpt lat="38.01383699683614" lon="13.487514085629282"><ele>238.0</ele><time>2026-04-28T13:27:33Z</time></trkpt><trkpt lat="38.013902813820835" lon="13.48748835035824"><ele>238.0</ele><time>2026-04-28T13:27:37Z</time></trkpt><trkpt lat="38.013969918967724" lon="13.487483025069949"><ele>238.0</ele><time>2026-04-28T13:27:41Z</time></trkpt><trkpt lat="38.01403290030246" lon="13.48749591490746"><ele>238.0</ele><time>2026-04-28T13:27:45Z</time></trkpt><trkpt lat="38.01410211732969" lon="13.487544280220868"><ele>238.0</ele><time>2026-04-28T13:27:50Z</time></trkpt><trkpt lat="38.01417251542291" lon="13.487579197414076"><ele>238.0</ele><time>2026-04-28T13:27:55Z</time></trkpt><trkpt lat="38.01423342091306" lon="13.487600363150785"><ele>238.85714285714286</ele><time>2026-04-28T13:27:59Z</time></trkpt><trkpt lat="38.01429719611804" lon="13.487605464133434"><ele>239.71428571428572</ele><time>2026-04-28T13:28:02Z</time></trkpt><trkpt lat="38.01434676763728" lon="13.48765518155618"><ele>240.57142857142856</ele><time>2026-04-28T13:28:07Z</time></trkpt><trkpt lat="38.014409415087215" lon="13.48767540661764"><ele>241.42857142857142</ele><time>2026-04-28T13:28:11Z</time></trkpt><trkpt lat="38.01447325260728" lon="13.487672372185001"><ele>242.28571428571428</ele><time>2026-04-28T13:28:16Z</time></trkpt><trkpt lat="38.01453401132432" lon="13.48769342895054"><ele>243.1428571428571</ele><time>2026-04-28T13:28:20Z</time></trkpt><trkpt lat="38.01461428535698" lon="13.487693769284036"><ele>243.99999999999997</ele><time>2026-04-28T13:28:25Z</time></trkpt><trkpt lat="38.0146800272222" lon="13.48769346836223"><ele>243.99999999999997</ele><time>2026-04-28T13:28:30.001Z</time></trkpt><trkpt lat="38.01474495195243" lon="13.48769761664635"><ele>244.0</ele><time>2026-04-28T13:28:35.001Z</time></trkpt><trkpt lat="38.014806407587876" lon="13.487722186597088"><ele>243.99999999999997</ele><time>2026-04-28T13:28:43Z</time></trkpt><trkpt lat="38.01487777176534" lon="13.48774365549637"><ele>243.99999999999997</ele><time>2026-04-28T13:28:49Z</time></trkpt><trkpt lat="38.014944662176276" lon="13.48775365191065"><ele>244.0</ele><time>2026-04-28T13:28:54Z</time></trkpt><trkpt lat="38.015016046887794" lon="13.48778135826964"><ele>243.99999999999997</ele><time>2026-04-28T13:29:00Z</time></trkpt><trkpt lat="38.01509067253458" lon="13.487774465852292"><ele>243.99999999999997</ele><time>2026-04-28T13:29:06Z</time></trkpt><trkpt lat="38.01516496943559" lon="13.487772450510995"><ele>245.57142857142856</ele><time>2026-04-28T13:29:11Z</time></trkpt><trkpt lat="38.01523741845475" lon="13.487778928423236"><ele>247.14285714285714</ele><time>2026-04-28T13:29:17Z</time></trkpt><trkpt lat="38.015306987136825" lon="13.487796253435944"><ele>248.71428571428572</ele><time>2026-04-28T13:29:23Z</time></trkpt><trkpt lat="38.01537437771315" lon="13.487792666251547"><ele>250.28571428571428</ele><time>2026-04-28T13:29:27Z</time></trkpt><trkpt lat="38.015446974776616" lon="13.487797340303928"><ele>251.8571428571429</ele><time>2026-04-28T13:29:32Z</time></trkpt><trkpt lat="38.015513666510884" lon="13.487823118544457"><ele>253.42857142857144</ele><time>2026-04-28T13:29:37Z</time></trkpt><trkpt lat="38.01557889533147" lon="13.487837937934982"><ele>255.0</ele><time>2026-04-28T13:29:42Z</time></trkpt><trkpt lat="38.01564161845612" lon="13.487817990567294"><ele>255.0</ele><time>2026-04-28T13:29:46Z</time></trkpt><trkpt lat="38.01571087330509" lon="13.487816298020286"><ele>255.00000000000003</ele><time>2026-04-28T13:29:51Z</time></trkpt><trkpt lat="38.015787628835696" lon="13.487805430591493"><ele>255.0</ele><time>2026-04-28T13:29:56Z</time></trkpt><trkpt lat="38.015849669889185" lon="13.487789385371146"><ele>255.0</ele><time>2026-04-28T13:30:00Z</time></trkpt><trkpt lat="38.01592161642059" lon="13.487778730724111"><ele>255.00000000000003</ele><time>2026-04-28T13:30:05Z</time></trkpt><trkpt lat="38.015994655583306" lon="13.487776908156993"><ele>255.0</ele><time>2026-04-28T13:30:10Z</time></trkpt><trkpt lat="38.01606691659661" lon="13.487769567119892"><ele>255.0</ele><time>2026-04-28T13:30:15.001Z</time></trkpt><trkpt lat="38.01613743765243" lon="13.487767999130746"><ele>255.85714285714286</ele><time>2026-04-28T13:30:20.001Z</time></trkpt><trkpt lat="38.01620184197751" lon="13.487752560770042"><ele>256.7142857142857</ele><time>2026-04-28T13:30:25.001Z</time></trkpt><trkpt lat="38.016273889088446" lon="13.48776702433659"><ele>257.57142857142856</ele><time>2026-04-28T13:30:30.001Z</time></trkpt><trkpt lat="38.016342394542086" lon="13.487765324197186"><ele>258.42857142857144</ele><time>2026-04-28T13:30:35.001Z</time></trkpt><trkpt lat="38.016428080680306" lon="13.48777074584823"><ele>259.2857142857143</ele><time>2026-04-28T13:30:40.001Z</time></trkpt><trkpt lat="38.016501409488974" lon="13.487766576502318"><ele>260.14285714285717</ele><time>2026-04-28T13:30:46Z</time></trkpt><trkpt lat="38.01656534646129" lon="13.48778176501334"><ele>261.0</ele><time>2026-04-28T13:30:52Z</time></trkpt><trkpt lat="38.016634517009834" lon="13.487816607001994"><ele>261.0</ele><time>2026-04-28T13:30:57Z</time></trkpt><trkpt lat="38.016703699123156" lon="13.48780976923704"><ele>261.0</ele><time>2026-04-28T13:31:00Z</time></trkpt><trkpt lat="38.016768227642125" lon="13.487817135060636"><ele>261.0</ele><time>2026-04-28T13:31:04Z</time></trkpt><trkpt lat="38.0168293222413" lon="13.487840495978059"><ele>261.0</ele><time>2026-04-28T13:31:08Z</time></trkpt><trkpt lat="38.0169075958561" lon="13.487862069966212"><ele>261.0</ele><time>2026-04-28T13:31:13Z</time></trkpt><trkpt lat="38.01697269449129" lon="13.487879022387583"><ele>261.0</ele><time>2026-04-28T13:31:17Z</time></trkpt><trkpt lat="38.01704576630275" lon="13.487888490933937"><ele>261.0</ele><time>2026-04-28T13:31:22Z</time></trkpt><trkpt lat="38.01710940572965" lon="13.48790856050003"><ele>262.0</ele><time>2026-04-28T13:31:26Z</time></trkpt><trkpt lat="38.01718594720927" lon="13.48793746522302"><ele>263.0</ele><time>2026-04-28T13:31:30Z</time></trkpt><trkpt lat="38.01723460367791" lon="13.488006929253423"><ele>264.0</ele><time>2026-04-28T13:31:35Z</time></trkpt><trkpt lat="38.01730140240457" lon="13.488012592994425"><ele>265.0</ele><time>2026-04-28T13:31:38Z</time></trkpt><trkpt lat="38.017349692132385" lon="13.488076527556158"><ele>266.0</ele><time>2026-04-28T13:31:43Z</time></trkpt><trkpt lat="38.01738183046073" lon="13.488150799491601"><ele>267.0</ele><time>2026-04-28T13:31:47Z</time></trkpt><trkpt lat="38.0174250926841" lon="13.488235234368464"><ele>268.0</ele><time>2026-04-28T13:31:52Z</time></trkpt><trkpt lat="38.01749666344122" lon="13.488300483472678"><ele>269.14285714285717</ele><time>2026-04-28T13:31:56Z</time></trkpt><trkpt lat="38.01753761079565" lon="13.488373703017528"><ele>270.2857142857143</ele><time>2026-04-28T13:32:02Z</time></trkpt><trkpt lat="38.01758786341765" lon="13.488422272814491"><ele>271.42857142857144</ele><time>2026-04-28T13:32:06Z</time></trkpt><trkpt lat="38.01764924654152" lon="13.4884447087311"><ele>272.57142857142856</ele><time>2026-04-28T13:32:10Z</time></trkpt><trkpt lat="38.01770767661976" lon="13.48847753807226"><ele>273.7142857142857</ele><time>2026-04-28T13:32:13Z</time></trkpt><trkpt lat="38.01777446634846" lon="13.48848693369733"><ele>274.8571428571429</ele><time>2026-04-28T13:32:16Z</time></trkpt><trkpt lat="38.01783853617197" lon="13.488483784764462"><ele>276.0</ele><time>2026-04-28T13:32:19Z</time></trkpt><trkpt lat="38.01790245942643" lon="13.488484566731875"><ele>276.0</ele><time>2026-04-28T13:32:22Z</time></trkpt><trkpt lat="38.017973527738306" lon="13.488493421983792"><ele>276.0</ele><time>2026-04-28T13:32:26Z</time></trkpt><trkpt lat="38.01804113190314" lon="13.48850515477562"><ele>276.0</ele><time>2026-04-28T13:32:30Z</time></trkpt><trkpt lat="38.018107586171624" lon="13.488534481269593"><ele>276.0</ele><time>2026-04-28T13:32:34Z</time></trkpt><trkpt lat="38.018170912528255" lon="13.48852417829711"><ele>276.0</ele><time>2026-04-28T13:32:37Z</time></trkpt><trkpt lat="38.01825122434996" lon="13.488531059469778"><ele>276.0</ele><time>2026-04-28T13:32:41Z</time></trkpt><trkpt lat="38.01831982888339" lon="13.488531955174471"><ele>276.0</ele><time>2026-04-28T13:32:44Z</time></trkpt><trkpt lat="38.018400181764086" lon="13.488577683674995"><ele>276.3333333333333</ele><time>2026-04-28T13:32:48.001Z</time></trkpt><trkpt lat="38.01847520961062" lon="13.48861399263662"><ele>276.6666666666667</ele><time>2026-04-28T13:32:52Z</time></trkpt><trkpt lat="38.018526937014606" lon="13.488677653088777"><ele>277.0</ele><time>2026-04-28T13:32:56Z</time></trkpt><trkpt lat="38.01856845270747" lon="13.488740006256121"><ele>277.33333333333337</ele><time>2026-04-28T13:33:00Z</time></trkpt><trkpt lat="38.01863016049631" lon="13.488793191001253"><ele>277.6666666666667</ele><time>2026-04-28T13:33:03Z</time></trkpt><trkpt lat="38.018696349365555" lon="13.488869486194806"><ele>278.0</ele><time>2026-04-28T13:33:08Z</time></trkpt><trkpt lat="38.01876009820768" lon="13.48891761744136"><ele>280.0</ele><time>2026-04-28T13:33:11Z</time></trkpt><trkpt lat="38.01880901399237" lon="13.48897482539572"><ele>282.0</ele><time>2026-04-28T13:33:14Z</time></trkpt><trkpt lat="38.018866244681604" lon="13.489036453926273"><ele>284.0</ele><time>2026-04-28T13:33:17Z</time></trkpt><trkpt lat="38.01890391430778" lon="13.489122197396005"><ele>286.0</ele><time>2026-04-28T13:33:21Z</time></trkpt><trkpt lat="38.01894806390345" lon="13.489185678511618"><ele>288.0</ele><time>2026-04-28T13:33:25Z</time></trkpt><trkpt lat="38.01900893089771" lon="13.489241851978845"><ele>290.0</ele><time>2026-04-28T13:33:29Z</time></trkpt><trkpt lat="38.01908165041762" lon="13.489307051105945"><ele>290.0</ele><time>2026-04-28T13:33:33Z</time></trkpt><trkpt lat="38.01913588411116" lon="13.489355994057508"><ele>290.0</ele><time>2026-04-28T13:33:36Z</time></trkpt><trkpt lat="38.0191852419296" lon="13.489433649043194"><ele>290.0</ele><time>2026-04-28T13:33:39Z</time></trkpt><trkpt lat="38.0192495917046" lon="13.48951200860373"><ele>290.0</ele><time>2026-04-28T13:33:42Z</time></trkpt><trkpt lat="38.019299055651345" lon="13.489565513852705"><ele>290.0</ele><time>2026-04-28T13:33:45Z</time></trkpt><trkpt lat="38.019368462948144" lon="13.48961281524754"><ele>290.0</ele><time>2026-04-28T13:33:48Z</time></trkpt><trkpt lat="38.019446439751" lon="13.489651910723342"><ele>289.5</ele><time>2026-04-28T13:33:51Z</time></trkpt><trkpt lat="38.01953208842976" lon="13.48966658494498"><ele>289.0</ele><time>2026-04-28T13:33:54Z</time></trkpt><trkpt lat="38.01960379447053" lon="13.489671246245571"><ele>288.5</ele><time>2026-04-28T13:33:57Z</time></trkpt><trkpt lat="38.01967671336354" lon="13.48965543586344"><ele>288.0</ele><time>2026-04-28T13:34:00Z</time></trkpt><trkpt lat="38.0197496431396" lon="13.48961813569319"><ele>287.5</ele><time>2026-04-28T13:34:03Z</time></trkpt><trkpt lat="38.01982545067113" lon="13.48959086455639"><ele>287.0</ele><time>2026-04-28T13:34:06Z</time></trkpt><trkpt lat="38.0199103643293" lon="13.489578569431329"><ele>287.6666666666667</ele><time>2026-04-28T13:34:10Z</time></trkpt><trkpt lat="38.01998402840112" lon="13.489556116223707"><ele>288.33333333333337</ele><time>2026-04-28T13:34:13Z</time></trkpt><trkpt lat="38.020058898110804" lon="13.48954926662427"><ele>289.0</ele><time>2026-04-28T13:34:16Z</time></trkpt><trkpt lat="38.02015225775131" lon="13.489541983402898"><ele>289.6666666666667</ele><time>2026-04-28T13:34:20Z</time></trkpt><trkpt lat="38.020249951557844" lon="13.489521732381187"><ele>290.3333333333333</ele><time>2026-04-28T13:34:23Z</time></trkpt><trkpt lat="38.020318953269964" lon="13.489520790664228"><ele>291.0</ele><time>2026-04-28T13:34:26.001Z</time></trkpt><trkpt lat="38.02039705393667" lon="13.489501802480786"><ele>291.0</ele><time>2026-04-28T13:34:29.001Z</time></trkpt><trkpt lat="38.02047224664377" lon="13.489505337792249"><ele>291.0</ele><time>2026-04-28T13:34:32.001Z</time></trkpt><trkpt lat="38.02054898071702" lon="13.489490678217422"><ele>291.0</ele><time>2026-04-28T13:34:35.001Z</time></trkpt><trkpt lat="38.02061616657082" lon="13.489499285232117"><ele>291.0</ele><time>2026-04-28T13:34:38.001Z</time></trkpt><trkpt lat="38.02068546285439" lon="13.489494103766669"><ele>291.0</ele><time>2026-04-28T13:34:40.001Z</time></trkpt><trkpt lat="38.02076315034264" lon="13.489505041989574"><ele>291.0</ele><time>2026-04-28T13:34:43.001Z</time></trkpt><trkpt lat="38.02084922136485" lon="13.489492916335847"><ele>292.3333333333333</ele><time>2026-04-28T13:34:46.001Z</time></trkpt><trkpt lat="38.020924181259595" lon="13.48946886676496"><ele>293.6666666666667</ele><time>2026-04-28T13:34:48.001Z</time></trkpt><trkpt lat="38.02101655639646" lon="13.489486234921056"><ele>295.0</ele><time>2026-04-28T13:34:51.001Z</time></trkpt><trkpt lat="38.02108236085749" lon="13.489471130261503"><ele>296.33333333333337</ele><time>2026-04-28T13:34:53.001Z</time></trkpt><trkpt lat="38.02115516292838" lon="13.489437376024979"><ele>297.6666666666667</ele><time>2026-04-28T13:34:55.001Z</time></trkpt><trkpt lat="38.02122930473041" lon="13.489462471876582"><ele>299.0</ele><time>2026-04-28T13:34:58.001Z</time></trkpt><trkpt lat="38.02129437621069" lon="13.489449123120393"><ele>299.0</ele><time>2026-04-28T13:35:02.001Z</time></trkpt><trkpt lat="38.02137125473077" lon="13.48945191837879"><ele>299.0</ele><time>2026-04-28T13:35:06Z</time></trkpt><trkpt lat="38.02145821805516" lon="13.489446077253946"><ele>299.0</ele><time>2026-04-28T13:35:09Z</time></trkpt><trkpt lat="38.02154118238452" lon="13.489427842700616"><ele>299.0</ele><time>2026-04-28T13:35:12Z</time></trkpt><trkpt lat="38.02161443895573" lon="13.489440339375212"><ele>299.0</ele><time>2026-04-28T13:35:14Z</time></trkpt><trkpt lat="38.02169610386121" lon="13.489408635860391"><ele>299.0</ele><time>2026-04-28T13:35:16Z</time></trkpt><trkpt lat="38.021783979089044" lon="13.489366739921362"><ele>298.2</ele><time>2026-04-28T13:35:18Z</time></trkpt><trkpt lat="38.021874690550185" lon="13.489322021121616"><ele>297.4</ele><time>2026-04-28T13:35:20Z</time></trkpt><trkpt lat="38.02197599687985" lon="13.489257862419487"><ele>296.6</ele><time>2026-04-28T13:35:22Z</time></trkpt><trkpt lat="38.02205358477562" lon="13.489156130074726"><ele>295.8</ele><time>2026-04-28T13:35:24Z</time></trkpt><trkpt lat="38.02210251272098" lon="13.48902421244277"><ele>295.0</ele><time>2026-04-28T13:35:26Z</time></trkpt><trkpt lat="38.022134054607704" lon="13.488943200475305"><ele>295.0</ele><time>2026-04-28T13:35:27Z</time></trkpt><trkpt lat="38.02217974386956" lon="13.488798550706575"><ele>295.0</ele><time>2026-04-28T13:35:29Z</time></trkpt><trkpt lat="38.02222280671339" lon="13.488641702913226"><ele>295.0</ele><time>2026-04-28T13:35:31Z</time></trkpt><trkpt lat="38.02225514859678" lon="13.48856480140498"><ele>295.0</ele><time>2026-04-28T13:35:32Z</time></trkpt><trkpt lat="38.022301980245096" lon="13.488493772532847"><ele>295.0</ele><time>2026-04-28T13:35:33Z</time></trkpt><trkpt lat="38.02224910292389" lon="13.488577605415912"><ele>295.0</ele><time>2026-04-28T13:35:39Z</time></trkpt><trkpt lat="38.02221876400326" lon="13.488655218715245"><ele>295.0</ele><time>2026-04-28T13:35:42Z</time></trkpt><trkpt lat="38.02218434280497" lon="13.488725176645588"><ele>295.0</ele><time>2026-04-28T13:35:45Z</time></trkpt><trkpt lat="38.02214822858676" lon="13.488800662291561"><ele>295.0</ele><time>2026-04-28T13:35:47Z</time></trkpt><trkpt lat="38.02211813513058" lon="13.488912731280008"><ele>295.0</ele><time>2026-04-28T13:35:50Z</time></trkpt><trkpt lat="38.022096716884796" lon="13.489012787564166"><ele>295.0</ele><time>2026-04-28T13:35:53Z</time></trkpt><trkpt lat="38.022028368603685" lon="13.489112446391548"><ele>295.0</ele><time>2026-04-28T13:35:56Z</time></trkpt><trkpt lat="38.021990559739635" lon="13.489185929466206"><ele>295.0</ele><time>2026-04-28T13:35:59Z</time></trkpt><trkpt lat="38.021926441727885" lon="13.489251583484405"><ele>295.0</ele><time>2026-04-28T13:36:02Z</time></trkpt><trkpt lat="38.021846342748844" lon="13.489305495985928"><ele>295.0</ele><time>2026-04-28T13:36:05Z</time></trkpt><trkpt lat="38.02178622035557" lon="13.489347364311941"><ele>295.0</ele><time>2026-04-28T13:36:08Z</time></trkpt><trkpt lat="38.02171563526076" lon="13.489395673763074"><ele>295.0</ele><time>2026-04-28T13:36:11Z</time></trkpt><trkpt lat="38.02164370994111" lon="13.489418186390163"><ele>295.5714285714286</ele><time>2026-04-28T13:36:14Z</time></trkpt><trkpt lat="38.02155822097367" lon="13.489426053359786"><ele>296.14285714285717</ele><time>2026-04-28T13:36:17Z</time></trkpt><trkpt lat="38.021479319278846" lon="13.489442838696942"><ele>296.7142857142857</ele><time>2026-04-28T13:36:20Z</time></trkpt><trkpt lat="38.021415007266704" lon="13.489431435009921"><ele>297.28571428571433</ele><time>2026-04-28T13:36:23Z</time></trkpt><trkpt lat="38.02134067158716" lon="13.489442406199645"><ele>297.8571428571429</ele><time>2026-04-28T13:36:26Z</time></trkpt><trkpt lat="38.021277049121935" lon="13.489467961154608"><ele>298.42857142857144</ele><time>2026-04-28T13:36:29Z</time></trkpt><trkpt lat="38.02121404895502" lon="13.489457994259611"><ele>299.0</ele><time>2026-04-28T13:36:32Z</time></trkpt><trkpt lat="38.021133326444186" lon="13.489468302392755"><ele>299.0</ele><time>2026-04-28T13:36:33Z</time></trkpt><trkpt lat="38.021085021322946" lon="13.489538788099367"><ele>299.0</ele><time>2026-04-28T13:36:37Z</time></trkpt><trkpt lat="38.021105281296165" lon="13.489653518630327"><ele>299.0</ele><time>2026-04-28T13:36:41Z</time></trkpt><trkpt lat="38.02113272566316" lon="13.489738213349137"><ele>299.0</ele><time>2026-04-28T13:36:46Z</time></trkpt><trkpt lat="38.02111301297068" lon="13.489817620488937"><ele>299.0</ele><time>2026-04-28T13:36:48Z</time></trkpt><trkpt lat="38.02112678750848" lon="13.489920576762902"><ele>299.0</ele><time>2026-04-28T13:36:53Z</time></trkpt><trkpt lat="38.02109146339712" lon="13.4899978653026"><ele>300.0</ele><time>2026-04-28T13:36:58Z</time></trkpt><trkpt lat="38.021098099934505" lon="13.490094822555912"><ele>301.0</ele><time>2026-04-28T13:37:02Z</time></trkpt><trkpt lat="38.02107859308215" lon="13.490176802926992"><ele>302.0</ele><time>2026-04-28T13:37:06Z</time></trkpt><trkpt lat="38.02108050405083" lon="13.490266406916216"><ele>303.0</ele><time>2026-04-28T13:37:09Z</time></trkpt><trkpt lat="38.021092046056964" lon="13.490378025782626"><ele>304.0</ele><time>2026-04-28T13:37:13Z</time></trkpt><trkpt lat="38.02105905178941" lon="13.490457887227675"><ele>305.0</ele><time>2026-04-28T13:37:18Z</time></trkpt><trkpt lat="38.021036609306414" lon="13.490548830477946"><ele>306.1666666666667</ele><time>2026-04-28T13:37:23Z</time></trkpt><trkpt lat="38.020995659455046" lon="13.490637640213352"><ele>307.33333333333337</ele><time>2026-04-28T13:37:27Z</time></trkpt><trkpt lat="38.020987202717684" lon="13.490731157161237"><ele>308.5</ele><time>2026-04-28T13:37:32Z</time></trkpt><trkpt lat="38.02098947795261" lon="13.49081490642437"><ele>309.6666666666667</ele><time>2026-04-28T13:37:35Z</time></trkpt><trkpt lat="38.020987013096274" lon="13.490913471035348"><ele>310.8333333333333</ele><time>2026-04-28T13:37:39Z</time></trkpt><trkpt lat="38.020998854450774" lon="13.490997937404632"><ele>312.0</ele><time>2026-04-28T13:37:42Z</time></trkpt><trkpt lat="38.020960500997155" lon="13.491120920935119"><ele>312.0</ele><time>2026-04-28T13:37:47Z</time></trkpt><trkpt lat="38.02099825320222" lon="13.491211452019092"><ele>312.0</ele><time>2026-04-28T13:37:51Z</time></trkpt><trkpt lat="38.02101474036307" lon="13.491292227978322"><ele>312.0</ele><time>2026-04-28T13:37:54Z</time></trkpt><trkpt lat="38.02106490219125" lon="13.491368957681761"><ele>312.0</ele><time>2026-04-28T13:37:58Z</time></trkpt><trkpt lat="38.02110942021179" lon="13.491449800638737"><ele>312.0</ele><time>2026-04-28T13:38:02Z</time></trkpt><trkpt lat="38.02115160424925" lon="13.491515820479599"><ele>312.0</ele><time>2026-04-28T13:38:07Z</time></trkpt><trkpt lat="38.02114750833155" lon="13.491425209811329"><ele>312.0</ele><time>2026-04-28T13:38:49Z</time></trkpt><trkpt lat="38.021084688414525" lon="13.491336979304902"><ele>312.0</ele><time>2026-04-28T13:38:52Z</time></trkpt><trkpt lat="38.0210563576269" lon="13.491254557142272"><ele>312.0</ele><time>2026-04-28T13:38:54Z</time></trkpt><trkpt lat="38.02101829214996" lon="13.491160440079344"><ele>312.0</ele><time>2026-04-28T13:38:56Z</time></trkpt><trkpt lat="38.021012373959294" lon="13.491044697289542"><ele>312.0</ele><time>2026-04-28T13:38:58Z</time></trkpt><trkpt lat="38.02102227747752" lon="13.490913432013864"><ele>312.0</ele><time>2026-04-28T13:39:00Z</time></trkpt><trkpt lat="38.02101923765995" lon="13.490781511848414"><ele>312.0</ele><time>2026-04-28T13:39:02Z</time></trkpt><trkpt lat="38.02104061166708" lon="13.490634653352183"><ele>312.0</ele><time>2026-04-28T13:39:04Z</time></trkpt><trkpt lat="38.021090417440156" lon="13.490467271340018"><ele>312.0</ele><time>2026-04-28T13:39:06Z</time></trkpt><trkpt lat="38.021102607474575" lon="13.490375283849094"><ele>312.0</ele><time>2026-04-28T13:39:07Z</time></trkpt><trkpt lat="38.02110597919597" lon="13.490235313018733"><ele>312.0</ele><time>2026-04-28T13:39:09Z</time></trkpt><trkpt lat="38.02111428024912" lon="13.49014318485662"><ele>310.8333333333333</ele><time>2026-04-28T13:39:10Z</time></trkpt><trkpt lat="38.02112426641727" lon="13.490037459057593"><ele>309.6666666666667</ele><time>2026-04-28T13:39:11Z</time></trkpt><trkpt lat="38.021134312105666" lon="13.489932348364457"><ele>308.5</ele><time>2026-04-28T13:39:12Z</time></trkpt><trkpt lat="38.0211388219426" lon="13.489828755081042"><ele>307.33333333333337</ele><time>2026-04-28T13:39:13Z</time></trkpt><trkpt lat="38.021138086164335" lon="13.489720090883624"><ele>306.1666666666667</ele><time>2026-04-28T13:39:14Z</time></trkpt><trkpt lat="38.021162676255656" lon="13.489623277261593"><ele>305.0</ele><time>2026-04-28T13:39:15Z</time></trkpt><trkpt lat="38.02116224461352" lon="13.489516066905379"><ele>304.0</ele><time>2026-04-28T13:39:17Z</time></trkpt><trkpt lat="38.02125700764678" lon="13.489464826455729"><ele>303.0</ele><time>2026-04-28T13:39:20Z</time></trkpt><trkpt lat="38.02132375963279" lon="13.489443223028209"><ele>302.0</ele><time>2026-04-28T13:39:22Z</time></trkpt><trkpt lat="38.021393694697686" lon="13.489461110748342"><ele>301.0</ele><time>2026-04-28T13:39:24Z</time></trkpt><trkpt lat="38.021462683950666" lon="13.489465925288052"><ele>300.0</ele><time>2026-04-28T13:39:27Z</time></trkpt><trkpt lat="38.02153006161179" lon="13.489475533021029"><ele>299.0</ele><time>2026-04-28T13:39:34Z</time></trkpt><trkpt lat="38.021594822264376" lon="13.489427681405795"><ele>299.0</ele><time>2026-04-28T13:40:36Z</time></trkpt><trkpt lat="38.02166017848812" lon="13.48944776330916"><ele>299.0</ele><time>2026-04-28T13:40:41Z</time></trkpt><trkpt lat="38.02157251508619" lon="13.489417686082103"><ele>299.0</ele><time>2026-04-28T13:40:50Z</time></trkpt><trkpt lat="38.021504245402056" lon="13.489418652790985"><ele>299.0</ele><time>2026-04-28T13:40:57Z</time></trkpt><trkpt lat="38.02149372776564" lon="13.489514440118025"><ele>299.0</ele><time>2026-04-28T13:41:03Z</time></trkpt><trkpt lat="38.02155107077215" lon="13.4895632737116"><ele>299.0</ele><time>2026-04-28T13:41:08Z</time></trkpt><trkpt lat="38.02163889469228" lon="13.489573442957605"><ele>298.2</ele><time>2026-04-28T13:41:10Z</time></trkpt><trkpt lat="38.02176738686213" lon="13.489586079132813"><ele>297.4</ele><time>2026-04-28T13:41:12Z</time></trkpt><trkpt lat="38.02188707210787" lon="13.48955564364608"><ele>296.6</ele><time>2026-04-28T13:41:14Z</time></trkpt><trkpt lat="38.02195834612019" lon="13.489606191404754"><ele>295.8</ele><time>2026-04-28T13:41:15Z</time></trkpt><trkpt lat="38.02203010301885" lon="13.489613561812858"><ele>295.0</ele><time>2026-04-28T13:41:16Z</time></trkpt><trkpt lat="38.022101803502785" lon="13.489616079608446"><ele>294.66666666666663</ele><time>2026-04-28T13:41:17Z</time></trkpt><trkpt lat="38.02218746896394" lon="13.489642886353922"><ele>294.3333333333333</ele><time>2026-04-28T13:41:18Z</time></trkpt><trkpt lat="38.02227589901632" lon="13.489660752559498"><ele>294.0</ele><time>2026-04-28T13:41:19Z</time></trkpt><trkpt lat="38.022369846888466" lon="13.489652020447188"><ele>293.6666666666667</ele><time>2026-04-28T13:41:20Z</time></trkpt><trkpt lat="38.022456099811144" lon="13.489638637361297"><ele>293.33333333333337</ele><time>2026-04-28T13:41:21Z</time></trkpt><trkpt lat="38.0225257557369" lon="13.489632238801375"><ele>293.0</ele><time>2026-04-28T13:41:22Z</time></trkpt><trkpt lat="38.02259931415371" lon="13.489626654520544"><ele>290.0</ele><time>2026-04-28T13:41:23Z</time></trkpt><trkpt lat="38.022684689698906" lon="13.489612747297205"><ele>287.0</ele><time>2026-04-28T13:41:24Z</time></trkpt><trkpt lat="38.022820545541414" lon="13.489616902745619"><ele>284.0</ele><time>2026-04-28T13:41:26Z</time></trkpt><trkpt lat="38.02291184690247" lon="13.48959875241857"><ele>281.0</ele><time>2026-04-28T13:41:27Z</time></trkpt><trkpt lat="38.02298421858343" lon="13.48960542696408"><ele>278.0</ele><time>2026-04-28T13:41:32Z</time></trkpt><trkpt lat="38.02306535721639" lon="13.489612897946133"><ele>278.0</ele><time>2026-04-28T13:41:35Z</time></trkpt><trkpt lat="38.02314547691575" lon="13.489609271194768"><ele>278.0</ele><time>2026-04-28T13:41:39Z</time></trkpt><trkpt lat="38.02325793176868" lon="13.489634497820468"><ele>278.0</ele><time>2026-04-28T13:41:41Z</time></trkpt><trkpt lat="38.02333158396252" lon="13.489640597762326"><ele>278.0</ele><time>2026-04-28T13:41:42Z</time></trkpt><trkpt lat="38.02341181527902" lon="13.489659940443262"><ele>278.0</ele><time>2026-04-28T13:41:43Z</time></trkpt><trkpt lat="38.023502276427955" lon="13.48968060231015"><ele>278.0</ele><time>2026-04-28T13:41:44Z</time></trkpt><trkpt lat="38.02359485375374" lon="13.489692395856322"><ele>275.4</ele><time>2026-04-28T13:41:45Z</time></trkpt><trkpt lat="38.02369019186257" lon="13.489712573851724"><ele>272.8</ele><time>2026-04-28T13:41:46Z</time></trkpt><trkpt lat="38.02379078170933" lon="13.489734233887752"><ele>270.2</ele><time>2026-04-28T13:41:47Z</time></trkpt><trkpt lat="38.02387022522752" lon="13.4897542772764"><ele>267.6</ele><time>2026-04-28T13:41:48Z</time></trkpt><trkpt lat="38.02397091253877" lon="13.48978035210064"><ele>265.0</ele><time>2026-04-28T13:41:49Z</time></trkpt><trkpt lat="38.02407233808309" lon="13.48981534875824"><ele>263.4</ele><time>2026-04-28T13:41:50Z</time></trkpt><trkpt lat="38.02417863726651" lon="13.489827742473533"><ele>261.8</ele><time>2026-04-28T13:41:51Z</time></trkpt><trkpt lat="38.02427137090794" lon="13.489846418158013"><ele>260.2</ele><time>2026-04-28T13:41:52Z</time></trkpt><trkpt lat="38.02437075935828" lon="13.489849806165491"><ele>258.6</ele><time>2026-04-28T13:41:53Z</time></trkpt><trkpt lat="38.0244741862113" lon="13.489847749965032"><ele>257.0</ele><time>2026-04-28T13:41:54Z</time></trkpt><trkpt lat="38.024573428104965" lon="13.489849055398095"><ele>257.0</ele><time>2026-04-28T13:41:55Z</time></trkpt><trkpt lat="38.024666848811904" lon="13.489866619577692"><ele>257.0</ele><time>2026-04-28T13:41:56Z</time></trkpt><trkpt lat="38.02475987138664" lon="13.489878963814846"><ele>257.0</ele><time>2026-04-28T13:41:57Z</time></trkpt><trkpt lat="38.02485488991712" lon="13.489902785390885"><ele>257.0</ele><time>2026-04-28T13:41:58Z</time></trkpt><trkpt lat="38.02494933438952" lon="13.489910257959616"><ele>257.0</ele><time>2026-04-28T13:41:59Z</time></trkpt><trkpt lat="38.02503866549513" lon="13.489914317005603"><ele>254.8</ele><time>2026-04-28T13:42:00Z</time></trkpt><trkpt lat="38.02512102453178" lon="13.489922368085562"><ele>252.6</ele><time>2026-04-28T13:42:01Z</time></trkpt><trkpt lat="38.02521825237481" lon="13.489938272107995"><ele>250.40000000000003</ele><time>2026-04-28T13:42:02Z</time></trkpt><trkpt lat="38.02530540474096" lon="13.489965565994302"><ele>248.20000000000002</ele><time>2026-04-28T13:42:03Z</time></trkpt><trkpt lat="38.025401460135406" lon="13.489967997707653"><ele>246.0</ele><time>2026-04-28T13:42:04Z</time></trkpt><trkpt lat="38.025484555508505" lon="13.490010704987311"><ele>246.0</ele><time>2026-04-28T13:42:05Z</time></trkpt><trkpt lat="38.02557759465312" lon="13.490039218950438"><ele>246.00000000000003</ele><time>2026-04-28T13:42:06Z</time></trkpt><trkpt lat="38.0256655354525" lon="13.490064144395582"><ele>246.00000000000003</ele><time>2026-04-28T13:42:07Z</time></trkpt><trkpt lat="38.02573378265143" lon="13.49007645009286"><ele>246.0</ele><time>2026-04-28T13:42:08Z</time></trkpt><trkpt lat="38.02583907952474" lon="13.490112262031783"><ele>246.0</ele><time>2026-04-28T13:42:09Z</time></trkpt><trkpt lat="38.02594417802374" lon="13.490147717837985"><ele>244.8</ele><time>2026-04-28T13:42:10Z</time></trkpt><trkpt lat="38.026054007117374" lon="13.49017137093095"><ele>243.60000000000002</ele><time>2026-04-28T13:42:11Z</time></trkpt><trkpt lat="38.026161929282466" lon="13.490189739084755"><ele>242.4</ele><time>2026-04-28T13:42:12Z</time></trkpt><trkpt lat="38.02626794118834" lon="13.490190161847911"><ele>241.2</ele><time>2026-04-28T13:42:13Z</time></trkpt><trkpt lat="38.02636643609771" lon="13.490187034134966"><ele>240.0</ele><time>2026-04-28T13:42:14Z</time></trkpt><trkpt lat="38.02646815420736" lon="13.49018543342526"><ele>240.0</ele><time>2026-04-28T13:42:15Z</time></trkpt><trkpt lat="38.02655871964718" lon="13.49017996606981"><ele>240.0</ele><time>2026-04-28T13:42:16Z</time></trkpt><trkpt lat="38.026650746741026" lon="13.490192444088814"><ele>240.0</ele><time>2026-04-28T13:42:18Z</time></trkpt><trkpt lat="38.02671857422198" lon="13.490212661376864"><ele>240.0</ele><time>2026-04-28T13:42:35Z</time></trkpt><trkpt lat="38.0267949377827" lon="13.490225750604942"><ele>240.0</ele><time>2026-04-28T13:42:48Z</time></trkpt><trkpt lat="38.02685813342759" lon="13.490244344509248"><ele>240.0</ele><time>2026-04-28T13:42:50Z</time></trkpt><trkpt lat="38.02694625063595" lon="13.490267517446592"><ele>238.16666666666666</ele><time>2026-04-28T13:42:53Z</time></trkpt><trkpt lat="38.02703690465142" lon="13.490294294412655"><ele>236.33333333333331</ele><time>2026-04-28T13:42:55Z</time></trkpt><trkpt lat="38.027099703979154" lon="13.490287519996501"><ele>234.5</ele><time>2026-04-28T13:42:56Z</time></trkpt><trkpt lat="38.02718544281547" lon="13.490299506971166"><ele>232.66666666666666</ele><time>2026-04-28T13:42:58Z</time></trkpt><trkpt lat="38.02714415807581" lon="13.490430902320092"><ele>230.83333333333331</ele><time>2026-04-28T13:43:02Z</time></trkpt><trkpt lat="38.02710688909144" lon="13.490497230325696"><ele>229.0</ele><time>2026-04-28T13:43:04Z</time></trkpt><trkpt lat="38.02712960354861" lon="13.490598784997667"><ele>228.33333333333331</ele><time>2026-04-28T13:43:06Z</time></trkpt><trkpt lat="38.027141303530904" lon="13.490711509160304"><ele>227.66666666666666</ele><time>2026-04-28T13:43:09Z</time></trkpt><trkpt lat="38.027176215094954" lon="13.49077919862703"><ele>227.0</ele><time>2026-04-28T13:43:12Z</time></trkpt><trkpt lat="38.02717926821863" lon="13.490876775024619"><ele>226.33333333333331</ele><time>2026-04-28T13:43:18Z</time></trkpt><trkpt lat="38.02719173319938" lon="13.490963663245772"><ele>225.66666666666666</ele><time>2026-04-28T13:43:23Z</time></trkpt><trkpt lat="38.02720269487441" lon="13.49104857847109"><ele>225.0</ele><time>2026-04-28T13:43:28Z</time></trkpt><trkpt lat="38.027199979818256" lon="13.491163626102436"><ele>225.42857142857144</ele><time>2026-04-28T13:43:33Z</time></trkpt><trkpt lat="38.02719401411846" lon="13.491263375898594"><ele>225.85714285714286</ele><time>2026-04-28T13:43:38Z</time></trkpt><trkpt lat="38.02721400946358" lon="13.49134512528929"><ele>226.28571428571428</ele><time>2026-04-28T13:43:41Z</time></trkpt><trkpt lat="38.02719279825785" lon="13.491437252549224"><ele>226.71428571428572</ele><time>2026-04-28T13:43:44Z</time></trkpt><trkpt lat="38.02718459757507" lon="13.491523786228532"><ele>227.1428571428571</ele><time>2026-04-28T13:43:47Z</time></trkpt><trkpt lat="38.02715937727923" lon="13.491608191382268"><ele>227.57142857142856</ele><time>2026-04-28T13:43:51Z</time></trkpt><trkpt lat="38.02715160651837" lon="13.491699233115105"><ele>228.0</ele><time>2026-04-28T13:43:56Z</time></trkpt><trkpt lat="38.027164690185266" lon="13.491792083875483"><ele>228.0</ele><time>2026-04-28T13:44:01Z</time></trkpt><trkpt lat="38.02715742888052" lon="13.491884750561098"><ele>227.99999999999997</ele><time>2026-04-28T13:44:06Z</time></trkpt><trkpt lat="38.02718649146332" lon="13.491979495681328"><ele>228.0</ele><time>2026-04-28T13:44:11Z</time></trkpt><trkpt lat="38.02720772187889" lon="13.492070776199025"><ele>228.0</ele><time>2026-04-28T13:44:16Z</time></trkpt><trkpt lat="38.02723518790736" lon="13.492148609937566"><ele>227.99999999999997</ele><time>2026-04-28T13:44:20Z</time></trkpt><trkpt lat="38.027256737827926" lon="13.492228377464679"><ele>228.0</ele><time>2026-04-28T13:44:25Z</time></trkpt><trkpt lat="38.0272687158706" lon="13.492316661311104"><ele>228.0</ele><time>2026-04-28T13:44:28Z</time></trkpt><trkpt lat="38.0272986676158" lon="13.49239946315228"><ele>228.57142857142856</ele><time>2026-04-28T13:44:33Z</time></trkpt><trkpt lat="38.02732842237297" lon="13.492471338684847"><ele>229.1428571428571</ele><time>2026-04-28T13:44:37Z</time></trkpt><trkpt lat="38.02735098913343" lon="13.492569013715194"><ele>229.71428571428572</ele><time>2026-04-28T13:44:41Z</time></trkpt><trkpt lat="38.02739141184045" lon="13.492636767937379"><ele>230.28571428571428</ele><time>2026-04-28T13:44:45Z</time></trkpt><trkpt lat="38.02742677865556" lon="13.49271546740928"><ele>230.85714285714286</ele><time>2026-04-28T13:44:48Z</time></trkpt><trkpt lat="38.027464951799104" lon="13.492803200201221"><ele>231.42857142857144</ele><time>2026-04-28T13:44:52Z</time></trkpt><trkpt lat="38.027498480238414" lon="13.492882728064636"><ele>232.00000000000003</ele><time>2026-04-28T13:44:55Z</time></trkpt><trkpt lat="38.027520881989716" lon="13.492963177260918"><ele>233.39999999999998</ele><time>2026-04-28T13:44:58Z</time></trkpt><trkpt lat="38.02755705820739" lon="13.493030683188744"><ele>234.79999999999998</ele><time>2026-04-28T13:45:01Z</time></trkpt><trkpt lat="38.02760040765312" lon="13.493116985970484"><ele>236.2</ele><time>2026-04-28T13:45:04Z</time></trkpt><trkpt lat="38.027634561598106" lon="13.493212484586483"><ele>237.6</ele><time>2026-04-28T13:45:08Z</time></trkpt><trkpt lat="38.02768870617874" lon="13.493282244738575"><ele>239.0</ele><time>2026-04-28T13:45:10Z</time></trkpt><trkpt lat="38.0277280742898" lon="13.493503027005106"><ele>239.00000000000003</ele><time>2026-04-28T13:45:19Z</time></trkpt><trkpt lat="38.02778705205048" lon="13.493589636870489"><ele>239.0</ele><time>2026-04-28T13:45:24Z</time></trkpt><trkpt lat="38.02781974640182" lon="13.493676739640566"><ele>239.0</ele><time>2026-04-28T13:45:28Z</time></trkpt><trkpt lat="38.02780691794018" lon="13.493768340803697"><ele>239.0</ele><time>2026-04-28T13:45:31Z</time></trkpt><trkpt lat="38.02783822856137" lon="13.493846385631874"><ele>239.00000000000003</ele><time>2026-04-28T13:45:34Z</time></trkpt><trkpt lat="38.0278632576474" lon="13.493929887401903"><ele>239.0</ele><time>2026-04-28T13:45:38Z</time></trkpt><trkpt lat="38.027874954116946" lon="13.494036819895419"><ele>240.50000000000003</ele><time>2026-04-28T13:45:42Z</time></trkpt><trkpt lat="38.02789786176001" lon="13.494119780757018"><ele>242.0</ele><time>2026-04-28T13:45:45Z</time></trkpt><trkpt lat="38.027921496862426" lon="13.494225560449694"><ele>243.5</ele><time>2026-04-28T13:45:49Z</time></trkpt><trkpt lat="38.027949358997624" lon="13.494322182892596"><ele>245.0</ele><time>2026-04-28T13:45:53Z</time></trkpt><trkpt lat="38.027968536662584" lon="13.494416789581827"><ele>246.50000000000003</ele><time>2026-04-28T13:45:56Z</time></trkpt><trkpt lat="38.02798046479191" lon="13.494530183288326"><ele>248.0</ele><time>2026-04-28T13:45:59Z</time></trkpt><trkpt lat="38.02799504686872" lon="13.494612776367997"><ele>248.57142857142858</ele><time>2026-04-28T13:46:01Z</time></trkpt><trkpt lat="38.0280201249518" lon="13.494696138198467"><ele>249.14285714285717</ele><time>2026-04-28T13:46:03Z</time></trkpt><trkpt lat="38.028033577102086" lon="13.49477748728046"><ele>249.71428571428572</ele><time>2026-04-28T13:46:05Z</time></trkpt><trkpt lat="38.02803360418328" lon="13.494868289964602"><ele>250.28571428571428</ele><time>2026-04-28T13:46:07Z</time></trkpt><trkpt lat="38.0280523544589" lon="13.494949926445106"><ele>250.85714285714286</ele><time>2026-04-28T13:46:09Z</time></trkpt><trkpt lat="38.02807066682222" lon="13.49503802955196"><ele>251.42857142857144</ele><time>2026-04-28T13:46:11Z</time></trkpt><trkpt lat="38.028098217950934" lon="13.495134691441017"><ele>252.0</ele><time>2026-04-28T13:46:15Z</time></trkpt><trkpt lat="38.02813259433283" lon="13.495234921957714"><ele>252.0</ele><time>2026-04-28T13:46:17Z</time></trkpt><trkpt lat="38.02816957189993" lon="13.495318449752917"><ele>252.0</ele><time>2026-04-28T13:46:19Z</time></trkpt><trkpt lat="38.0282060054994" lon="13.495409846171315"><ele>252.0</ele><time>2026-04-28T13:46:23Z</time></trkpt><trkpt lat="38.028234820935346" lon="13.495490030842483"><ele>252.0</ele><time>2026-04-28T13:46:26Z</time></trkpt><trkpt lat="38.02826004574964" lon="13.4955747642179"><ele>252.0</ele><time>2026-04-28T13:46:28Z</time></trkpt><trkpt lat="38.02830888763641" lon="13.495673623656067"><ele>252.0</ele><time>2026-04-28T13:46:31Z</time></trkpt><trkpt lat="38.02834332455986" lon="13.49577249782579"><ele>252.57142857142856</ele><time>2026-04-28T13:46:34Z</time></trkpt><trkpt lat="38.02836219312382" lon="13.495865146436511"><ele>253.14285714285714</ele><time>2026-04-28T13:46:37Z</time></trkpt><trkpt lat="38.028383790346616" lon="13.495947462298325"><ele>253.71428571428572</ele><time>2026-04-28T13:46:39Z</time></trkpt><trkpt lat="38.02842866562775" lon="13.496017186062362"><ele>254.28571428571428</ele><time>2026-04-28T13:46:41Z</time></trkpt><trkpt lat="38.02847321844555" lon="13.49610409108628"><ele>254.85714285714283</ele><time>2026-04-28T13:46:44Z</time></trkpt><trkpt lat="38.02853455666902" lon="13.496180456587277"><ele>255.42857142857142</ele><time>2026-04-28T13:46:47Z</time></trkpt><trkpt lat="38.02857817534923" lon="13.49623820578637"><ele>256.0</ele><time>2026-04-28T13:46:49Z</time></trkpt><trkpt lat="38.02861928527422" lon="13.496323866937468"><ele>255.99999999999997</ele><time>2026-04-28T13:46:52Z</time></trkpt><trkpt lat="38.028665662675465" lon="13.496414557581017"><ele>256.0</ele><time>2026-04-28T13:46:55Z</time></trkpt><trkpt lat="38.02871936569867" lon="13.49650081611982"><ele>256.0</ele><time>2026-04-28T13:46:58Z</time></trkpt><trkpt lat="38.028789144506426" lon="13.4965784140907"><ele>256.0</ele><time>2026-04-28T13:47:01Z</time></trkpt><trkpt lat="38.028857260183216" lon="13.49662363315435"><ele>255.99999999999997</ele><time>2026-04-28T13:47:04Z</time></trkpt><trkpt lat="38.028938635753946" lon="13.496633039071193"><ele>256.0</ele><time>2026-04-28T13:47:07Z</time></trkpt><trkpt lat="38.02901861312955" lon="13.49664787336745"><ele>256.0</ele><time>2026-04-28T13:47:10Z</time></trkpt><trkpt lat="38.02909702280708" lon="13.496670821142882"><ele>255.99999999999997</ele><time>2026-04-28T13:47:13Z</time></trkpt><trkpt lat="38.029152793790466" lon="13.496714913188743"><ele>256.0</ele><time>2026-04-28T13:47:15Z</time></trkpt><trkpt lat="38.02923331137054" lon="13.496709558835247"><ele>256.0</ele><time>2026-04-28T13:47:18Z</time></trkpt><trkpt lat="38.02931693576883" lon="13.496739527454402"><ele>255.99999999999997</ele><time>2026-04-28T13:47:21Z</time></trkpt><trkpt lat="38.02938375357209" lon="13.496725614702125"><ele>256.0</ele><time>2026-04-28T13:47:24Z</time></trkpt><trkpt lat="38.02944680096972" lon="13.496755532776012"><ele>256.0</ele><time>2026-04-28T13:47:27Z</time></trkpt><trkpt lat="38.0295073889366" lon="13.496782258662956"><ele>256.3333333333333</ele><time>2026-04-28T13:47:30Z</time></trkpt><trkpt lat="38.02956198926997" lon="13.496853366054221"><ele>256.66666666666663</ele><time>2026-04-28T13:47:33Z</time></trkpt><trkpt lat="38.029653319158726" lon="13.496865673515838"><ele>257.0</ele><time>2026-04-28T13:48:18Z</time></trkpt><trkpt lat="38.029628717996914" lon="13.496948756479005"><ele>257.3333333333333</ele><time>2026-04-28T13:50:03Z</time></trkpt><trkpt lat="38.02959051068402" lon="13.497031476015314"><ele>257.6666666666667</ele><time>2026-04-28T13:50:07Z</time></trkpt><trkpt lat="38.029559567642885" lon="13.497133231190789"><ele>258.0</ele><time>2026-04-28T13:50:10Z</time></trkpt><trkpt lat="38.02953027301465" lon="13.497236645468911"><ele>258.0</ele><time>2026-04-28T13:50:13Z</time></trkpt><trkpt lat="38.029512956226476" lon="13.497322354246656"><ele>258.0</ele><time>2026-04-28T13:50:15Z</time></trkpt><trkpt lat="38.029479365920565" lon="13.497445988220347"><ele>258.0</ele><time>2026-04-28T13:50:18Z</time></trkpt><trkpt lat="38.02944285305448" lon="13.497560126496719"><ele>258.0</ele><time>2026-04-28T13:50:21Z</time></trkpt><trkpt lat="38.02943410604009" lon="13.497648101160848"><ele>258.0</ele><time>2026-04-28T13:50:24Z</time></trkpt><trkpt lat="38.02940123544052" lon="13.49772741663231"><ele>258.0</ele><time>2026-04-28T13:50:27Z</time></trkpt><trkpt lat="38.02938122445378" lon="13.49783668365606"><ele>258.6666666666667</ele><time>2026-04-28T13:50:30Z</time></trkpt><trkpt lat="38.029387725899284" lon="13.497919144578587"><ele>259.3333333333333</ele><time>2026-04-28T13:50:32Z</time></trkpt><trkpt lat="38.02937134225894" lon="13.49799655159382"><ele>260.0</ele><time>2026-04-28T13:50:34Z</time></trkpt><trkpt lat="38.02936453752082" lon="13.498108949520116"><ele>260.66666666666663</ele><time>2026-04-28T13:50:37Z</time></trkpt><trkpt lat="38.029366715932184" lon="13.498228279144135"><ele>261.3333333333333</ele><time>2026-04-28T13:50:40Z</time></trkpt><trkpt lat="38.02936970484015" lon="13.498341554574372"><ele>262.0</ele><time>2026-04-28T13:50:43Z</time></trkpt><trkpt lat="38.02937212880383" lon="13.498427426843516"><ele>262.0</ele><time>2026-04-28T13:50:45Z</time></trkpt><trkpt lat="38.02937068559499" lon="13.498524175639464"><ele>262.0</ele><time>2026-04-28T13:50:47Z</time></trkpt><trkpt lat="38.02935886572521" lon="13.498656923775023"><ele>262.0</ele><time>2026-04-28T13:50:50Z</time></trkpt><trkpt lat="38.02937875643005" lon="13.498758577547795"><ele>262.0</ele><time>2026-04-28T13:50:53Z</time></trkpt><trkpt lat="38.02935440813057" lon="13.498894835790395"><ele>262.0</ele><time>2026-04-28T13:50:56Z</time></trkpt><trkpt lat="38.02934506009509" lon="13.498999691247578"><ele>262.3333333333333</ele><time>2026-04-28T13:50:58Z</time></trkpt><trkpt lat="38.02934382288644" lon="13.49910220934892"><ele>262.6666666666667</ele><time>2026-04-28T13:51:01Z</time></trkpt><trkpt lat="38.02934491938928" lon="13.49921638950128"><ele>263.0</ele><time>2026-04-28T13:51:03Z</time></trkpt><trkpt lat="38.02938871479397" lon="13.49959395508307"><ele>261.83333333333337</ele><time>2026-04-28T13:51:05Z</time></trkpt><trkpt lat="38.029415714084735" lon="13.499678856722467"><ele>260.6666666666667</ele><time>2026-04-28T13:51:06Z</time></trkpt><trkpt lat="38.02945117836918" lon="13.49977839087159"><ele>259.5</ele><time>2026-04-28T13:51:07Z</time></trkpt><trkpt lat="38.02944573966881" lon="13.499880129954244"><ele>258.3333333333333</ele><time>2026-04-28T13:51:08Z</time></trkpt><trkpt lat="38.0294400165337" lon="13.499967091051122"><ele>257.16666666666663</ele><time>2026-04-28T13:51:09Z</time></trkpt><trkpt lat="38.02941087139952" lon="13.500047098498156"><ele>256.0</ele><time>2026-04-28T13:51:10Z</time></trkpt><trkpt lat="38.02934259391197" lon="13.500133218238377"><ele>255.99999999999997</ele><time>2026-04-28T13:51:12Z</time></trkpt><trkpt lat="38.02930444204129" lon="13.500242763029469"><ele>256.0</ele><time>2026-04-28T13:51:13Z</time></trkpt><trkpt lat="38.02928110876177" lon="13.500357752618326"><ele>256.0</ele><time>2026-04-28T13:51:14Z</time></trkpt><trkpt lat="38.02925244774643" lon="13.500470598989025"><ele>256.0</ele><time>2026-04-28T13:51:15Z</time></trkpt><trkpt lat="38.02924621245078" lon="13.500573664129313"><ele>255.99999999999997</ele><time>2026-04-28T13:51:16Z</time></trkpt><trkpt lat="38.0292311626095" lon="13.500675259389368"><ele>256.0</ele><time>2026-04-28T13:51:17Z</time></trkpt><trkpt lat="38.029239271383034" lon="13.500758298554883"><ele>254.8</ele><time>2026-04-28T13:51:18Z</time></trkpt><trkpt lat="38.02917634774493" lon="13.500891501017996"><ele>253.60000000000002</ele><time>2026-04-28T13:51:20Z</time></trkpt><trkpt lat="38.0291100557193" lon="13.50101322921804"><ele>252.4</ele><time>2026-04-28T13:51:22Z</time></trkpt><trkpt lat="38.02903388154958" lon="13.501092147210782"><ele>251.2</ele><time>2026-04-28T13:51:24Z</time></trkpt><trkpt lat="38.02903243038971" lon="13.50118583369132"><ele>250.0</ele><time>2026-04-28T13:51:26Z</time></trkpt><trkpt lat="38.02907823673759" lon="13.501286969014092"><ele>254.0</ele><time>2026-04-28T13:51:28Z</time></trkpt><trkpt lat="38.02906535015115" lon="13.501425375493838"><ele>258.0</ele><time>2026-04-28T13:51:30Z</time></trkpt><trkpt lat="38.029056823221126" lon="13.501564412085191"><ele>262.0</ele><time>2026-04-28T13:51:32Z</time></trkpt><trkpt lat="38.02905524679657" lon="13.501668938876234"><ele>266.0</ele><time>2026-04-28T13:51:35Z</time></trkpt><trkpt lat="38.02908483626587" lon="13.501834957660954"><ele>270.0</ele><time>2026-04-28T13:51:38Z</time></trkpt><trkpt lat="38.02913395945237" lon="13.501923111687347"><ele>268.6666666666667</ele><time>2026-04-28T13:51:41Z</time></trkpt><trkpt lat="38.02915230656949" lon="13.502030181391081"><ele>267.3333333333333</ele><time>2026-04-28T13:51:43Z</time></trkpt><trkpt lat="38.02918557071996" lon="13.502126109425145"><ele>266.0</ele><time>2026-04-28T13:51:46Z</time></trkpt><trkpt lat="38.02923620542295" lon="13.502202571807214"><ele>264.66666666666663</ele><time>2026-04-28T13:51:48Z</time></trkpt><trkpt lat="38.02928748586858" lon="13.502257551101216"><ele>263.3333333333333</ele><time>2026-04-28T13:51:49Z</time></trkpt><trkpt lat="38.029333278995715" lon="13.502314838250287"><ele>262.0</ele><time>2026-04-28T13:51:51Z</time></trkpt><trkpt lat="38.02941542303314" lon="13.502339127249146"><ele>262.0</ele><time>2026-04-28T13:51:53Z</time></trkpt><trkpt lat="38.02947005255505" lon="13.502386794871322"><ele>262.0</ele><time>2026-04-28T13:51:55Z</time></trkpt><trkpt lat="38.0297331099147" lon="13.502545281346755"><ele>262.0</ele><time>2026-04-28T13:51:56Z</time></trkpt><trkpt lat="38.02983289311521" lon="13.502613014619975"><ele>262.0</ele><time>2026-04-28T13:51:58Z</time></trkpt><trkpt lat="38.029903157550606" lon="13.50267455521435"><ele>262.0</ele><time>2026-04-28T13:52:00Z</time></trkpt><trkpt lat="38.02993942079914" lon="13.502747709014209"><ele>262.0</ele><time>2026-04-28T13:52:02Z</time></trkpt><trkpt lat="38.02999150937546" lon="13.50287671967677"><ele>262.0</ele><time>2026-04-28T13:52:04Z</time></trkpt><trkpt lat="38.0300384761806" lon="13.50300813403091"><ele>262.0</ele><time>2026-04-28T13:52:06Z</time></trkpt><trkpt lat="38.030072403413506" lon="13.503139039816059"><ele>261.2</ele><time>2026-04-28T13:52:08Z</time></trkpt><trkpt lat="38.03009849629205" lon="13.503276219282846"><ele>260.4</ele><time>2026-04-28T13:52:10Z</time></trkpt><trkpt lat="38.03012525366807" lon="13.5034132292229"><ele>259.6</ele><time>2026-04-28T13:52:12Z</time></trkpt><trkpt lat="38.03015554333513" lon="13.503565734273597"><ele>258.8</ele><time>2026-04-28T13:52:14Z</time></trkpt><trkpt lat="38.03012073147754" lon="13.503647557171865"><ele>258.0</ele><time>2026-04-28T13:52:15Z</time></trkpt><trkpt lat="38.030200242845865" lon="13.503750634590524"><ele>258.0</ele><time>2026-04-28T13:52:17Z</time></trkpt><trkpt lat="38.030162230700554" lon="13.503838183448504"><ele>258.0</ele><time>2026-04-28T13:52:19Z</time></trkpt><trkpt lat="38.03020225474088" lon="13.503926268731224"><ele>258.0</ele><time>2026-04-28T13:52:22Z</time></trkpt><trkpt lat="38.03021496564445" lon="13.504021451656856"><ele>258.0</ele><time>2026-04-28T13:52:25Z</time></trkpt><trkpt lat="38.03028643813622" lon="13.504119245712559"><ele>258.0</ele><time>2026-04-28T13:52:28Z</time></trkpt><trkpt lat="38.030302889182984" lon="13.504245884224902"><ele>258.0</ele><time>2026-04-28T13:52:31Z</time></trkpt><trkpt lat="38.030438891558425" lon="13.504639132711947"><ele>258.0</ele><time>2026-04-28T13:52:33Z</time></trkpt><trkpt lat="38.030460825783884" lon="13.504726038882433"><ele>258.0</ele><time>2026-04-28T13:52:34Z</time></trkpt><trkpt lat="38.03048510934399" lon="13.504809521071403"><ele>258.0</ele><time>2026-04-28T13:52:35Z</time></trkpt><trkpt lat="38.03048842508479" lon="13.504896923022516"><ele>258.0</ele><time>2026-04-28T13:52:36Z</time></trkpt><trkpt lat="38.03054962825974" lon="13.505012908982943"><ele>258.0</ele><time>2026-04-28T13:52:38Z</time></trkpt><trkpt lat="38.03058769150916" lon="13.505110224548387"><ele>258.0</ele><time>2026-04-28T13:52:40Z</time></trkpt><trkpt lat="38.03065430280821" lon="13.505167572411551"><ele>258.0</ele><time>2026-04-28T13:52:42Z</time></trkpt><trkpt lat="38.030733089846144" lon="13.505210013761097"><ele>258.0</ele><time>2026-04-28T13:52:44Z</time></trkpt><trkpt lat="38.03079924861203" lon="13.505261558373059"><ele>258.0</ele><time>2026-04-28T13:52:46Z</time></trkpt><trkpt lat="38.030869375869486" lon="13.505333997073905"><ele>258.0</ele><time>2026-04-28T13:52:51Z</time></trkpt><trkpt lat="38.030931069295704" lon="13.505412917282273"><ele>258.0</ele><time>2026-04-28T13:52:55Z</time></trkpt><trkpt lat="38.03096555831576" lon="13.50549978047149"><ele>258.0</ele><time>2026-04-28T13:52:58Z</time></trkpt><trkpt lat="38.03101351427971" lon="13.505593472452679"><ele>257.1666666666667</ele><time>2026-04-28T13:53:01Z</time></trkpt><trkpt lat="38.031088312543055" lon="13.505652383433187"><ele>256.3333333333333</ele><time>2026-04-28T13:53:03Z</time></trkpt><trkpt lat="38.03115093361033" lon="13.505698229283487"><ele>255.5</ele><time>2026-04-28T13:53:05Z</time></trkpt><trkpt lat="38.031212929794236" lon="13.505748874013985"><ele>254.66666666666666</ele><time>2026-04-28T13:53:07Z</time></trkpt><trkpt lat="38.031267453180355" lon="13.50581722594896"><ele>253.83333333333331</ele><time>2026-04-28T13:53:09Z</time></trkpt><trkpt lat="38.03135155482564" lon="13.505870020814898"><ele>253.0</ele><time>2026-04-28T13:53:11Z</time></trkpt><trkpt lat="38.03141482721882" lon="13.505917683108242"><ele>252.99999999999997</ele><time>2026-04-28T13:53:13Z</time></trkpt><trkpt lat="38.03148152331742" lon="13.505977098116924"><ele>253.0</ele><time>2026-04-28T13:53:15Z</time></trkpt><trkpt lat="38.031551066500136" lon="13.506021613693827"><ele>253.0</ele><time>2026-04-28T13:53:17Z</time></trkpt><trkpt lat="38.031617784093996" lon="13.506076534284777"><ele>253.0</ele><time>2026-04-28T13:53:19Z</time></trkpt><trkpt lat="38.03167000770405" lon="13.506150513566677"><ele>252.99999999999997</ele><time>2026-04-28T13:53:23Z</time></trkpt><trkpt lat="38.03174668368551" lon="13.506215287925022"><ele>253.0</ele><time>2026-04-28T13:53:26Z</time></trkpt><trkpt lat="38.031822526138654" lon="13.506290698970146"><ele>253.16666666666666</ele><time>2026-04-28T13:53:29Z</time></trkpt><trkpt lat="38.031887380831954" lon="13.50634848983937"><ele>253.33333333333331</ele><time>2026-04-28T13:53:31Z</time></trkpt><trkpt lat="38.031951211379805" lon="13.506389320115026"><ele>253.5</ele><time>2026-04-28T13:53:32Z</time></trkpt><trkpt lat="38.03202684315975" lon="13.506433054886134"><ele>253.66666666666669</ele><time>2026-04-28T13:53:34Z</time></trkpt><trkpt lat="38.03210279548883" lon="13.506491497581536"><ele>253.83333333333334</ele><time>2026-04-28T13:53:36Z</time></trkpt><trkpt lat="38.03217615782058" lon="13.5065450526267"><ele>254.0</ele><time>2026-04-28T13:53:38Z</time></trkpt><trkpt lat="38.03225664786984" lon="13.506603367015284"><ele>254.00000000000003</ele><time>2026-04-28T13:53:40Z</time></trkpt><trkpt lat="38.03232052319288" lon="13.506660561839338"><ele>254.0</ele><time>2026-04-28T13:53:42Z</time></trkpt><trkpt lat="38.03239264466355" lon="13.506714509531692"><ele>254.0</ele><time>2026-04-28T13:53:44Z</time></trkpt><trkpt lat="38.03246141678647" lon="13.50677853933497"><ele>254.0</ele><time>2026-04-28T13:53:46Z</time></trkpt><trkpt lat="38.03252945753689" lon="13.506833728544542"><ele>254.00000000000003</ele><time>2026-04-28T13:53:48Z</time></trkpt><trkpt lat="38.032601310676625" lon="13.50688400568634"><ele>254.0</ele><time>2026-04-28T13:53:50Z</time></trkpt><trkpt lat="38.03266208941887" lon="13.506938584877439"><ele>254.16666666666669</ele><time>2026-04-28T13:53:52Z</time></trkpt><trkpt lat="38.032722986164266" lon="13.506988393963239"><ele>254.33333333333334</ele><time>2026-04-28T13:53:54Z</time></trkpt><trkpt lat="38.03279832446566" lon="13.507041091929697"><ele>254.5</ele><time>2026-04-28T13:53:57Z</time></trkpt><trkpt lat="38.03286799212163" lon="13.507115069691109"><ele>254.66666666666669</ele><time>2026-04-28T13:54:00Z</time></trkpt><trkpt lat="38.03292612221964" lon="13.507172633504068"><ele>254.83333333333334</ele><time>2026-04-28T13:54:02Z</time></trkpt><trkpt lat="38.03298369592098" lon="13.507221683865517"><ele>255.0</ele><time>2026-04-28T13:54:04Z</time></trkpt><trkpt lat="38.03306016362085" lon="13.507316688211798"><ele>255.0</ele><time>2026-04-28T13:54:06Z</time></trkpt><trkpt lat="38.03313866041082" lon="13.50740486121449"><ele>255.0</ele><time>2026-04-28T13:54:08Z</time></trkpt><trkpt lat="38.03320347555491" lon="13.50750816750336"><ele>255.0</ele><time>2026-04-28T13:54:10Z</time></trkpt><trkpt lat="38.03323986973263" lon="13.507605151515357"><ele>255.0</ele><time>2026-04-28T13:54:12Z</time></trkpt><trkpt lat="38.03331355749473" lon="13.507674335368248"><ele>255.0</ele><time>2026-04-28T13:54:13Z</time></trkpt><trkpt lat="38.03337178342217" lon="13.50774063061416"><ele>255.16666666666666</ele><time>2026-04-28T13:54:14Z</time></trkpt><trkpt lat="38.03343490019824" lon="13.50779649749885"><ele>255.33333333333331</ele><time>2026-04-28T13:54:15Z</time></trkpt><trkpt lat="38.03349658205074" lon="13.507849457421527"><ele>255.5</ele><time>2026-04-28T13:54:16Z</time></trkpt><trkpt lat="38.033554345842994" lon="13.507917575760363"><ele>255.66666666666666</ele><time>2026-04-28T13:54:17Z</time></trkpt><trkpt lat="38.03359644819303" lon="13.508011562906818"><ele>255.83333333333331</ele><time>2026-04-28T13:54:18Z</time></trkpt><trkpt lat="38.033633667998004" lon="13.508121520656752"><ele>256.0</ele><time>2026-04-28T13:54:19Z</time></trkpt><trkpt lat="38.03369781196435" lon="13.508233430294965"><ele>254.20000000000002</ele><time>2026-04-28T13:54:20Z</time></trkpt><trkpt lat="38.033766275140465" lon="13.508347125174863"><ele>252.40000000000003</ele><time>2026-04-28T13:54:21Z</time></trkpt><trkpt lat="38.03383454226023" lon="13.508437033855994"><ele>250.6</ele><time>2026-04-28T13:54:22Z</time></trkpt><trkpt lat="38.033885478769335" lon="13.50852507818821"><ele>248.8</ele><time>2026-04-28T13:54:23Z</time></trkpt><trkpt lat="38.03389048910587" lon="13.508649436813428"><ele>247.0</ele><time>2026-04-28T13:54:24Z</time></trkpt><trkpt lat="38.0339168860035" lon="13.508765024239633"><ele>244.25</ele><time>2026-04-28T13:54:25Z</time></trkpt><trkpt lat="38.033975816064135" lon="13.508893135965051"><ele>241.5</ele><time>2026-04-28T13:54:26Z</time></trkpt><trkpt lat="38.03405905361978" lon="13.508995355383439"><ele>238.75</ele><time>2026-04-28T13:54:27Z</time></trkpt><trkpt lat="38.03413179876693" lon="13.50911330791819"><ele>236.0</ele><time>2026-04-28T13:54:28Z</time></trkpt><trkpt lat="38.034213334111584" lon="13.50923293699376"><ele>236.0</ele><time>2026-04-28T13:54:29Z</time></trkpt><trkpt lat="38.034312642243016" lon="13.50932512825665"><ele>236.0</ele><time>2026-04-28T13:54:30Z</time></trkpt><trkpt lat="38.03439842688445" lon="13.509432684749175"><ele>236.0</ele><time>2026-04-28T13:54:31Z</time></trkpt><trkpt lat="38.034461830103034" lon="13.509567635390237"><ele>236.0</ele><time>2026-04-28T13:54:32Z</time></trkpt><trkpt lat="38.03447834897639" lon="13.509721551760716"><ele>232.75</ele><time>2026-04-28T13:54:33Z</time></trkpt><trkpt lat="38.03450989472045" lon="13.50987163119435"><ele>229.5</ele><time>2026-04-28T13:54:34Z</time></trkpt><trkpt lat="38.034546688010266" lon="13.510025149786026"><ele>226.25</ele><time>2026-04-28T13:54:35Z</time></trkpt><trkpt lat="38.03461731808511" lon="13.510156580175808"><ele>223.0</ele><time>2026-04-28T13:54:36Z</time></trkpt><trkpt lat="38.03470311112788" lon="13.510279828132365"><ele>220.0</ele><time>2026-04-28T13:54:37Z</time></trkpt><trkpt lat="38.03477619168778" lon="13.510424206551338"><ele>217.0</ele><time>2026-04-28T13:54:38Z</time></trkpt><trkpt lat="38.034798104833676" lon="13.510597973246295"><ele>214.0</ele><time>2026-04-28T13:54:39Z</time></trkpt><trkpt lat="38.0348364562029" lon="13.5107620316338"><ele>211.0</ele><time>2026-04-28T13:54:40Z</time></trkpt><trkpt lat="38.03484981455197" lon="13.510930567608504"><ele>211.0</ele><time>2026-04-28T13:54:41Z</time></trkpt><trkpt lat="38.03486815875872" lon="13.51108550021493"><ele>211.0</ele><time>2026-04-28T13:54:42Z</time></trkpt><trkpt lat="38.034884723235486" lon="13.51123441562642"><ele>211.0</ele><time>2026-04-28T13:54:43Z</time></trkpt><trkpt lat="38.034901720990334" lon="13.511378290143103"><ele>211.0</ele><time>2026-04-28T13:54:44Z</time></trkpt><trkpt lat="38.03490227964142" lon="13.511520411534969"><ele>209.20000000000002</ele><time>2026-04-28T13:54:45Z</time></trkpt><trkpt lat="38.03490957709265" lon="13.51164429544574"><ele>207.4</ele><time>2026-04-28T13:54:46Z</time></trkpt><trkpt lat="38.03491683944797" lon="13.511780979416047"><ele>205.6</ele><time>2026-04-28T13:54:47Z</time></trkpt><trkpt lat="38.0349248578415" lon="13.511931892938659"><ele>203.8</ele><time>2026-04-28T13:54:48Z</time></trkpt><trkpt lat="38.03494823904584" lon="13.512066279589593"><ele>202.0</ele><time>2026-04-28T13:54:49Z</time></trkpt><trkpt lat="38.034954205629894" lon="13.512189356580437"><ele>203.42857142857142</ele><time>2026-04-28T13:54:50Z</time></trkpt><trkpt lat="38.03497695477216" lon="13.512297586526246"><ele>204.85714285714283</ele><time>2026-04-28T13:54:51Z</time></trkpt><trkpt lat="38.03499952251649" lon="13.512391379755954"><ele>206.28571428571428</ele><time>2026-04-28T13:54:52Z</time></trkpt><trkpt lat="38.03500544560985" lon="13.51247250166579"><ele>207.71428571428572</ele><time>2026-04-28T13:54:53Z</time></trkpt><trkpt lat="38.035025959340814" lon="13.512552411469452"><ele>209.14285714285714</ele><time>2026-04-28T13:54:54Z</time></trkpt><trkpt lat="38.03505576509008" lon="13.512638457076614"><ele>210.57142857142858</ele><time>2026-04-28T13:54:55Z</time></trkpt><trkpt lat="38.03506480808355" lon="13.512721360195991"><ele>212.0</ele><time>2026-04-28T13:54:56Z</time></trkpt><trkpt lat="38.03507650609023" lon="13.51281025009034"><ele>212.0</ele><time>2026-04-28T13:54:57Z</time></trkpt><trkpt lat="38.03508934930481" lon="13.512888804735864"><ele>212.0</ele><time>2026-04-28T13:54:58Z</time></trkpt><trkpt lat="38.03510695600805" lon="13.512967386891027"><ele>212.0</ele><time>2026-04-28T13:54:59Z</time></trkpt><trkpt lat="38.03512323107223" lon="13.513046030410434"><ele>212.0</ele><time>2026-04-28T13:55:00Z</time></trkpt><trkpt lat="38.03517106053853" lon="13.5131666168603"><ele>212.0</ele><time>2026-04-28T13:55:02Z</time></trkpt><trkpt lat="38.035174814012564" lon="13.513255651302659"><ele>212.0</ele><time>2026-04-28T13:55:03Z</time></trkpt><trkpt lat="38.035212906238066" lon="13.513343594355154"><ele>212.0</ele><time>2026-04-28T13:55:04Z</time></trkpt><trkpt lat="38.03524105885016" lon="13.513440399527012"><ele>211.33333333333334</ele><time>2026-04-28T13:55:05Z</time></trkpt><trkpt lat="38.03530292233695" lon="13.513528402199011"><ele>210.66666666666669</ele><time>2026-04-28T13:55:06Z</time></trkpt><trkpt lat="38.03536527027921" lon="13.513600774902816"><ele>210.0</ele><time>2026-04-28T13:55:07Z</time></trkpt><trkpt lat="38.03543086633755" lon="13.513684922416719"><ele>209.33333333333331</ele><time>2026-04-28T13:55:08Z</time></trkpt><trkpt lat="38.03548844202656" lon="13.513737602297487"><ele>208.66666666666666</ele><time>2026-04-28T13:55:09Z</time></trkpt><trkpt lat="38.03555731193471" lon="13.513797958603469"><ele>208.0</ele><time>2026-04-28T13:55:10Z</time></trkpt><trkpt lat="38.03562223906654" lon="13.513858165745939"><ele>206.60000000000002</ele><time>2026-04-28T13:55:11Z</time></trkpt><trkpt lat="38.035692778896575" lon="13.513919145709727"><ele>205.20000000000002</ele><time>2026-04-28T13:55:12Z</time></trkpt><trkpt lat="38.03576429187665" lon="13.513981573242269"><ele>203.8</ele><time>2026-04-28T13:55:13Z</time></trkpt><trkpt lat="38.03584212811576" lon="13.51404863720044"><ele>202.4</ele><time>2026-04-28T13:55:14Z</time></trkpt><trkpt lat="38.03591776286607" lon="13.51412639874012"><ele>201.0</ele><time>2026-04-28T13:55:15Z</time></trkpt><trkpt lat="38.03599671771951" lon="13.51420368047596"><ele>201.0</ele><time>2026-04-28T13:55:16Z</time></trkpt><trkpt lat="38.03607277625403" lon="13.514289315604522"><ele>201.0</ele><time>2026-04-28T13:55:17Z</time></trkpt><trkpt lat="38.03615039766445" lon="13.514378290201645"><ele>201.0</ele><time>2026-04-28T13:55:18Z</time></trkpt><trkpt lat="38.036236454461324" lon="13.5144668175524"><ele>201.0</ele><time>2026-04-28T13:55:19Z</time></trkpt><trkpt lat="38.03631808167822" lon="13.51456430339036"><ele>201.0</ele><time>2026-04-28T13:55:20Z</time></trkpt><trkpt lat="38.03640476808456" lon="13.514652995263992"><ele>198.75</ele><time>2026-04-28T13:55:21Z</time></trkpt><trkpt lat="38.03649498024326" lon="13.514743584167066"><ele>196.5</ele><time>2026-04-28T13:55:22Z</time></trkpt><trkpt lat="38.03658878879923" lon="13.514841616011822"><ele>194.25</ele><time>2026-04-28T13:55:23Z</time></trkpt><trkpt lat="38.03668410670342" lon="13.514948133469396"><ele>192.0</ele><time>2026-04-28T13:55:24Z</time></trkpt><trkpt lat="38.036782114344156" lon="13.515042037517619"><ele>191.0</ele><time>2026-04-28T13:55:25Z</time></trkpt><trkpt lat="38.03688724037717" lon="13.515145324477992"><ele>190.0</ele><time>2026-04-28T13:55:26Z</time></trkpt><trkpt lat="38.0369929186117" lon="13.51523859630544"><ele>189.0</ele><time>2026-04-28T13:55:27Z</time></trkpt><trkpt lat="38.03708170153285" lon="13.515323049192409"><ele>188.0</ele><time>2026-04-28T13:55:28Z</time></trkpt><trkpt lat="38.03715404194" lon="13.51536687639893"><ele>186.4</ele><time>2026-04-28T13:55:29Z</time></trkpt><trkpt lat="38.03723099503559" lon="13.515434378667022"><ele>184.8</ele><time>2026-04-28T13:55:30Z</time></trkpt><trkpt lat="38.03728592504115" lon="13.515510059778595"><ele>183.2</ele><time>2026-04-28T13:55:31Z</time></trkpt><trkpt lat="38.037334410875395" lon="13.515570783589414"><ele>181.6</ele><time>2026-04-28T13:55:32Z</time></trkpt><trkpt lat="38.03743259225047" lon="13.515677333321083"><ele>180.0</ele><time>2026-04-28T13:55:34Z</time></trkpt><trkpt lat="38.0374913011491" lon="13.515742942684692"><ele>179.16666666666666</ele><time>2026-04-28T13:55:35Z</time></trkpt><trkpt lat="38.037553718994964" lon="13.515807937552356"><ele>178.33333333333334</ele><time>2026-04-28T13:55:36Z</time></trkpt><trkpt lat="38.03761518519086" lon="13.515872307282109"><ele>177.5</ele><time>2026-04-28T13:55:37Z</time></trkpt><trkpt lat="38.03767411399285" lon="13.515934405233072"><ele>176.66666666666669</ele><time>2026-04-28T13:55:38Z</time></trkpt><trkpt lat="38.037727367704896" lon="13.515986938048366"><ele>175.83333333333334</ele><time>2026-04-28T13:55:39Z</time></trkpt><trkpt lat="38.037824670295585" lon="13.516077568631665"><ele>175.0</ele><time>2026-04-28T13:55:41Z</time></trkpt><trkpt lat="38.03792186087865" lon="13.516173918370207"><ele>174.83333333333334</ele><time>2026-04-28T13:55:43Z</time></trkpt><trkpt lat="38.03800588152656" lon="13.516252287301892"><ele>174.66666666666669</ele><time>2026-04-28T13:55:45Z</time></trkpt><trkpt lat="38.038066857296656" lon="13.516307026602254"><ele>174.5</ele><time>2026-04-28T13:55:48Z</time></trkpt><trkpt lat="38.0381021564484" lon="13.516383666486236"><ele>174.33333333333334</ele><time>2026-04-28T13:55:53Z</time></trkpt><trkpt lat="38.03806821081236" lon="13.516492616149772"><ele>174.16666666666666</ele><time>2026-04-28T13:55:57Z</time></trkpt><trkpt lat="38.038057905272886" lon="13.51657996046382"><ele>174.0</ele><time>2026-04-28T13:55:59Z</time></trkpt><trkpt lat="38.038021851277925" lon="13.51666988207286"><ele>174.0</ele><time>2026-04-28T13:56:01Z</time></trkpt><trkpt lat="38.037995285491164" lon="13.516779601314646"><ele>174.0</ele><time>2026-04-28T13:56:03Z</time></trkpt><trkpt lat="38.03798561098977" lon="13.516874565007019"><ele>174.0</ele><time>2026-04-28T13:56:05Z</time></trkpt><trkpt lat="38.03797842724161" lon="13.516978934192803"><ele>174.0</ele><time>2026-04-28T13:56:08Z</time></trkpt><trkpt lat="38.03797788275681" lon="13.517081387093958"><ele>174.0</ele><time>2026-04-28T13:56:11Z</time></trkpt><trkpt lat="38.03794473608494" lon="13.517185919836058"><ele>174.0</ele><time>2026-04-28T13:56:14Z</time></trkpt><trkpt lat="38.03787938386196" lon="13.517258573921238"><ele>173.5</ele><time>2026-04-28T13:56:17Z</time></trkpt><trkpt lat="38.03782675332453" lon="13.517350731089415"><ele>173.0</ele><time>2026-04-28T13:56:20Z</time></trkpt><trkpt lat="38.03777920077496" lon="13.517436774920366"><ele>172.5</ele><time>2026-04-28T13:56:23Z</time></trkpt><trkpt lat="38.03771501879084" lon="13.517496968162682"><ele>172.0</ele><time>2026-04-28T13:56:26Z</time></trkpt><trkpt lat="38.037639747386635" lon="13.51754801430028"><ele>171.5</ele><time>2026-04-28T13:56:29Z</time></trkpt><trkpt lat="38.03759623573237" lon="13.51761583250238"><ele>171.0</ele><time>2026-04-28T13:56:31Z</time></trkpt><trkpt lat="38.03753806240653" lon="13.517681511864351"><ele>171.0</ele><time>2026-04-28T13:56:33Z</time></trkpt><trkpt lat="38.037488187054606" lon="13.517768682168295"><ele>171.0</ele><time>2026-04-28T13:56:35Z</time></trkpt><trkpt lat="38.03742956764305" lon="13.517843924619948"><ele>171.0</ele><time>2026-04-28T13:56:37Z</time></trkpt><trkpt lat="38.03738335579808" lon="13.517901219856908"><ele>171.0</ele><time>2026-04-28T13:56:40Z</time></trkpt><trkpt lat="38.03734286278289" lon="13.51797335860112"><ele>171.0</ele><time>2026-04-28T13:56:47Z</time></trkpt><trkpt lat="38.03733011843997" lon="13.518057622892858"><ele>171.0</ele><time>2026-04-28T13:56:51Z</time></trkpt><trkpt lat="38.03725795223908" lon="13.518114254697284"><ele>167.5</ele><time>2026-04-28T13:56:53Z</time></trkpt><trkpt lat="38.037177040746265" lon="13.518182301046318"><ele>164.0</ele><time>2026-04-28T13:56:55Z</time></trkpt><trkpt lat="38.037093824943845" lon="13.518303989509713"><ele>160.5</ele><time>2026-04-28T13:56:57Z</time></trkpt><trkpt lat="38.03700688907382" lon="13.518444041551477"><ele>157.0</ele><time>2026-04-28T13:56:59Z</time></trkpt><trkpt lat="38.03692271689838" lon="13.518563872034356"><ele>157.0</ele><time>2026-04-28T13:57:01Z</time></trkpt><trkpt lat="38.03684553214985" lon="13.518642459442752"><ele>157.0</ele><time>2026-04-28T13:57:02Z</time></trkpt><trkpt lat="38.03679740014303" lon="13.5187330810263"><ele>157.0</ele><time>2026-04-28T13:57:03Z</time></trkpt><trkpt lat="38.03674052408643" lon="13.518817748345471"><ele>157.0</ele><time>2026-04-28T13:57:04Z</time></trkpt><trkpt lat="38.03670453510186" lon="13.518904191122717"><ele>157.0</ele><time>2026-04-28T13:57:05Z</time></trkpt><trkpt lat="38.03667086048172" lon="13.519033791449457"><ele>155.79999999999998</ele><time>2026-04-28T13:57:06Z</time></trkpt><trkpt lat="38.03665008228426" lon="13.519150424980674"><ele>154.6</ele><time>2026-04-28T13:57:07Z</time></trkpt><trkpt lat="38.03663604088095" lon="13.51927102895442"><ele>153.39999999999998</ele><time>2026-04-28T13:57:08Z</time></trkpt><trkpt lat="38.03662489720564" lon="13.519395285439332"><ele>152.2</ele><time>2026-04-28T13:57:09Z</time></trkpt><trkpt lat="38.0366298477649" lon="13.519512425973664"><ele>151.0</ele><time>2026-04-28T13:57:10Z</time></trkpt><trkpt lat="38.036647242662404" lon="13.519624134166659"><ele>150.33333333333334</ele><time>2026-04-28T13:57:11Z</time></trkpt><trkpt lat="38.036645246285474" lon="13.519743837488521"><ele>149.66666666666669</ele><time>2026-04-28T13:57:12Z</time></trkpt><trkpt lat="38.03664987838319" lon="13.519858810560057"><ele>149.0</ele><time>2026-04-28T13:57:13Z</time></trkpt><trkpt lat="38.0366561032752" lon="13.519968346324728"><ele>148.33333333333334</ele><time>2026-04-28T13:57:14Z</time></trkpt><trkpt lat="38.03665744238678" lon="13.520087590026153"><ele>147.66666666666666</ele><time>2026-04-28T13:57:15Z</time></trkpt><trkpt lat="38.0366619663206" lon="13.520188764495611"><ele>147.0</ele><time>2026-04-28T13:57:16Z</time></trkpt><trkpt lat="38.036672725091144" lon="13.520292461805507"><ele>147.0</ele><time>2026-04-28T13:57:17Z</time></trkpt><trkpt lat="38.03667809961909" lon="13.520395055617513"><ele>147.0</ele><time>2026-04-28T13:57:18Z</time></trkpt><trkpt lat="38.036678489876714" lon="13.520497949036422"><ele>147.0</ele><time>2026-04-28T13:57:19Z</time></trkpt><trkpt lat="38.03668767032959" lon="13.52060313905764"><ele>147.0</ele><time>2026-04-28T13:57:20Z</time></trkpt><trkpt lat="38.036692726612415" lon="13.5207093671832"><ele>147.0</ele><time>2026-04-28T13:57:21Z</time></trkpt><trkpt lat="38.036693036345206" lon="13.520804079861783"><ele>147.0</ele><time>2026-04-28T13:57:22Z</time></trkpt><trkpt lat="38.03668455374264" lon="13.520901651927092"><ele>146.42857142857142</ele><time>2026-04-28T13:57:23Z</time></trkpt><trkpt lat="38.0366798364537" lon="13.520991181904003"><ele>145.85714285714286</ele><time>2026-04-28T13:57:24Z</time></trkpt><trkpt lat="38.03668080824044" lon="13.52108051980025"><ele>145.28571428571428</ele><time>2026-04-28T13:57:25Z</time></trkpt><trkpt lat="38.03667620592911" lon="13.521171593178288"><ele>144.71428571428572</ele><time>2026-04-28T13:57:26Z</time></trkpt><trkpt lat="38.03668264709022" lon="13.521261290371637"><ele>144.14285714285714</ele><time>2026-04-28T13:57:27Z</time></trkpt><trkpt lat="38.03666656699843" lon="13.52134005750685"><ele>143.57142857142856</ele><time>2026-04-28T13:57:28Z</time></trkpt><trkpt lat="38.03664471965292" lon="13.521419824431629"><ele>143.0</ele><time>2026-04-28T13:57:29Z</time></trkpt><trkpt lat="38.03662461528545" lon="13.52149809570242"><ele>145.0</ele><time>2026-04-28T13:57:30Z</time></trkpt><trkpt lat="38.03658568134064" lon="13.521645364410382"><ele>147.0</ele><time>2026-04-28T13:57:32Z</time></trkpt><trkpt lat="38.036542619256" lon="13.521779403056007"><ele>149.0</ele><time>2026-04-28T13:57:34Z</time></trkpt><trkpt lat="38.03649461506489" lon="13.521916522976518"><ele>151.0</ele><time>2026-04-28T13:57:36Z</time></trkpt><trkpt lat="38.03642918211612" lon="13.522043120475368"><ele>150.6</ele><time>2026-04-28T13:57:38Z</time></trkpt><trkpt lat="38.03636457252963" lon="13.522154228169802"><ele>150.2</ele><time>2026-04-28T13:57:40Z</time></trkpt><trkpt lat="38.03630478775901" lon="13.522252121058488"><ele>149.8</ele><time>2026-04-28T13:57:42Z</time></trkpt><trkpt lat="38.03624679260236" lon="13.522351259914666"><ele>149.4</ele><time>2026-04-28T13:57:44Z</time></trkpt><trkpt lat="38.03619643743732" lon="13.52245101491521"><ele>149.0</ele><time>2026-04-28T13:57:46Z</time></trkpt><trkpt lat="38.03614968797607" lon="13.52254078753425"><ele>149.0</ele><time>2026-04-28T13:57:48Z</time></trkpt><trkpt lat="38.03609964214296" lon="13.522634063935453"><ele>149.0</ele><time>2026-04-28T13:57:50Z</time></trkpt><trkpt lat="38.036059710726654" lon="13.52272635093625"><ele>149.0</ele><time>2026-04-28T13:57:52Z</time></trkpt><trkpt lat="38.03601340429321" lon="13.522807734443798"><ele>149.0</ele><time>2026-04-28T13:57:54.001Z</time></trkpt><trkpt lat="38.035966549817005" lon="13.522891639087407"><ele>149.0</ele><time>2026-04-28T13:57:56.001Z</time></trkpt><trkpt lat="38.035908497703865" lon="13.523001110418736"><ele>149.0</ele><time>2026-04-28T13:57:59.001Z</time></trkpt><trkpt lat="38.03586961604288" lon="13.523072354588194"><ele>148.33333333333331</ele><time>2026-04-28T13:58:01.001Z</time></trkpt><trkpt lat="38.0358341915456" lon="13.523165625585985"><ele>147.66666666666666</ele><time>2026-04-28T13:58:03.001Z</time></trkpt><trkpt lat="38.03579663348434" lon="13.523236870828905"><ele>147.0</ele><time>2026-04-28T13:58:05.001Z</time></trkpt><trkpt lat="38.035761311135666" lon="13.523326748001136"><ele>146.33333333333334</ele><time>2026-04-28T13:58:07.001Z</time></trkpt><trkpt lat="38.03572307353758" lon="13.523421776784279"><ele>145.66666666666669</ele><time>2026-04-28T13:58:10.001Z</time></trkpt><trkpt lat="38.0356937631154" lon="13.523539773766823"><ele>145.0</ele><time>2026-04-28T13:58:13.001Z</time></trkpt><trkpt lat="38.03567658609068" lon="13.523621381783213"><ele>146.33333333333334</ele><time>2026-04-28T13:58:15.001Z</time></trkpt><trkpt lat="38.03564980313691" lon="13.523732972213152"><ele>147.66666666666669</ele><time>2026-04-28T13:58:17.001Z</time></trkpt><trkpt lat="38.03561972381923" lon="13.523850948850512"><ele>149.0</ele><time>2026-04-28T13:58:20.001Z</time></trkpt><trkpt lat="38.03561076008996" lon="13.523934114081905"><ele>150.33333333333334</ele><time>2026-04-28T13:58:22.001Z</time></trkpt><trkpt lat="38.03557940627952" lon="13.52402306149467"><ele>151.66666666666666</ele><time>2026-04-28T13:58:25Z</time></trkpt><trkpt lat="38.03554771317335" lon="13.524127068352572"><ele>153.0</ele><time>2026-04-28T13:58:28Z</time></trkpt><trkpt lat="38.0355272102967" lon="13.524238564184538"><ele>153.0</ele><time>2026-04-28T13:58:31Z</time></trkpt><trkpt lat="38.035507361671236" lon="13.524314916075122"><ele>153.0</ele><time>2026-04-28T13:58:33Z</time></trkpt><trkpt lat="38.03548432207957" lon="13.524421733266518"><ele>153.0</ele><time>2026-04-28T13:58:36Z</time></trkpt><trkpt lat="38.03546315066203" lon="13.524497292601069"><ele>153.0</ele><time>2026-04-28T13:58:38Z</time></trkpt><trkpt lat="38.035422777420216" lon="13.524584560584744"><ele>153.0</ele><time>2026-04-28T13:58:41Z</time></trkpt><trkpt lat="38.03539518614099" lon="13.5246863976509"><ele>153.0</ele><time>2026-04-28T13:58:44Z</time></trkpt><trkpt lat="38.03537631962472" lon="13.524763741602978"><ele>153.0</ele><time>2026-04-28T13:58:45Z</time></trkpt><trkpt lat="38.03535536265744" lon="13.524849266048633"><ele>153.0</ele><time>2026-04-28T13:58:47Z</time></trkpt><trkpt lat="38.03532402965594" lon="13.524924936049562"><ele>153.0</ele><time>2026-04-28T13:58:49Z</time></trkpt><trkpt lat="38.03531017424763" lon="13.52501428060572"><ele>153.0</ele><time>2026-04-28T13:58:51Z</time></trkpt><trkpt lat="38.03529299965822" lon="13.52509733147395"><ele>153.0</ele><time>2026-04-28T13:58:53Z</time></trkpt><trkpt lat="38.03528591273793" lon="13.525180773206092"><ele>153.0</ele><time>2026-04-28T13:58:55Z</time></trkpt><trkpt lat="38.03524784972962" lon="13.525252490305583"><ele>153.0</ele><time>2026-04-28T13:58:57Z</time></trkpt><trkpt lat="38.03522393374622" lon="13.525327853551449"><ele>153.0</ele><time>2026-04-28T13:58:59Z</time></trkpt><trkpt lat="38.035192299177794" lon="13.525432734599583"><ele>153.0</ele><time>2026-04-28T13:59:03Z</time></trkpt><trkpt lat="38.03515550788047" lon="13.525505476587565"><ele>153.0</ele><time>2026-04-28T13:59:06Z</time></trkpt><trkpt lat="38.03513317240672" lon="13.525604086951885"><ele>153.0</ele><time>2026-04-28T13:59:09.001Z</time></trkpt><trkpt lat="38.03510776464462" lon="13.525693343582116"><ele>153.0</ele><time>2026-04-28T13:59:12.001Z</time></trkpt><trkpt lat="38.035082580409444" lon="13.525781414517576"><ele>153.0</ele><time>2026-04-28T13:59:15.001Z</time></trkpt><trkpt lat="38.03503206843141" lon="13.525868877718361"><ele>153.0</ele><time>2026-04-28T13:59:19.001Z</time></trkpt><trkpt lat="38.03499574243077" lon="13.525942535817112"><ele>153.0</ele><time>2026-04-28T13:59:21.001Z</time></trkpt><trkpt lat="38.03497202132815" lon="13.526049339462064"><ele>153.0</ele><time>2026-04-28T13:59:23.001Z</time></trkpt><trkpt lat="38.03501170368911" lon="13.52613665080982"><ele>153.0</ele><time>2026-04-28T13:59:26.001Z</time></trkpt><trkpt lat="38.03491798548659" lon="13.526241820551954"><ele>153.0</ele><time>2026-04-28T13:59:35.001Z</time></trkpt><trkpt lat="38.03485829802065" lon="13.52629359287705"><ele>153.0</ele><time>2026-04-28T13:59:38.001Z</time></trkpt><trkpt lat="38.03482176800431" lon="13.526385570931081"><ele>153.0</ele><time>2026-04-28T13:59:41.001Z</time></trkpt><trkpt lat="38.03478441086454" lon="13.526479496502498"><ele>154.0</ele><time>2026-04-28T13:59:44.001Z</time></trkpt><trkpt lat="38.03475442266094" lon="13.526562780632887"><ele>155.0</ele><time>2026-04-28T13:59:47.001Z</time></trkpt><trkpt lat="38.034690241890786" lon="13.526663095269964"><ele>156.0</ele><time>2026-04-28T13:59:50.001Z</time></trkpt><trkpt lat="38.03463073559219" lon="13.526762105852937"><ele>157.0</ele><time>2026-04-28T13:59:53.001Z</time></trkpt><trkpt lat="38.03456210401528" lon="13.526870970132954"><ele>158.0</ele><time>2026-04-28T13:59:57.001Z</time></trkpt><trkpt lat="38.03451600666617" lon="13.526955133478333"><ele>158.0</ele><time>2026-04-28T13:59:59.001Z</time></trkpt><trkpt lat="38.03447705706606" lon="13.527024208038847"><ele>158.0</ele><time>2026-04-28T14:00:01.001Z</time></trkpt><trkpt lat="38.03443294026455" lon="13.527116006399108"><ele>158.0</ele><time>2026-04-28T14:00:03.001Z</time></trkpt><trkpt lat="38.03440170965586" lon="13.527194914535384"><ele>158.0</ele><time>2026-04-28T14:00:05.001Z</time></trkpt><trkpt lat="38.03435823082986" lon="13.527286573617769"><ele>158.0</ele><time>2026-04-28T14:00:07.001Z</time></trkpt><trkpt lat="38.034311318137384" lon="13.527370885805848"><ele>158.0</ele><time>2026-04-28T14:00:09.001Z</time></trkpt><trkpt lat="38.034276805977996" lon="13.52744714999777"><ele>157.83333333333331</ele><time>2026-04-28T14:00:11.001Z</time></trkpt><trkpt lat="38.034234396145926" lon="13.527519874718797"><ele>157.66666666666666</ele><time>2026-04-28T14:00:13.001Z</time></trkpt><trkpt lat="38.034200509828956" lon="13.527591221073132"><ele>157.5</ele><time>2026-04-28T14:00:15.001Z</time></trkpt><trkpt lat="38.03415884553163" lon="13.527658111688776"><ele>157.33333333333334</ele><time>2026-04-28T14:00:17.001Z</time></trkpt><trkpt lat="38.03411655654421" lon="13.52773078609321"><ele>157.16666666666669</ele><time>2026-04-28T14:00:19.001Z</time></trkpt><trkpt lat="38.034057799519324" lon="13.527819122028205"><ele>157.0</ele><time>2026-04-28T14:00:22.001Z</time></trkpt><trkpt lat="38.03400748928099" lon="13.527907161454914"><ele>158.16666666666669</ele><time>2026-04-28T14:00:25.001Z</time></trkpt><trkpt lat="38.03396191780028" lon="13.52797951429698"><ele>159.33333333333334</ele><time>2026-04-28T14:00:28.001Z</time></trkpt><trkpt lat="38.03390291081773" lon="13.528056755133049"><ele>160.5</ele><time>2026-04-28T14:00:31.001Z</time></trkpt><trkpt lat="38.03384343265621" lon="13.528129080899184"><ele>161.66666666666666</ele><time>2026-04-28T14:00:34.001Z</time></trkpt><trkpt lat="38.03379380170663" lon="13.528220320445698"><ele>162.83333333333331</ele><time>2026-04-28T14:00:38.001Z</time></trkpt><trkpt lat="38.033750716293106" lon="13.528299579358432"><ele>164.0</ele><time>2026-04-28T14:00:41.001Z</time></trkpt><trkpt lat="38.03369841302592" lon="13.528363199577639"><ele>163.99999999999997</ele><time>2026-04-28T14:00:44Z</time></trkpt><trkpt lat="38.03364789775495" lon="13.528434226665446"><ele>164.0</ele><time>2026-04-28T14:00:47Z</time></trkpt><trkpt lat="38.03360220026712" lon="13.528500626645084"><ele>164.0</ele><time>2026-04-28T14:00:50Z</time></trkpt><trkpt lat="38.033554304334515" lon="13.52858121712283"><ele>164.0</ele><time>2026-04-28T14:00:53Z</time></trkpt><trkpt lat="38.033494701105944" lon="13.528649626080988"><ele>164.0</ele><time>2026-04-28T14:00:56Z</time></trkpt><trkpt lat="38.03344006376319" lon="13.528708602125404"><ele>163.99999999999997</ele><time>2026-04-28T14:00:59Z</time></trkpt><trkpt lat="38.03339334485838" lon="13.528770097624975"><ele>164.0</ele><time>2026-04-28T14:01:02Z</time></trkpt><trkpt lat="38.03334691213456" lon="13.5288315345073"><ele>165.14285714285714</ele><time>2026-04-28T14:01:05Z</time></trkpt><trkpt lat="38.03330197595965" lon="13.528893526693093"><ele>166.28571428571428</ele><time>2026-04-28T14:01:08Z</time></trkpt><trkpt lat="38.03325350424355" lon="13.528956039846333"><ele>167.42857142857144</ele><time>2026-04-28T14:01:11Z</time></trkpt><trkpt lat="38.033199903720856" lon="13.528999766957117"><ele>168.57142857142856</ele><time>2026-04-28T14:01:14Z</time></trkpt><trkpt lat="38.03315942722754" lon="13.5290719057531"><ele>169.71428571428572</ele><time>2026-04-28T14:01:17Z</time></trkpt><trkpt lat="38.033104051980786" lon="13.529130487968748"><ele>170.85714285714286</ele><time>2026-04-28T14:01:20Z</time></trkpt><trkpt lat="38.033059738573456" lon="13.529206929740402"><ele>172.0</ele><time>2026-04-28T14:01:23Z</time></trkpt><trkpt lat="38.0330171448897" lon="13.529270120385377"><ele>172.00000000000003</ele><time>2026-04-28T14:01:26Z</time></trkpt><trkpt lat="38.032970584798356" lon="13.529352326001094"><ele>172.0</ele><time>2026-04-28T14:01:29Z</time></trkpt><trkpt lat="38.032914554808265" lon="13.52942227811123"><ele>172.0</ele><time>2026-04-28T14:01:32Z</time></trkpt><trkpt lat="38.0328710377757" lon="13.529483264818028"><ele>172.0</ele><time>2026-04-28T14:01:35Z</time></trkpt><trkpt lat="38.032827283058516" lon="13.529558134171873"><ele>172.0</ele><time>2026-04-28T14:01:38Z</time></trkpt><trkpt lat="38.03276953677316" lon="13.529639258384261"><ele>172.00000000000003</ele><time>2026-04-28T14:01:41Z</time></trkpt><trkpt lat="38.03272594513353" lon="13.5297024079985"><ele>172.0</ele><time>2026-04-28T14:01:44Z</time></trkpt><trkpt lat="38.03266360418732" lon="13.529785318963969"><ele>171.83333333333334</ele><time>2026-04-28T14:01:47Z</time></trkpt><trkpt lat="38.03260309029318" lon="13.529864295729466"><ele>171.66666666666669</ele><time>2026-04-28T14:01:50Z</time></trkpt><trkpt lat="38.0325498750405" lon="13.52993879199526"><ele>171.5</ele><time>2026-04-28T14:01:53Z</time></trkpt><trkpt lat="38.0325147476595" lon="13.530037863980649"><ele>171.33333333333334</ele><time>2026-04-28T14:01:57Z</time></trkpt><trkpt lat="38.032476821463476" lon="13.530145118334532"><ele>171.16666666666666</ele><time>2026-04-28T14:02:00Z</time></trkpt><trkpt lat="38.03241481627945" lon="13.530239951465136"><ele>171.0</ele><time>2026-04-28T14:02:03Z</time></trkpt><trkpt lat="38.03236077239195" lon="13.530370908452694"><ele>169.4</ele><time>2026-04-28T14:02:05Z</time></trkpt><trkpt lat="38.0323498377493" lon="13.530461770093863"><ele>167.8</ele><time>2026-04-28T14:02:06Z</time></trkpt><trkpt lat="38.032347643100785" lon="13.530573957242934"><ele>166.20000000000002</ele><time>2026-04-28T14:02:07Z</time></trkpt><trkpt lat="38.03237576656832" lon="13.530709370340881"><ele>164.60000000000002</ele><time>2026-04-28T14:02:09Z</time></trkpt><trkpt lat="38.03246310933445" lon="13.530797304076911"><ele>163.0</ele><time>2026-04-28T14:02:11Z</time></trkpt><trkpt lat="38.032530768527536" lon="13.530888886776252"><ele>163.0</ele><time>2026-04-28T14:02:13.001Z</time></trkpt><trkpt lat="38.03259507859944" lon="13.530961611472025"><ele>163.0</ele><time>2026-04-28T14:02:15.001Z</time></trkpt><trkpt lat="38.0326879145949" lon="13.531042458619778"><ele>163.0</ele><time>2026-04-28T14:02:17.001Z</time></trkpt><trkpt lat="38.03273791282688" lon="13.531108269892718"><ele>163.0</ele><time>2026-04-28T14:02:19.001Z</time></trkpt><trkpt lat="38.03279623576633" lon="13.531163468482431"><ele>163.0</ele><time>2026-04-28T14:02:32.001Z</time></trkpt><trkpt lat="38.032763384744875" lon="13.531091934979326"><ele>163.0</ele><time>2026-04-28T14:02:38Z</time></trkpt><trkpt lat="38.03271716480432" lon="13.531037095664924"><ele>163.0</ele><time>2026-04-28T14:02:43Z</time></trkpt><trkpt lat="38.032756650935184" lon="13.531121913749299"><ele>163.0</ele><time>2026-04-28T14:03:04Z</time></trkpt><trkpt lat="38.032808739760995" lon="13.531196646732566"><ele>163.0</ele><time>2026-04-28T14:03:07Z</time></trkpt><trkpt lat="38.03286506015508" lon="13.531253868759638"><ele>163.0</ele><time>2026-04-28T14:03:09Z</time></trkpt><trkpt lat="38.03292966370008" lon="13.53131565194442"><ele>163.0</ele><time>2026-04-28T14:03:11Z</time></trkpt><trkpt lat="38.03300710989151" lon="13.531382917024423"><ele>163.0</ele><time>2026-04-28T14:03:13Z</time></trkpt><trkpt lat="38.033092149200634" lon="13.531454259549669"><ele>162.4</ele><time>2026-04-28T14:03:15Z</time></trkpt><trkpt lat="38.033188652402934" lon="13.531524500808215"><ele>161.8</ele><time>2026-04-28T14:03:17Z</time></trkpt><trkpt lat="38.03328775195875" lon="13.531596236764448"><ele>161.2</ele><time>2026-04-28T14:03:19Z</time></trkpt><trkpt lat="38.033346091308324" lon="13.531629404821176"><ele>160.6</ele><time>2026-04-28T14:03:20Z</time></trkpt><trkpt lat="38.03340003858515" lon="13.531671244240227"><ele>160.0</ele><time>2026-04-28T14:03:21Z</time></trkpt><trkpt lat="38.033503560507796" lon="13.531763200237082"><ele>160.0</ele><time>2026-04-28T14:03:23Z</time></trkpt><trkpt lat="38.0336050729049" lon="13.531848940484295"><ele>160.0</ele><time>2026-04-28T14:03:25Z</time></trkpt><trkpt lat="38.03370778325534" lon="13.53192566314352"><ele>160.0</ele><time>2026-04-28T14:03:27Z</time></trkpt><trkpt lat="38.033814736434" lon="13.5319959791433"><ele>160.0</ele><time>2026-04-28T14:03:29Z</time></trkpt><trkpt lat="38.03387110252436" lon="13.532035706917444"><ele>160.0</ele><time>2026-04-28T14:03:30Z</time></trkpt><trkpt lat="38.03392684321458" lon="13.532081090865747"><ele>159.14285714285714</ele><time>2026-04-28T14:03:31Z</time></trkpt><trkpt lat="38.033987130141576" lon="13.532129088361565"><ele>158.28571428571428</ele><time>2026-04-28T14:03:32Z</time></trkpt><trkpt lat="38.03404307256361" lon="13.532177686384278"><ele>157.42857142857144</ele><time>2026-04-28T14:03:33Z</time></trkpt><trkpt lat="38.03409800911638" lon="13.532222651289924"><ele>156.57142857142856</ele><time>2026-04-28T14:03:34Z</time></trkpt><trkpt lat="38.03414956213133" lon="13.53227806399404"><ele>155.71428571428572</ele><time>2026-04-28T14:03:35Z</time></trkpt><trkpt lat="38.034195918411534" lon="13.532336266314067"><ele>154.85714285714286</ele><time>2026-04-28T14:03:36Z</time></trkpt><trkpt lat="38.0342507342939" lon="13.532380172651726"><ele>154.0</ele><time>2026-04-28T14:03:37Z</time></trkpt><trkpt lat="38.03430733108375" lon="13.532425943332264"><ele>154.0</ele><time>2026-04-28T14:03:38Z</time></trkpt><trkpt lat="38.03436311107291" lon="13.532482525065053"><ele>154.0</ele><time>2026-04-28T14:03:39Z</time></trkpt><trkpt lat="38.03442205353591" lon="13.53252821865669"><ele>154.0</ele><time>2026-04-28T14:03:40Z</time></trkpt><trkpt lat="38.03447924012314" lon="13.532578462412665"><ele>154.0</ele><time>2026-04-28T14:03:41Z</time></trkpt><trkpt lat="38.03453803792155" lon="13.532630612863295"><ele>154.0</ele><time>2026-04-28T14:03:42Z</time></trkpt><trkpt lat="38.03459765175392" lon="13.532678708215846"><ele>154.0</ele><time>2026-04-28T14:03:43Z</time></trkpt><trkpt lat="38.034667600369936" lon="13.532708438956776"><ele>154.0</ele><time>2026-04-28T14:03:44Z</time></trkpt><trkpt lat="38.03473176001156" lon="13.532754452812958"><ele>154.0</ele><time>2026-04-28T14:03:45Z</time></trkpt><trkpt lat="38.034800203094505" lon="13.53280345938672"><ele>154.0</ele><time>2026-04-28T14:03:46Z</time></trkpt><trkpt lat="38.03487392166841" lon="13.532851062324093"><ele>154.0</ele><time>2026-04-28T14:03:47Z</time></trkpt><trkpt lat="38.03495537860921" lon="13.532898914184214"><ele>154.0</ele><time>2026-04-28T14:03:48Z</time></trkpt><trkpt lat="38.035041161565324" lon="13.53294457135597"><ele>154.0</ele><time>2026-04-28T14:03:49Z</time></trkpt><trkpt lat="38.03512909782403" lon="13.533012800822153"><ele>154.0</ele><time>2026-04-28T14:03:50Z</time></trkpt><trkpt lat="38.03525352973392" lon="13.533059039307023"><ele>152.2</ele><time>2026-04-28T14:03:51Z</time></trkpt><trkpt lat="38.03530896741602" lon="13.533104488807131"><ele>150.4</ele><time>2026-04-28T14:03:52Z</time></trkpt><trkpt lat="38.03539480989429" lon="13.53313742935662"><ele>148.6</ele><time>2026-04-28T14:03:53Z</time></trkpt><trkpt lat="38.03548649746121" lon="13.533209073147214"><ele>146.8</ele><time>2026-04-28T14:03:54Z</time></trkpt><trkpt lat="38.035573427814725" lon="13.533262909517616"><ele>145.0</ele><time>2026-04-28T14:03:55Z</time></trkpt><trkpt lat="38.035661395755014" lon="13.533300148772506"><ele>145.0</ele><time>2026-04-28T14:03:56Z</time></trkpt><trkpt lat="38.03574917777692" lon="13.533376854052165"><ele>145.0</ele><time>2026-04-28T14:03:57Z</time></trkpt><trkpt lat="38.03583359585628" lon="13.533408997842166"><ele>145.0</ele><time>2026-04-28T14:03:58Z</time></trkpt><trkpt lat="38.03592461768592" lon="13.533438191792634"><ele>145.0</ele><time>2026-04-28T14:03:59Z</time></trkpt><trkpt lat="38.03601586389943" lon="13.533476754442775"><ele>145.0</ele><time>2026-04-28T14:04:00Z</time></trkpt><trkpt lat="38.0361113292067" lon="13.533522926351326"><ele>144.0</ele><time>2026-04-28T14:04:01Z</time></trkpt><trkpt lat="38.03620425294132" lon="13.533580816479915"><ele>143.0</ele><time>2026-04-28T14:04:02Z</time></trkpt><trkpt lat="38.036296106023826" lon="13.533642111790813"><ele>142.0</ele><time>2026-04-28T14:04:03Z</time></trkpt><trkpt lat="38.03639805999238" lon="13.533709943931953"><ele>141.0</ele><time>2026-04-28T14:04:04Z</time></trkpt><trkpt lat="38.036496133703324" lon="13.533777796514741"><ele>140.0</ele><time>2026-04-28T14:04:05Z</time></trkpt><trkpt lat="38.036597264365945" lon="13.533857933680888"><ele>137.6</ele><time>2026-04-28T14:04:06Z</time></trkpt><trkpt lat="38.03669027340868" lon="13.533948719395532"><ele>135.2</ele><time>2026-04-28T14:04:07Z</time></trkpt><trkpt lat="38.03679101730183" lon="13.534046425862998"><ele>132.8</ele><time>2026-04-28T14:04:08Z</time></trkpt><trkpt lat="38.03685013032537" lon="13.534138505355628"><ele>130.4</ele><time>2026-04-28T14:04:09Z</time></trkpt><trkpt lat="38.03694205980535" lon="13.534210289087333"><ele>128.0</ele><time>2026-04-28T14:04:10Z</time></trkpt><trkpt lat="38.03702004866884" lon="13.534279227867412"><ele>127.99999999999999</ele><time>2026-04-28T14:04:11Z</time></trkpt><trkpt lat="38.03707682963206" lon="13.534350044774921"><ele>128.0</ele><time>2026-04-28T14:04:12Z</time></trkpt><trkpt lat="38.03712284712794" lon="13.534406705066106"><ele>128.0</ele><time>2026-04-28T14:04:13Z</time></trkpt><trkpt lat="38.03721095469135" lon="13.534464219958902"><ele>128.0</ele><time>2026-04-28T14:04:15Z</time></trkpt><trkpt lat="38.03723001610009" lon="13.534591093049691"><ele>127.99999999999999</ele><time>2026-04-28T14:04:17Z</time></trkpt><trkpt lat="38.03718290009246" lon="13.534695498261867"><ele>128.0</ele><time>2026-04-28T14:04:19Z</time></trkpt><trkpt lat="38.0371296010553" lon="13.534760778348058"><ele>126.16666666666666</ele><time>2026-04-28T14:04:23.001Z</time></trkpt><trkpt lat="38.037082214121995" lon="13.534814469896306"><ele>124.33333333333333</ele><time>2026-04-28T14:04:28.001Z</time></trkpt><trkpt lat="38.03709366122445" lon="13.534905015253186"><ele>122.5</ele><time>2026-04-28T14:04:39Z</time></trkpt><trkpt lat="38.03705329508357" lon="13.535006204908163"><ele>120.66666666666666</ele><time>2026-04-28T14:04:50Z</time></trkpt><trkpt lat="38.03704466705563" lon="13.535100181483473"><ele>118.83333333333333</ele><time>2026-04-28T14:04:51Z</time></trkpt><trkpt lat="38.03703190960458" lon="13.535197766724082"><ele>117.0</ele><time>2026-04-28T14:04:52Z</time></trkpt><trkpt lat="38.03700992381243" lon="13.535391620397899"><ele>113.39999999999999</ele><time>2026-04-28T14:04:54Z</time></trkpt><trkpt lat="38.03702309277936" lon="13.535530302197328"><ele>109.79999999999998</ele><time>2026-04-28T14:04:55Z</time></trkpt><trkpt lat="38.037021931315884" lon="13.535665995887825"><ele>106.2</ele><time>2026-04-28T14:04:56Z</time></trkpt><trkpt lat="38.03702727668498" lon="13.535779479199928"><ele>102.6</ele><time>2026-04-28T14:04:57Z</time></trkpt><trkpt lat="38.03702983668939" lon="13.535895379065797"><ele>99.0</ele><time>2026-04-28T14:04:58Z</time></trkpt><trkpt lat="38.03703276496145" lon="13.536009355148119"><ele>99.0</ele><time>2026-04-28T14:04:59Z</time></trkpt><trkpt lat="38.03703669350627" lon="13.536116361350341"><ele>99.0</ele><time>2026-04-28T14:05:00Z</time></trkpt><trkpt lat="38.03704119001861" lon="13.536212486493863"><ele>99.0</ele><time>2026-04-28T14:05:01Z</time></trkpt><trkpt lat="38.03705204982443" lon="13.536302011667997"><ele>99.0</ele><time>2026-04-28T14:05:02Z</time></trkpt><trkpt lat="38.03705577541646" lon="13.536457588631484"><ele>99.0</ele><time>2026-04-28T14:05:04Z</time></trkpt><trkpt lat="38.036942597350205" lon="13.536572882089633"><ele>97.6</ele><time>2026-04-28T14:05:06Z</time></trkpt><trkpt lat="38.03686803672785" lon="13.53670529019394"><ele>96.2</ele><time>2026-04-28T14:05:09Z</time></trkpt><trkpt lat="38.036903865934214" lon="13.536832772143104"><ele>94.8</ele><time>2026-04-28T14:05:10Z</time></trkpt><trkpt lat="38.036914300788915" lon="13.536915752145674"><ele>93.39999999999999</ele><time>2026-04-28T14:05:11Z</time></trkpt><trkpt lat="38.036942014553226" lon="13.537002410634928"><ele>92.0</ele><time>2026-04-28T14:05:12Z</time></trkpt><trkpt lat="38.03698723362968" lon="13.537093968538734"><ele>92.0</ele><time>2026-04-28T14:05:13Z</time></trkpt><trkpt lat="38.037021351171234" lon="13.537184583201702"><ele>92.0</ele><time>2026-04-28T14:05:14Z</time></trkpt><trkpt lat="38.037056543356556" lon="13.537279538698968"><ele>92.0</ele><time>2026-04-28T14:05:15Z</time></trkpt><trkpt lat="38.037090503240336" lon="13.537383382028953"><ele>92.0</ele><time>2026-04-28T14:05:16Z</time></trkpt><trkpt lat="38.03712112008543" lon="13.537490395493048"><ele>92.0</ele><time>2026-04-28T14:05:17Z</time></trkpt><trkpt lat="38.037149575621434" lon="13.53759214423287"><ele>92.0</ele><time>2026-04-28T14:05:18Z</time></trkpt><trkpt lat="38.03719803118057" lon="13.537706839253056"><ele>92.0</ele><time>2026-04-28T14:05:19Z</time></trkpt><trkpt lat="38.03725196241194" lon="13.537790080487097"><ele>92.0</ele><time>2026-04-28T14:05:20Z</time></trkpt><trkpt lat="38.03731507303354" lon="13.537873788368591"><ele>92.0</ele><time>2026-04-28T14:05:21Z</time></trkpt><trkpt lat="38.03736192241786" lon="13.537967252374385"><ele>92.0</ele><time>2026-04-28T14:05:22Z</time></trkpt><trkpt lat="38.037422930500604" lon="13.53804266758035"><ele>92.0</ele><time>2026-04-28T14:05:23Z</time></trkpt><trkpt lat="38.03747714581019" lon="13.538123000331533"><ele>92.0</ele><time>2026-04-28T14:05:24Z</time></trkpt><trkpt lat="38.03752716356284" lon="13.538205583633026"><ele>88.6</ele><time>2026-04-28T14:05:25Z</time></trkpt><trkpt lat="38.037582785399124" lon="13.538296543304389"><ele>85.19999999999999</ele><time>2026-04-28T14:05:26Z</time></trkpt><trkpt lat="38.037639513582285" lon="13.538384396623895"><ele>81.8</ele><time>2026-04-28T14:05:27Z</time></trkpt><trkpt lat="38.03769728057912" lon="13.538471621343701"><ele>78.4</ele><time>2026-04-28T14:05:28Z</time></trkpt><trkpt lat="38.03775100704634" lon="13.538573814820223"><ele>75.0</ele><time>2026-04-28T14:05:29Z</time></trkpt><trkpt lat="38.037802690002" lon="13.538666147642024"><ele>75.4</ele><time>2026-04-28T14:05:30Z</time></trkpt><trkpt lat="38.03785344769627" lon="13.538763774132155"><ele>75.8</ele><time>2026-04-28T14:05:31Z</time></trkpt><trkpt lat="38.03790603911015" lon="13.5388634633751"><ele>76.2</ele><time>2026-04-28T14:05:32Z</time></trkpt><trkpt lat="38.03795581138438" lon="13.538969531261984"><ele>76.6</ele><time>2026-04-28T14:05:33Z</time></trkpt><trkpt lat="38.038005804734205" lon="13.53907507541997"><ele>77.0</ele><time>2026-04-28T14:05:34Z</time></trkpt><trkpt lat="38.0380604004224" lon="13.539176514055923"><ele>77.0</ele><time>2026-04-28T14:05:35Z</time></trkpt><trkpt lat="38.038117821272124" lon="13.539285247370678"><ele>77.0</ele><time>2026-04-28T14:05:36Z</time></trkpt><trkpt lat="38.03816891025491" lon="13.539382016739012"><ele>77.0</ele><time>2026-04-28T14:05:37Z</time></trkpt><trkpt lat="38.03822118207683" lon="13.539485391665805"><ele>77.0</ele><time>2026-04-28T14:05:38Z</time></trkpt><trkpt lat="38.03826913373428" lon="13.53959135676461"><ele>77.0</ele><time>2026-04-28T14:05:39Z</time></trkpt><trkpt lat="38.03830749819435" lon="13.539702262549168"><ele>73.0</ele><time>2026-04-28T14:05:40Z</time></trkpt><trkpt lat="38.03836519469264" lon="13.539795849166994"><ele>69.0</ele><time>2026-04-28T14:05:41Z</time></trkpt><trkpt lat="38.03841983760978" lon="13.539913640239572"><ele>65.0</ele><time>2026-04-28T14:05:42Z</time></trkpt><trkpt lat="38.038488833351735" lon="13.540031307174099"><ele>61.0</ele><time>2026-04-28T14:05:43Z</time></trkpt><trkpt lat="38.03855268918746" lon="13.540151106060907"><ele>57.0</ele><time>2026-04-28T14:05:44Z</time></trkpt><trkpt lat="38.038610268979504" lon="13.540272040804878"><ele>56.400000000000006</ele><time>2026-04-28T14:05:45Z</time></trkpt><trkpt lat="38.03865529101675" lon="13.540398816933251"><ele>55.800000000000004</ele><time>2026-04-28T14:05:46Z</time></trkpt><trkpt lat="38.03867740470079" lon="13.540525936749544"><ele>55.2</ele><time>2026-04-28T14:05:47Z</time></trkpt><trkpt lat="38.038693161421634" lon="13.540622101227532"><ele>54.6</ele><time>2026-04-28T14:05:48Z</time></trkpt><trkpt lat="38.03868705622101" lon="13.540728255608277"><ele>54.0</ele><time>2026-04-28T14:05:50Z</time></trkpt><trkpt lat="38.038767393290506" lon="13.540813297721716"><ele>54.0</ele><time>2026-04-28T14:05:52Z</time></trkpt><trkpt lat="38.038817851500774" lon="13.540901930315163"><ele>54.0</ele><time>2026-04-28T14:05:57Z</time></trkpt><trkpt lat="38.03886696350046" lon="13.540963759312316"><ele>54.0</ele><time>2026-04-28T14:06:02Z</time></trkpt><trkpt lat="38.03892117584687" lon="13.54102069708385"><ele>54.0</ele><time>2026-04-28T14:06:06Z</time></trkpt><trkpt lat="38.038992738421136" lon="13.541095641132157"><ele>54.0</ele><time>2026-04-28T14:06:08Z</time></trkpt><trkpt lat="38.03904998219669" lon="13.541209677027663"><ele>54.0</ele><time>2026-04-28T14:06:10Z</time></trkpt><trkpt lat="38.039073523505955" lon="13.541299714843289"><ele>52.0</ele><time>2026-04-28T14:06:11Z</time></trkpt><trkpt lat="38.03908845405064" lon="13.541403869081277"><ele>50.00000000000001</ele><time>2026-04-28T14:06:12Z</time></trkpt><trkpt lat="38.03911775056349" lon="13.541477379333566"><ele>48.0</ele><time>2026-04-28T14:06:13Z</time></trkpt><trkpt lat="38.03912224100033" lon="13.541603076797374"><ele>46.0</ele><time>2026-04-28T14:06:15Z</time></trkpt><trkpt lat="38.03912372912149" lon="13.541763243077382"><ele>44.0</ele><time>2026-04-28T14:06:17Z</time></trkpt><trkpt lat="38.039122219020754" lon="13.54186736827804"><ele>44.0</ele><time>2026-04-28T14:06:18Z</time></trkpt><trkpt lat="38.03912781258417" lon="13.5419765372413"><ele>44.0</ele><time>2026-04-28T14:06:19Z</time></trkpt><trkpt lat="38.03912607910577" lon="13.542078630498448"><ele>44.0</ele><time>2026-04-28T14:06:20Z</time></trkpt><trkpt lat="38.039140387441634" lon="13.542179418135506"><ele>44.0</ele><time>2026-04-28T14:06:21Z</time></trkpt><trkpt lat="38.039158733292695" lon="13.54227647746578"><ele>44.0</ele><time>2026-04-28T14:06:22Z</time></trkpt><trkpt lat="38.03916680611095" lon="13.542375633925035"><ele>44.0</ele><time>2026-04-28T14:06:24Z</time></trkpt><trkpt lat="38.03922158696783" lon="13.542440081490215"><ele>41.0</ele><time>2026-04-28T14:06:28Z</time></trkpt><trkpt lat="38.039299331287744" lon="13.542465699193801"><ele>38.0</ele><time>2026-04-28T14:06:31Z</time></trkpt><trkpt lat="38.03935989686746" lon="13.54252037687555"><ele>35.0</ele><time>2026-04-28T14:06:36Z</time></trkpt><trkpt lat="38.039390641786206" lon="13.542594194588721"><ele>32.0</ele><time>2026-04-28T14:06:40Z</time></trkpt><trkpt lat="38.03938417107287" lon="13.54270244850592"><ele>29.0</ele><time>2026-04-28T14:06:43Z</time></trkpt><trkpt lat="38.03938437100698" lon="13.542798839715157"><ele>26.0</ele><time>2026-04-28T14:06:46Z</time></trkpt><trkpt lat="38.03937524969836" lon="13.542883779445198"><ele>23.0</ele><time>2026-04-28T14:06:49Z</time></trkpt><trkpt lat="38.03937703200446" lon="13.542971839165073"><ele>23.0</ele><time>2026-04-28T14:06:53Z</time></trkpt><trkpt lat="38.039385834077684" lon="13.543062566961845"><ele>23.0</ele><time>2026-04-28T14:06:57Z</time></trkpt><trkpt lat="38.03939007807179" lon="13.543177846890027"><ele>23.0</ele><time>2026-04-28T14:07:01Z</time></trkpt><trkpt lat="38.03940100957401" lon="13.543257786073218"><ele>23.0</ele><time>2026-04-28T14:07:04Z</time></trkpt><trkpt lat="38.03940577855079" lon="13.543337939539148"><ele>23.0</ele><time>2026-04-28T14:07:07Z</time></trkpt><trkpt lat="38.03941987156516" lon="13.543439651959394"><ele>23.0</ele><time>2026-04-28T14:07:11Z</time></trkpt><trkpt lat="38.039437098007156" lon="13.543529219951733"><ele>23.0</ele><time>2026-04-28T14:07:15Z</time></trkpt><trkpt lat="38.03945885363627" lon="13.543619764561464"><ele>23.0</ele><time>2026-04-28T14:07:19Z</time></trkpt><trkpt lat="38.039472566796846" lon="13.54370613759817"><ele>23.0</ele><time>2026-04-28T14:07:23Z</time></trkpt><trkpt lat="38.03947930124239" lon="13.543800384753112"><ele>23.0</ele><time>2026-04-28T14:07:27Z</time></trkpt><trkpt lat="38.03948305210465" lon="13.543881502469159"><ele>23.0</ele><time>2026-04-28T14:07:31Z</time></trkpt><trkpt lat="38.03950034406809" lon="13.543976208541375"><ele>23.0</ele><time>2026-04-28T14:07:38Z</time></trkpt><trkpt lat="38.03948426450523" lon="13.544069391519484"><ele>23.0</ele><time>2026-04-28T14:07:43Z</time></trkpt><trkpt lat="38.03947591546431" lon="13.5441589494389"><ele>23.0</ele><time>2026-04-28T14:07:48Z</time></trkpt><trkpt lat="38.03945251642818" lon="13.544248894538061"><ele>24.285714285714285</ele><time>2026-04-28T14:07:53Z</time></trkpt><trkpt lat="38.0394326611282" lon="13.544343941672377"><ele>25.57142857142857</ele><time>2026-04-28T14:07:58Z</time></trkpt><trkpt lat="38.03941341775817" lon="13.544433747623478"><ele>26.857142857142854</ele><time>2026-04-28T14:08:04Z</time></trkpt><trkpt lat="38.03940324530832" lon="13.5445284064431"><ele>28.142857142857142</ele><time>2026-04-28T14:08:10Z</time></trkpt><trkpt lat="38.03938764459044" lon="13.544623771749391"><ele>29.428571428571423</ele><time>2026-04-28T14:08:12Z</time></trkpt><trkpt lat="38.03935896014939" lon="13.544699854913045"><ele>30.71428571428571</ele><time>2026-04-28T14:08:22Z</time></trkpt><trkpt lat="38.039330290910584" lon="13.544789803492156"><ele>32.0</ele><time>2026-04-28T14:08:28Z</time></trkpt><trkpt lat="38.03929413181079" lon="13.544866940664805"><ele>34.857142857142854</ele><time>2026-04-28T14:08:33Z</time></trkpt><trkpt lat="38.039280230604845" lon="13.544952381608935"><ele>37.71428571428571</ele><time>2026-04-28T14:08:39Z</time></trkpt><trkpt lat="38.03927757338106" lon="13.545034121693805"><ele>40.57142857142857</ele><time>2026-04-28T14:08:43Z</time></trkpt><trkpt lat="38.03927650727743" lon="13.545129035994284"><ele>43.42857142857143</ele><time>2026-04-28T14:08:48Z</time></trkpt><trkpt lat="38.03927743660762" lon="13.545226618823099"><ele>46.28571428571429</ele><time>2026-04-28T14:08:53Z</time></trkpt><trkpt lat="38.0392875997146" lon="13.545314724171295"><ele>49.14285714285714</ele><time>2026-04-28T14:08:58Z</time></trkpt><trkpt lat="38.039329733670755" lon="13.545378766907138"><ele>52.0</ele><time>2026-04-28T14:09:02Z</time></trkpt><trkpt lat="38.03937667332318" lon="13.545437120058407"><ele>56.14285714285714</ele><time>2026-04-28T14:09:06Z</time></trkpt><trkpt lat="38.039433492187406" lon="13.54548849260347"><ele>60.28571428571429</ele><time>2026-04-28T14:09:10Z</time></trkpt><trkpt lat="38.03948842588998" lon="13.545541849564676"><ele>64.42857142857143</ele><time>2026-04-28T14:09:14Z</time></trkpt><trkpt lat="38.03954210606357" lon="13.54559369164895"><ele>68.57142857142857</ele><time>2026-04-28T14:09:18Z</time></trkpt><trkpt lat="38.03960110019671" lon="13.545642448347559"><ele>72.71428571428571</ele><time>2026-04-28T14:09:22Z</time></trkpt><trkpt lat="38.0396628349909" lon="13.54569674396989"><ele>76.85714285714286</ele><time>2026-04-28T14:09:26Z</time></trkpt><trkpt lat="38.039711707475696" lon="13.545755719324534"><ele>81.0</ele><time>2026-04-28T14:09:30Z</time></trkpt><trkpt lat="38.039762746465875" lon="13.545805443388542"><ele>81.0</ele><time>2026-04-28T14:09:34Z</time></trkpt><trkpt lat="38.039820056644004" lon="13.545862306678933"><ele>81.0</ele><time>2026-04-28T14:09:38Z</time></trkpt><trkpt lat="38.03987782022344" lon="13.545928793928914"><ele>81.0</ele><time>2026-04-28T14:09:42Z</time></trkpt><trkpt lat="38.03993264412558" lon="13.54597177988732"><ele>81.0</ele><time>2026-04-28T14:09:45Z</time></trkpt><trkpt lat="38.039990154822846" lon="13.546014786031375"><ele>81.0</ele><time>2026-04-28T14:09:48Z</time></trkpt><trkpt lat="38.04004829973034" lon="13.546055486700151"><ele>81.0</ele><time>2026-04-28T14:09:51Z</time></trkpt><trkpt lat="38.04010473912827" lon="13.546100196823888"><ele>81.0</ele><time>2026-04-28T14:09:54Z</time></trkpt><trkpt lat="38.040170226961806" lon="13.546156613458844"><ele>79.85714285714286</ele><time>2026-04-28T14:09:58Z</time></trkpt><trkpt lat="38.04023922138214" lon="13.546203026733801"><ele>78.71428571428571</ele><time>2026-04-28T14:10:02Z</time></trkpt><trkpt lat="38.040309314737364" lon="13.546258841787468"><ele>77.57142857142857</ele><time>2026-04-28T14:10:06Z</time></trkpt><trkpt lat="38.040371546692256" lon="13.546299336010277"><ele>76.42857142857143</ele><time>2026-04-28T14:10:09Z</time></trkpt><trkpt lat="38.0404467512856" lon="13.54632548249222"><ele>75.28571428571429</ele><time>2026-04-28T14:10:12Z</time></trkpt><trkpt lat="38.040508868861025" lon="13.54629393365958"><ele>74.14285714285714</ele><time>2026-04-28T14:10:15Z</time></trkpt><trkpt lat="38.04056883871924" lon="13.54632976367844"><ele>73.0</ele><time>2026-04-28T14:10:18Z</time></trkpt><trkpt lat="38.040641224876296" lon="13.546315596661596"><ele>76.83333333333333</ele><time>2026-04-28T14:10:22Z</time></trkpt><trkpt lat="38.04072641140228" lon="13.546303877067407"><ele>80.66666666666666</ele><time>2026-04-28T14:10:24Z</time></trkpt><trkpt lat="38.04078359007486" lon="13.546364843530654"><ele>84.5</ele><time>2026-04-28T14:10:26Z</time></trkpt><trkpt lat="38.04085638480354" lon="13.546418579027286"><ele>88.33333333333333</ele><time>2026-04-28T14:10:28Z</time></trkpt><trkpt lat="38.04090638444216" lon="13.546501685787762"><ele>92.16666666666667</ele><time>2026-04-28T14:10:31Z</time></trkpt><trkpt lat="38.04094459340104" lon="13.54662428902567"><ele>96.0</ele><time>2026-04-28T14:10:33Z</time></trkpt><trkpt lat="38.04099581821243" lon="13.546673841904168"><ele>96.5</ele><time>2026-04-28T14:10:35Z</time></trkpt><trkpt lat="38.041051278520314" lon="13.546729550415693"><ele>97.0</ele><time>2026-04-28T14:10:37Z</time></trkpt><trkpt lat="38.04102561998753" lon="13.546843488475426"><ele>97.5</ele><time>2026-04-28T14:10:46.001Z</time></trkpt><trkpt lat="38.04100763315352" lon="13.546931045004323"><ele>98.0</ele><time>2026-04-28T14:10:50Z</time></trkpt><trkpt lat="38.04095282631302" lon="13.547046179407635"><ele>98.5</ele><time>2026-04-28T14:10:55Z</time></trkpt><trkpt lat="38.04088825452115" lon="13.547107895747688"><ele>99.0</ele><time>2026-04-28T14:10:57Z</time></trkpt><trkpt lat="38.04085019733292" lon="13.547216113949716"><ele>98.83333333333333</ele><time>2026-04-28T14:10:59Z</time></trkpt><trkpt lat="38.040806453420586" lon="13.547310355235206"><ele>98.66666666666666</ele><time>2026-04-28T14:11:01Z</time></trkpt><trkpt lat="38.040758241441736" lon="13.547378653405069"><ele>98.5</ele><time>2026-04-28T14:11:03Z</time></trkpt><trkpt lat="38.04074089907938" lon="13.547472420933538"><ele>98.33333333333333</ele><time>2026-04-28T14:11:06Z</time></trkpt><trkpt lat="38.04063974360768" lon="13.547568730708706"><ele>98.16666666666666</ele><time>2026-04-28T14:11:08Z</time></trkpt><trkpt lat="38.04062054899701" lon="13.547656590612153"><ele>98.0</ele><time>2026-04-28T14:11:10Z</time></trkpt><trkpt lat="38.040573426010475" lon="13.547724925226163"><ele>97.99999999999999</ele><time>2026-04-28T14:11:12Z</time></trkpt><trkpt lat="38.04052877571613" lon="13.54782340135811"><ele>98.0</ele><time>2026-04-28T14:11:14Z</time></trkpt><trkpt lat="38.040488992287344" lon="13.547900917730162"><ele>98.0</ele><time>2026-04-28T14:11:17Z</time></trkpt><trkpt lat="38.040445961924135" lon="13.547966365944024"><ele>98.0</ele><time>2026-04-28T14:11:19Z</time></trkpt><trkpt lat="38.04038202355801" lon="13.54806512461864"><ele>97.99999999999999</ele><time>2026-04-28T14:11:22Z</time></trkpt><trkpt lat="38.04038678214976" lon="13.548174952115643"><ele>98.0</ele><time>2026-04-28T14:11:24Z</time></trkpt><trkpt lat="38.04035427940924" lon="13.548249315358778"><ele>97.16666666666666</ele><time>2026-04-28T14:11:26Z</time></trkpt><trkpt lat="38.04033931603333" lon="13.548339678647444"><ele>96.33333333333333</ele><time>2026-04-28T14:11:29Z</time></trkpt><trkpt lat="38.04038596927908" lon="13.548415278721064"><ele>95.5</ele><time>2026-04-28T14:11:33Z</time></trkpt><trkpt lat="38.04044738143261" lon="13.548499660534736"><ele>94.66666666666666</ele><time>2026-04-28T14:11:36Z</time></trkpt><trkpt lat="38.04051283776127" lon="13.548539630522715"><ele>93.83333333333333</ele><time>2026-04-28T14:11:38Z</time></trkpt><trkpt lat="38.04059151136695" lon="13.548588680245334"><ele>93.0</ele><time>2026-04-28T14:11:40Z</time></trkpt><trkpt lat="38.040673724757276" lon="13.54864250079972"><ele>93.0</ele><time>2026-04-28T14:11:42Z</time></trkpt><trkpt lat="38.04076103338636" lon="13.548701988924126"><ele>93.0</ele><time>2026-04-28T14:11:44Z</time></trkpt><trkpt lat="38.04086014889519" lon="13.54875124168596"><ele>93.0</ele><time>2026-04-28T14:11:46Z</time></trkpt><trkpt lat="38.04094713152918" lon="13.548798726686334"><ele>93.0</ele><time>2026-04-28T14:11:48Z</time></trkpt><trkpt lat="38.04103890917111" lon="13.548859995335947"><ele>93.0</ele><time>2026-04-28T14:11:50Z</time></trkpt><trkpt lat="38.041126021204384" lon="13.54893007566501"><ele>92.0</ele><time>2026-04-28T14:11:52Z</time></trkpt><trkpt lat="38.041233267770274" lon="13.548965932098767"><ele>91.0</ele><time>2026-04-28T14:11:54Z</time></trkpt><trkpt lat="38.04131649912073" lon="13.549005678604665"><ele>90.0</ele><time>2026-04-28T14:11:56Z</time></trkpt><trkpt lat="38.04139993360693" lon="13.549067264608366"><ele>89.0</ele><time>2026-04-28T14:11:58Z</time></trkpt><trkpt lat="38.04149628162848" lon="13.549106348274293"><ele>88.0</ele><time>2026-04-28T14:12:00Z</time></trkpt><trkpt lat="38.04156939150616" lon="13.54922459450738"><ele>88.60000000000001</ele><time>2026-04-28T14:12:02Z</time></trkpt><trkpt lat="38.04164638758948" lon="13.54933784761634"><ele>89.2</ele><time>2026-04-28T14:12:04Z</time></trkpt><trkpt lat="38.04171527415582" lon="13.549446276785055"><ele>89.8</ele><time>2026-04-28T14:12:06Z</time></trkpt><trkpt lat="38.04178898947928" lon="13.549547825369707"><ele>90.4</ele><time>2026-04-28T14:12:08Z</time></trkpt><trkpt lat="38.04185402497789" lon="13.549650365848594"><ele>91.0</ele><time>2026-04-28T14:12:10Z</time></trkpt><trkpt lat="38.04176933216209" lon="13.549924226015358"><ele>89.8</ele><time>2026-04-28T14:12:12Z</time></trkpt><trkpt lat="38.04181140368437" lon="13.549987620006334"><ele>88.6</ele><time>2026-04-28T14:12:13Z</time></trkpt><trkpt lat="38.04186816462587" lon="13.550073148192459"><ele>87.4</ele><time>2026-04-28T14:12:15Z</time></trkpt><trkpt lat="38.041931882801485" lon="13.55016862531706"><ele>86.2</ele><time>2026-04-28T14:12:17Z</time></trkpt><trkpt lat="38.041994895579094" lon="13.550262350197583"><ele>85.0</ele><time>2026-04-28T14:12:19Z</time></trkpt><trkpt lat="38.0420621364214" lon="13.550362363890539"><ele>84.66666666666666</ele><time>2026-04-28T14:12:21Z</time></trkpt><trkpt lat="38.04212150956395" lon="13.550449059638003"><ele>84.33333333333333</ele><time>2026-04-28T14:12:23Z</time></trkpt><trkpt lat="38.04219110989331" lon="13.550545696992629"><ele>84.0</ele><time>2026-04-28T14:12:25Z</time></trkpt><trkpt lat="38.042251997586234" lon="13.550626089114735"><ele>83.66666666666667</ele><time>2026-04-28T14:12:27Z</time></trkpt><trkpt lat="38.042318708278664" lon="13.55071416900812"><ele>83.33333333333334</ele><time>2026-04-28T14:12:29Z</time></trkpt><trkpt lat="38.04234997143668" lon="13.55078372876502"><ele>83.0</ele><time>2026-04-28T14:12:31Z</time></trkpt><trkpt lat="38.04238685488635" lon="13.550902803301321"><ele>83.0</ele><time>2026-04-28T14:12:34Z</time></trkpt><trkpt lat="38.04244243089067" lon="13.550984080831752"><ele>83.0</ele><time>2026-04-28T14:12:35Z</time></trkpt><trkpt lat="38.04249738868026" lon="13.551081451067862"><ele>83.0</ele><time>2026-04-28T14:12:37Z</time></trkpt><trkpt lat="38.04255747402598" lon="13.551187905814148"><ele>83.0</ele><time>2026-04-28T14:12:39Z</time></trkpt><trkpt lat="38.042609042523566" lon="13.551279271048141"><ele>83.0</ele><time>2026-04-28T14:12:41Z</time></trkpt><trkpt lat="38.04282429732718" lon="13.551161748368585"><ele>83.2</ele><time>2026-04-28T14:12:42Z</time></trkpt><trkpt lat="38.04287759279423" lon="13.551243490702268"><ele>83.4</ele><time>2026-04-28T14:12:44Z</time></trkpt><trkpt lat="38.04294080177742" lon="13.551329244974061"><ele>83.60000000000001</ele><time>2026-04-28T14:12:46Z</time></trkpt><trkpt lat="38.04300219210265" lon="13.551429247934184"><ele>83.80000000000001</ele><time>2026-04-28T14:12:48Z</time></trkpt><trkpt lat="38.043070487453086" lon="13.551531864529766"><ele>84.0</ele><time>2026-04-28T14:12:50Z</time></trkpt><trkpt lat="38.04311466462388" lon="13.551628738385157"><ele>84.0</ele><time>2026-04-28T14:12:52Z</time></trkpt><trkpt lat="38.04317579970328" lon="13.551656200332921"><ele>84.0</ele><time>2026-04-28T14:12:53Z</time></trkpt><trkpt lat="38.0432615010652" lon="13.551753709808779"><ele>84.0</ele><time>2026-04-28T14:12:55Z</time></trkpt><trkpt lat="38.04331849959056" lon="13.551856078977538"><ele>84.0</ele><time>2026-04-28T14:12:57Z</time></trkpt><trkpt lat="38.0433584299404" lon="13.551967741821903"><ele>84.0</ele><time>2026-04-28T14:12:59Z</time></trkpt><trkpt lat="38.04343274588173" lon="13.55205734586224"><ele>83.16666666666667</ele><time>2026-04-28T14:13:01Z</time></trkpt><trkpt lat="38.04350642996293" lon="13.552143698582466"><ele>82.33333333333333</ele><time>2026-04-28T14:13:03Z</time></trkpt><trkpt lat="38.04356808417192" lon="13.552241754709888"><ele>81.5</ele><time>2026-04-28T14:13:05Z</time></trkpt><trkpt lat="38.04363844487958" lon="13.552330964009112"><ele>80.66666666666666</ele><time>2026-04-28T14:13:07Z</time></trkpt><trkpt lat="38.04367485530227" lon="13.55241575651339"><ele>79.83333333333333</ele><time>2026-04-28T14:13:10Z</time></trkpt><trkpt lat="38.043732414079145" lon="13.552456048150699"><ele>79.0</ele><time>2026-04-28T14:13:14Z</time></trkpt><trkpt lat="38.04379534159468" lon="13.552493988353996"><ele>79.0</ele><time>2026-04-28T14:13:16Z</time></trkpt><trkpt lat="38.04385910733037" lon="13.552494903935276"><ele>79.0</ele><time>2026-04-28T14:13:18Z</time></trkpt><trkpt lat="38.043916965443515" lon="13.552444406859747"><ele>79.0</ele><time>2026-04-28T14:13:22Z</time></trkpt><trkpt lat="38.04385030395602" lon="13.55225466805991"><ele>79.0</ele><time>2026-04-28T14:13:24Z</time></trkpt><trkpt lat="38.043786795407925" lon="13.55223114917696"><ele>79.0</ele><time>2026-04-28T14:13:30Z</time></trkpt><trkpt lat="38.04372501027559" lon="13.552261471778335"><ele>79.0</ele><time>2026-04-28T14:13:33Z</time></trkpt><trkpt lat="38.04366415924472" lon="13.552294604272635"><ele>79.0</ele><time>2026-04-28T14:13:38Z</time></trkpt><trkpt lat="38.04360772711049" lon="13.552186055188102"><ele>79.0</ele><time>2026-04-28T14:13:42Z</time></trkpt><trkpt lat="38.043559443276315" lon="13.552104920118188"><ele>79.0</ele><time>2026-04-28T14:13:45Z</time></trkpt><trkpt lat="38.04352163837844" lon="13.552040695493481"><ele>79.0</ele><time>2026-04-28T14:13:48Z</time></trkpt><trkpt lat="38.04348209475882" lon="13.551963268093512"><ele>79.0</ele><time>2026-04-28T14:13:51Z</time></trkpt><trkpt lat="38.04356548459265" lon="13.551932945646024"><ele>79.0</ele><time>2026-04-28T14:13:57Z</time></trkpt><trkpt lat="38.043595121393075" lon="13.551851693869223"><ele>80.2</ele><time>2026-04-28T14:14:21Z</time></trkpt><trkpt lat="38.04364094412373" lon="13.551916671727156"><ele>81.4</ele><time>2026-04-28T14:14:29Z</time></trkpt><trkpt lat="38.04365304609461" lon="13.551808912761045"><ele>82.6</ele><time>2026-04-28T14:15:10.74Z</time></trkpt><trkpt lat="38.04364131505173" lon="13.551717606400002"><ele>83.8</ele><time>2026-04-28T14:15:20Z</time></trkpt><trkpt lat="38.04357933603481" lon="13.551944141644805"><ele>85.0</ele><time>2026-04-28T14:15:34.536Z</time></trkpt><trkpt lat="38.043521417574034" lon="13.551990418291284"><ele>85.0</ele><time>2026-04-28T14:15:40.422Z</time></trkpt><trkpt lat="38.043577698075204" lon="13.551916452699135"><ele>85.0</ele><time>2026-04-28T14:20:12Z</time></trkpt><trkpt lat="38.04350429850139" lon="13.55192266294814"><ele>85.0</ele><time>2026-04-28T14:20:23Z</time></trkpt><trkpt lat="38.043507159856226" lon="13.552023025081477"><ele>85.0</ele><time>2026-04-28T14:20:26Z</time></trkpt><trkpt lat="38.04363155971852" lon="13.552121189901788"><ele>85.0</ele><time>2026-04-28T14:21:39.999Z</time></trkpt><trkpt lat="38.04364857304872" lon="13.552215461760811"><ele>84.0</ele><time>2026-04-28T14:21:48.999Z</time></trkpt><trkpt lat="38.04370404991306" lon="13.552272480045602"><ele>83.0</ele><time>2026-04-28T14:21:50.999Z</time></trkpt><trkpt lat="38.04372549387489" lon="13.552361021318621"><ele>82.0</ele><time>2026-04-28T14:21:52.999Z</time></trkpt><trkpt lat="38.04370419780613" lon="13.552494578467645"><ele>81.0</ele><time>2026-04-28T14:21:54.999Z</time></trkpt><trkpt lat="38.04371277062261" lon="13.552605596960376"><ele>80.0</ele><time>2026-04-28T14:21:56.999Z</time></trkpt><trkpt lat="38.04373697164553" lon="13.552687103423647"><ele>79.0</ele><time>2026-04-28T14:21:59.999Z</time></trkpt><trkpt lat="38.043801102089255" lon="13.552701142985033"><ele>79.0</ele><time>2026-04-28T14:22:08.999Z</time></trkpt><trkpt lat="38.04380177078322" lon="13.552620074244238"><ele>79.0</ele><time>2026-04-28T14:22:13Z</time></trkpt><trkpt lat="38.0437617262328" lon="13.552547730945268"><ele>79.0</ele><time>2026-04-28T14:22:19Z</time></trkpt><trkpt lat="38.04383059747308" lon="13.552495713406833"><ele>79.0</ele><time>2026-04-28T14:22:24Z</time></trkpt><trkpt lat="38.0439046400615" lon="13.552453893273206"><ele>79.0</ele><time>2026-04-28T14:22:27Z</time></trkpt><trkpt lat="38.04396317943557" lon="13.552398311752391"><ele>79.0</ele><time>2026-04-28T14:22:29Z</time></trkpt><trkpt lat="38.04403428730029" lon="13.552335577029348"><ele>79.0</ele><time>2026-04-28T14:22:31Z</time></trkpt><trkpt lat="38.04410880243699" lon="13.5522593768134"><ele>79.0</ele><time>2026-04-28T14:22:33Z</time></trkpt><trkpt lat="38.04419038346062" lon="13.552182322885445"><ele>79.0</ele><time>2026-04-28T14:22:35Z</time></trkpt><trkpt lat="38.044275156900206" lon="13.552083857972963"><ele>79.0</ele><time>2026-04-28T14:22:37Z</time></trkpt><trkpt lat="38.04436231006462" lon="13.551997158981381"><ele>79.0</ele><time>2026-04-28T14:22:39Z</time></trkpt><trkpt lat="38.04440805634099" lon="13.55194018635567"><ele>79.14285714285715</ele><time>2026-04-28T14:22:40Z</time></trkpt><trkpt lat="38.04445686187026" lon="13.551873425131413"><ele>79.28571428571429</ele><time>2026-04-28T14:22:41Z</time></trkpt><trkpt lat="38.04451250426865" lon="13.55181591478022"><ele>79.42857142857143</ele><time>2026-04-28T14:22:42Z</time></trkpt><trkpt lat="38.044569906573074" lon="13.551771927809115"><ele>79.57142857142858</ele><time>2026-04-28T14:22:43Z</time></trkpt><trkpt lat="38.04463882272951" lon="13.551736809795333"><ele>79.71428571428572</ele><time>2026-04-28T14:22:44Z</time></trkpt><trkpt lat="38.04470595062586" lon="13.551692502134916"><ele>79.85714285714286</ele><time>2026-04-28T14:22:45Z</time></trkpt><trkpt lat="38.04477700884383" lon="13.551649409226473"><ele>80.0</ele><time>2026-04-28T14:22:46Z</time></trkpt><trkpt lat="38.04485116759589" lon="13.551601487920994"><ele>80.0</ele><time>2026-04-28T14:22:47Z</time></trkpt><trkpt lat="38.04491967642854" lon="13.551549786097437"><ele>80.0</ele><time>2026-04-28T14:22:48Z</time></trkpt><trkpt lat="38.044995068480915" lon="13.551510676328693"><ele>80.0</ele><time>2026-04-28T14:22:49Z</time></trkpt><trkpt lat="38.045068396543485" lon="13.551468002301974"><ele>80.0</ele><time>2026-04-28T14:22:50Z</time></trkpt><trkpt lat="38.04514820074688" lon="13.551414567223214"><ele>80.0</ele><time>2026-04-28T14:22:51Z</time></trkpt><trkpt lat="38.045214132813115" lon="13.5513584887319"><ele>80.0</ele><time>2026-04-28T14:22:52Z</time></trkpt><trkpt lat="38.045288521784286" lon="13.551306144029363"><ele>79.5</ele><time>2026-04-28T14:22:53Z</time></trkpt><trkpt lat="38.0453654612618" lon="13.551248937352598"><ele>79.0</ele><time>2026-04-28T14:22:54Z</time></trkpt><trkpt lat="38.045436066348664" lon="13.551176725773399"><ele>78.5</ele><time>2026-04-28T14:22:55Z</time></trkpt><trkpt lat="38.04550670670489" lon="13.551133488247375"><ele>78.0</ele><time>2026-04-28T14:22:56Z</time></trkpt><trkpt lat="38.0455845171996" lon="13.551093088383825"><ele>77.5</ele><time>2026-04-28T14:22:57Z</time></trkpt><trkpt lat="38.045659246880774" lon="13.551038464569091"><ele>77.0</ele><time>2026-04-28T14:22:58Z</time></trkpt><trkpt lat="38.04573162894336" lon="13.550997481154292"><ele>74.5</ele><time>2026-04-28T14:22:59Z</time></trkpt><trkpt lat="38.045801701555355" lon="13.55094086007447"><ele>72.0</ele><time>2026-04-28T14:23:00Z</time></trkpt><trkpt lat="38.045872425276514" lon="13.550876629515942"><ele>69.5</ele><time>2026-04-28T14:23:01Z</time></trkpt><trkpt lat="38.045942789819065" lon="13.550823644968117"><ele>67.0</ele><time>2026-04-28T14:23:02Z</time></trkpt><trkpt lat="38.046015640034035" lon="13.550750928342543"><ele>64.5</ele><time>2026-04-28T14:23:03Z</time></trkpt><trkpt lat="38.04608515602264" lon="13.550682275864506"><ele>62.0</ele><time>2026-04-28T14:23:04Z</time></trkpt><trkpt lat="38.046161422610375" lon="13.55062091325994"><ele>62.00000000000001</ele><time>2026-04-28T14:23:05Z</time></trkpt><trkpt lat="38.04623848757516" lon="13.55056602105375"><ele>62.0</ele><time>2026-04-28T14:23:06Z</time></trkpt><trkpt lat="38.04630991697151" lon="13.550515463903585"><ele>62.0</ele><time>2026-04-28T14:23:07Z</time></trkpt><trkpt lat="38.04637681268922" lon="13.550486436202789"><ele>62.0</ele><time>2026-04-28T14:23:08Z</time></trkpt><trkpt lat="38.04641016860523" lon="13.550566322501513"><ele>62.00000000000001</ele><time>2026-04-28T14:23:10Z</time></trkpt><trkpt lat="38.04632585058901" lon="13.55063469406809"><ele>62.0</ele><time>2026-04-28T14:23:11Z</time></trkpt><trkpt lat="38.04621927142189" lon="13.55066595966835"><ele>62.00000000000001</ele><time>2026-04-28T14:23:13Z</time></trkpt><trkpt lat="38.0461244964564" lon="13.55070727098639"><ele>62.0</ele><time>2026-04-28T14:23:15Z</time></trkpt><trkpt lat="38.04603977956083" lon="13.550805249324869"><ele>62.0</ele><time>2026-04-28T14:23:17Z</time></trkpt><trkpt lat="38.046006358879545" lon="13.55087843165486"><ele>62.0</ele><time>2026-04-28T14:23:18Z</time></trkpt><trkpt lat="38.04596871209898" lon="13.55094340111336"><ele>62.00000000000001</ele><time>2026-04-28T14:23:19Z</time></trkpt><trkpt lat="38.04592092946572" lon="13.550997718041424"><ele>62.0</ele><time>2026-04-28T14:23:20Z</time></trkpt><trkpt lat="38.045878784391356" lon="13.551064337077852"><ele>62.0</ele><time>2026-04-28T14:23:20.999Z</time></trkpt><trkpt lat="38.045826227949405" lon="13.551119340226206"><ele>62.00000000000001</ele><time>2026-04-28T14:23:21.999Z</time></trkpt><trkpt lat="38.0457816928217" lon="13.551186732841703"><ele>62.0</ele><time>2026-04-28T14:23:22.999Z</time></trkpt><trkpt lat="38.04572213146973" lon="13.551239220249114"><ele>62.0</ele><time>2026-04-28T14:23:23.999Z</time></trkpt><trkpt lat="38.04566018384344" lon="13.551287061354166"><ele>62.00000000000001</ele><time>2026-04-28T14:23:24.999Z</time></trkpt><trkpt lat="38.04560063016909" lon="13.551346159329148"><ele>62.0</ele><time>2026-04-28T14:23:25.999Z</time></trkpt><trkpt lat="38.045536530759094" lon="13.551393392848938"><ele>62.0</ele><time>2026-04-28T14:23:26.999Z</time></trkpt><trkpt lat="38.04547115451658" lon="13.551414854919365"><ele>62.333333333333336</ele><time>2026-04-28T14:23:27.999Z</time></trkpt><trkpt lat="38.04539051078905" lon="13.551484846395454"><ele>62.66666666666667</ele><time>2026-04-28T14:23:28.999Z</time></trkpt><trkpt lat="38.045334449616846" lon="13.551562324940061"><ele>63.0</ele><time>2026-04-28T14:23:29.999Z</time></trkpt><trkpt lat="38.045264459534785" lon="13.551630806691271"><ele>63.33333333333333</ele><time>2026-04-28T14:23:30.999Z</time></trkpt><trkpt lat="38.04519438247018" lon="13.551690003857368"><ele>63.666666666666664</ele><time>2026-04-28T14:23:31.999Z</time></trkpt><trkpt lat="38.04513775253818" lon="13.551769053582657"><ele>64.0</ele><time>2026-04-28T14:23:32.999Z</time></trkpt><trkpt lat="38.045083522615805" lon="13.551859206802458"><ele>63.99999999999999</ele><time>2026-04-28T14:23:33.999Z</time></trkpt><trkpt lat="38.045026780733465" lon="13.551942267627574"><ele>64.0</ele><time>2026-04-28T14:23:34.999Z</time></trkpt><trkpt lat="38.04496842539174" lon="13.552016524949378"><ele>64.0</ele><time>2026-04-28T14:23:35.999Z</time></trkpt><trkpt lat="38.0449071496863" lon="13.552089137124138"><ele>64.0</ele><time>2026-04-28T14:23:36.999Z</time></trkpt><trkpt lat="38.04485011298452" lon="13.55217839455403"><ele>63.99999999999999</ele><time>2026-04-28T14:23:37.999Z</time></trkpt><trkpt lat="38.04479759660089" lon="13.552268029781406"><ele>64.0</ele><time>2026-04-28T14:23:38.999Z</time></trkpt><trkpt lat="38.04474226372814" lon="13.552355652233302"><ele>64.33333333333333</ele><time>2026-04-28T14:23:39.999Z</time></trkpt><trkpt lat="38.04468952506442" lon="13.552440701019714"><ele>64.66666666666666</ele><time>2026-04-28T14:23:40.999Z</time></trkpt><trkpt lat="38.04464184100984" lon="13.552525704888257"><ele>65.0</ele><time>2026-04-28T14:23:41.999Z</time></trkpt><trkpt lat="38.04458942750403" lon="13.55260710834342"><ele>65.33333333333333</ele><time>2026-04-28T14:23:42.999Z</time></trkpt><trkpt lat="38.04454394490981" lon="13.552711578793666"><ele>65.66666666666667</ele><time>2026-04-28T14:23:43.999Z</time></trkpt><trkpt lat="38.04449277542993" lon="13.552800386659134"><ele>66.0</ele><time>2026-04-28T14:23:44.999Z</time></trkpt><trkpt lat="38.04443662279148" lon="13.552879158951441"><ele>64.83333333333333</ele><time>2026-04-28T14:23:45.999Z</time></trkpt><trkpt lat="38.044379786472" lon="13.552960263733246"><ele>63.66666666666667</ele><time>2026-04-28T14:23:46.999Z</time></trkpt><trkpt lat="38.044323008948226" lon="13.553034334269936"><ele>62.5</ele><time>2026-04-28T14:23:47.999Z</time></trkpt><trkpt lat="38.04426714944549" lon="13.553116162381249"><ele>61.333333333333336</ele><time>2026-04-28T14:23:48.999Z</time></trkpt><trkpt lat="38.044211783661595" lon="13.553195503272741"><ele>60.16666666666667</ele><time>2026-04-28T14:23:49.999Z</time></trkpt><trkpt lat="38.04415889251285" lon="13.553274204028666"><ele>59.0</ele><time>2026-04-28T14:23:50.999Z</time></trkpt><trkpt lat="38.04410324462687" lon="13.55334681296242"><ele>59.00000000000001</ele><time>2026-04-28T14:23:51.999Z</time></trkpt><trkpt lat="38.044050178971695" lon="13.553423806931571"><ele>59.0</ele><time>2026-04-28T14:23:52.999Z</time></trkpt><trkpt lat="38.043997217209686" lon="13.553499176927673"><ele>59.0</ele><time>2026-04-28T14:23:53.999Z</time></trkpt><trkpt lat="38.04394206672755" lon="13.553576023632539"><ele>59.0</ele><time>2026-04-28T14:23:54.999Z</time></trkpt><trkpt lat="38.04389201206673" lon="13.553659861711953"><ele>59.00000000000001</ele><time>2026-04-28T14:23:55.999Z</time></trkpt><trkpt lat="38.04383647668104" lon="13.553736003288595"><ele>59.0</ele><time>2026-04-28T14:23:56.999Z</time></trkpt><trkpt lat="38.043780617269235" lon="13.55381442843857"><ele>55.333333333333336</ele><time>2026-04-28T14:23:57.999Z</time></trkpt><trkpt lat="38.043728466577114" lon="13.553900389507266"><ele>51.66666666666667</ele><time>2026-04-28T14:23:58.999Z</time></trkpt><trkpt lat="38.04367622286776" lon="13.553981277224342"><ele>48.0</ele><time>2026-04-28T14:23:59.999Z</time></trkpt><trkpt lat="38.043621375009074" lon="13.554059780996466"><ele>44.333333333333336</ele><time>2026-04-28T14:24:00.999Z</time></trkpt><trkpt lat="38.04356661092272" lon="13.554140676096463"><ele>40.66666666666667</ele><time>2026-04-28T14:24:01.999Z</time></trkpt><trkpt lat="38.04351301137359" lon="13.554219730109162"><ele>37.0</ele><time>2026-04-28T14:24:02.999Z</time></trkpt><trkpt lat="38.04346624669334" lon="13.55429885951799"><ele>37.0</ele><time>2026-04-28T14:24:03.999Z</time></trkpt><trkpt lat="38.04341677018407" lon="13.554367137526825"><ele>37.0</ele><time>2026-04-28T14:24:04.999Z</time></trkpt><trkpt lat="38.043368394130155" lon="13.554431666189219"><ele>37.0</ele><time>2026-04-28T14:24:05.999Z</time></trkpt><trkpt lat="38.04332636482943" lon="13.554498483577284"><ele>37.0</ele><time>2026-04-28T14:24:06.999Z</time></trkpt><trkpt lat="38.04328265538704" lon="13.554559678418181"><ele>37.0</ele><time>2026-04-28T14:24:07.999Z</time></trkpt><trkpt lat="38.04320534398808" lon="13.554680220714312"><ele>37.0</ele><time>2026-04-28T14:24:09.999Z</time></trkpt><trkpt lat="38.04313635483419" lon="13.554781213352818"><ele>38.0</ele><time>2026-04-28T14:24:11.999Z</time></trkpt><trkpt lat="38.04308006858635" lon="13.55486187838695"><ele>39.0</ele><time>2026-04-28T14:24:13.999Z</time></trkpt><trkpt lat="38.0430217256794" lon="13.554982451130083"><ele>40.0</ele><time>2026-04-28T14:24:15.999Z</time></trkpt><trkpt lat="38.04298668775283" lon="13.555109318377"><ele>41.0</ele><time>2026-04-28T14:24:17.999Z</time></trkpt><trkpt lat="38.0429393363755" lon="13.555241331575026"><ele>42.0</ele><time>2026-04-28T14:24:20Z</time></trkpt><trkpt lat="38.04289063285016" lon="13.555389455020336"><ele>42.0</ele><time>2026-04-28T14:24:22Z</time></trkpt><trkpt lat="38.04286354431865" lon="13.55546583245916"><ele>42.0</ele><time>2026-04-28T14:24:23Z</time></trkpt><trkpt lat="38.04281219612291" lon="13.555629938578505"><ele>42.0</ele><time>2026-04-28T14:24:25Z</time></trkpt><trkpt lat="38.042784826910186" lon="13.555717376501944"><ele>42.0</ele><time>2026-04-28T14:24:26Z</time></trkpt><trkpt lat="38.042761344073234" lon="13.555805268046074"><ele>42.0</ele><time>2026-04-28T14:24:27Z</time></trkpt><trkpt lat="38.04273225173533" lon="13.555891741278154"><ele>42.0</ele><time>2026-04-28T14:24:28Z</time></trkpt><trkpt lat="38.04269240291277" lon="13.555984788122453"><ele>42.0</ele><time>2026-04-28T14:24:29Z</time></trkpt><trkpt lat="38.04266742790544" lon="13.556069874642633"><ele>42.0</ele><time>2026-04-28T14:24:30Z</time></trkpt><trkpt lat="38.04263895296013" lon="13.556156333739926"><ele>42.0</ele><time>2026-04-28T14:24:31Z</time></trkpt><trkpt lat="38.04263407076994" lon="13.556256495838397"><ele>42.0</ele><time>2026-04-28T14:24:32Z</time></trkpt><trkpt lat="38.042656854937164" lon="13.556358118222574"><ele>42.0</ele><time>2026-04-28T14:24:33Z</time></trkpt><trkpt lat="38.04269198163702" lon="13.556451655005247"><ele>42.0</ele><time>2026-04-28T14:24:34Z</time></trkpt><trkpt lat="38.0427367995955" lon="13.556537037534524"><ele>40.57142857142857</ele><time>2026-04-28T14:24:35Z</time></trkpt><trkpt lat="38.04279086740191" lon="13.556601511257995"><ele>39.14285714285714</ele><time>2026-04-28T14:24:36Z</time></trkpt><trkpt lat="38.04284608211712" lon="13.556644590627233"><ele>37.714285714285715</ele><time>2026-04-28T14:24:37Z</time></trkpt><trkpt lat="38.04290118669278" lon="13.556688650454324"><ele>36.285714285714285</ele><time>2026-04-28T14:24:38Z</time></trkpt><trkpt lat="38.042955977053126" lon="13.556738421273337"><ele>34.857142857142854</ele><time>2026-04-28T14:24:39Z</time></trkpt><trkpt lat="38.04301521281401" lon="13.556792528325417"><ele>33.42857142857143</ele><time>2026-04-28T14:24:40Z</time></trkpt><trkpt lat="38.043072591484794" lon="13.556854563818728"><ele>32.0</ele><time>2026-04-28T14:24:41Z</time></trkpt><trkpt lat="38.04298332270687" lon="13.556955398111521"><ele>31.999999999999996</ele><time>2026-04-28T14:24:43Z</time></trkpt><trkpt lat="38.042920992931485" lon="13.55701669713748"><ele>32.0</ele><time>2026-04-28T14:24:45Z</time></trkpt><trkpt lat="38.04287247841042" lon="13.557105649517567"><ele>32.0</ele><time>2026-04-28T14:24:47Z</time></trkpt><trkpt lat="38.04281782625186" lon="13.557191016776434"><ele>32.0</ele><time>2026-04-28T14:24:49Z</time></trkpt><trkpt lat="38.04276391563702" lon="13.557283798253453"><ele>31.999999999999996</ele><time>2026-04-28T14:24:51Z</time></trkpt><trkpt lat="38.04270829157647" lon="13.557374695955637"><ele>32.0</ele><time>2026-04-28T14:24:53Z</time></trkpt><trkpt lat="38.042654543714924" lon="13.55748137631106"><ele>32.0</ele><time>2026-04-28T14:24:55Z</time></trkpt><trkpt lat="38.04258585636726" lon="13.557591749244235"><ele>32.0</ele><time>2026-04-28T14:24:57Z</time></trkpt><trkpt lat="38.04251747637486" lon="13.557700254441096"><ele>32.0</ele><time>2026-04-28T14:24:59Z</time></trkpt><trkpt lat="38.04245442611115" lon="13.55782176617354"><ele>32.0</ele><time>2026-04-28T14:25:01Z</time></trkpt><trkpt lat="38.042385397106685" lon="13.55794052137749"><ele>35.0</ele><time>2026-04-28T14:25:03Z</time></trkpt><trkpt lat="38.04231571433783" lon="13.55805338517471"><ele>38.0</ele><time>2026-04-28T14:25:05Z</time></trkpt><trkpt lat="38.04225445470493" lon="13.558170383198531"><ele>41.0</ele><time>2026-04-28T14:25:07Z</time></trkpt><trkpt lat="38.04217964809107" lon="13.558277197316995"><ele>44.0</ele><time>2026-04-28T14:25:09Z</time></trkpt><trkpt lat="38.042116220068735" lon="13.558393086187635"><ele>47.0</ele><time>2026-04-28T14:25:11Z</time></trkpt><trkpt lat="38.04206365953562" lon="13.558500909437752"><ele>47.0</ele><time>2026-04-28T14:25:13Z</time></trkpt><trkpt lat="38.04199886520051" lon="13.55861113276611"><ele>47.0</ele><time>2026-04-28T14:25:15Z</time></trkpt><trkpt lat="38.04193627195137" lon="13.558728405689045"><ele>47.0</ele><time>2026-04-28T14:25:17Z</time></trkpt><trkpt lat="38.04187840096706" lon="13.558834044324827"><ele>47.0</ele><time>2026-04-28T14:25:19Z</time></trkpt><trkpt lat="38.04182150648602" lon="13.558943294006559"><ele>47.0</ele><time>2026-04-28T14:25:21Z</time></trkpt><trkpt lat="38.04176631747657" lon="13.559046936174122"><ele>45.4</ele><time>2026-04-28T14:25:23Z</time></trkpt><trkpt lat="38.041700453781814" lon="13.559159304537761"><ele>43.800000000000004</ele><time>2026-04-28T14:25:25Z</time></trkpt><trkpt lat="38.04164119603201" lon="13.559269631836894"><ele>42.2</ele><time>2026-04-28T14:25:27Z</time></trkpt><trkpt lat="38.041577837734145" lon="13.559359746493671"><ele>40.6</ele><time>2026-04-28T14:25:28.999Z</time></trkpt><trkpt lat="38.04151577319091" lon="13.55944180765369"><ele>39.0</ele><time>2026-04-28T14:25:30.999Z</time></trkpt><trkpt lat="38.04147384657502" lon="13.55954135580262"><ele>38.5</ele><time>2026-04-28T14:25:32.999Z</time></trkpt><trkpt lat="38.04141177444036" lon="13.559608920073673"><ele>38.0</ele><time>2026-04-28T14:25:34.999Z</time></trkpt><trkpt lat="38.04134097300646" lon="13.559683983835717"><ele>37.5</ele><time>2026-04-28T14:25:36.999Z</time></trkpt><trkpt lat="38.04128143218057" lon="13.55976437650938"><ele>37.0</ele><time>2026-04-28T14:25:38.999Z</time></trkpt><trkpt lat="38.04120269885007" lon="13.55984499217207"><ele>36.5</ele><time>2026-04-28T14:25:40.999Z</time></trkpt><trkpt lat="38.04119444777494" lon="13.55992547264294"><ele>36.0</ele><time>2026-04-28T14:25:42.999Z</time></trkpt><trkpt lat="38.041138858071385" lon="13.560025837697388"><ele>36.0</ele><time>2026-04-28T14:25:45.999Z</time></trkpt><trkpt lat="38.041104925473384" lon="13.560096848203871"><ele>36.0</ele><time>2026-04-28T14:25:48.999Z</time></trkpt><trkpt lat="38.04103586222659" lon="13.560190874453227"><ele>36.0</ele><time>2026-04-28T14:25:49.999Z</time></trkpt><trkpt lat="38.040984048164084" lon="13.560266327082045"><ele>36.0</ele><time>2026-04-28T14:25:50.999Z</time></trkpt><trkpt lat="38.04094385664911" lon="13.560368627709815"><ele>36.0</ele><time>2026-04-28T14:25:52.999Z</time></trkpt><trkpt lat="38.040880014754954" lon="13.560463136729286"><ele>36.0</ele><time>2026-04-28T14:25:54.999Z</time></trkpt><trkpt lat="38.04077299682281" lon="13.560761348367787"><ele>36.28571428571429</ele><time>2026-04-28T14:25:55.999Z</time></trkpt><trkpt lat="38.04076237857612" lon="13.56085369097155"><ele>36.57142857142857</ele><time>2026-04-28T14:25:56.999Z</time></trkpt><trkpt lat="38.04073926253764" lon="13.560941123989124"><ele>36.85714285714286</ele><time>2026-04-28T14:25:57.999Z</time></trkpt><trkpt lat="38.04072206769434" lon="13.561033652738592"><ele>37.142857142857146</ele><time>2026-04-28T14:25:58.999Z</time></trkpt><trkpt lat="38.0407098897887" lon="13.561122857472794"><ele>37.42857142857143</ele><time>2026-04-28T14:25:59.999Z</time></trkpt><trkpt lat="38.04068897697171" lon="13.561222261582756"><ele>37.714285714285715</ele><time>2026-04-28T14:26:00.999Z</time></trkpt><trkpt lat="38.040651409461745" lon="13.56129255294066"><ele>38.0</ele><time>2026-04-28T14:26:01.999Z</time></trkpt><trkpt lat="38.04064842081843" lon="13.561384159537115"><ele>38.0</ele><time>2026-04-28T14:26:02.999Z</time></trkpt><trkpt lat="38.04062236679429" lon="13.561472764174841"><ele>38.0</ele><time>2026-04-28T14:26:03.999Z</time></trkpt><trkpt lat="38.04061371835934" lon="13.561553888121582"><ele>38.0</ele><time>2026-04-28T14:26:04.999Z</time></trkpt><trkpt lat="38.04060051163145" lon="13.5616363222496"><ele>38.0</ele><time>2026-04-28T14:26:05.999Z</time></trkpt><trkpt lat="38.04058893432925" lon="13.561723626555743"><ele>38.0</ele><time>2026-04-28T14:26:06.999Z</time></trkpt><trkpt lat="38.04058535011118" lon="13.561866755096606"><ele>38.0</ele><time>2026-04-28T14:26:08.999Z</time></trkpt><trkpt lat="38.04056396945887" lon="13.561975420496815"><ele>35.33333333333333</ele><time>2026-04-28T14:26:10.999Z</time></trkpt><trkpt lat="38.04053603953017" lon="13.562049120090032"><ele>32.666666666666664</ele><time>2026-04-28T14:26:12.999Z</time></trkpt><trkpt lat="38.040473284723305" lon="13.562115415074825"><ele>30.0</ele><time>2026-04-28T14:26:14.999Z</time></trkpt><trkpt lat="38.04043130765078" lon="13.562197408455821"><ele>27.333333333333332</ele><time>2026-04-28T14:26:17.999Z</time></trkpt><trkpt lat="38.04038387809533" lon="13.562283247332106"><ele>24.666666666666664</ele><time>2026-04-28T14:26:19.999Z</time></trkpt><trkpt lat="38.040328466728546" lon="13.562392515537674"><ele>22.0</ele><time>2026-04-28T14:26:21.999Z</time></trkpt><trkpt lat="38.040307444782314" lon="13.562530343395364"><ele>22.0</ele><time>2026-04-28T14:26:23.999Z</time></trkpt><trkpt lat="38.0402633615922" lon="13.562620173953295"><ele>22.0</ele><time>2026-04-28T14:26:26Z</time></trkpt><trkpt lat="38.04022806378788" lon="13.562723561700853"><ele>22.0</ele><time>2026-04-28T14:26:28Z</time></trkpt><trkpt lat="38.0401680665101" lon="13.562796222551837"><ele>22.0</ele><time>2026-04-28T14:26:30Z</time></trkpt><trkpt lat="38.040109580413706" lon="13.562901000522254"><ele>22.0</ele><time>2026-04-28T14:26:32Z</time></trkpt><trkpt lat="38.04006870823611" lon="13.563009287094054"><ele>20.8</ele><time>2026-04-28T14:26:34Z</time></trkpt><trkpt lat="38.040023897247565" lon="13.563123073245448"><ele>19.6</ele><time>2026-04-28T14:26:36Z</time></trkpt><trkpt lat="38.03995892295195" lon="13.563240995642682"><ele>18.400000000000002</ele><time>2026-04-28T14:26:39Z</time></trkpt><trkpt lat="38.039917365701825" lon="13.563319532115603"><ele>17.200000000000003</ele><time>2026-04-28T14:26:40Z</time></trkpt><trkpt lat="38.03986696422013" lon="13.56344685858911"><ele>16.0</ele><time>2026-04-28T14:26:42Z</time></trkpt><trkpt lat="38.03981981010781" lon="13.563558905667973"><ele>16.0</ele><time>2026-04-28T14:26:44Z</time></trkpt><trkpt lat="38.039773774448165" lon="13.563669356142437"><ele>16.0</ele><time>2026-04-28T14:26:46Z</time></trkpt><trkpt lat="38.03972209978732" lon="13.563786811460341"><ele>16.0</ele><time>2026-04-28T14:26:48Z</time></trkpt><trkpt lat="38.03967378223306" lon="13.56389716911364"><ele>16.0</ele><time>2026-04-28T14:26:50Z</time></trkpt><trkpt lat="38.039613587953944" lon="13.564004069393565"><ele>16.0</ele><time>2026-04-28T14:26:52Z</time></trkpt><trkpt lat="38.03955640523822" lon="13.564108391415644"><ele>16.2</ele><time>2026-04-28T14:26:54Z</time></trkpt><trkpt lat="38.039495314078984" lon="13.56421541322016"><ele>16.400000000000002</ele><time>2026-04-28T14:26:56Z</time></trkpt><trkpt lat="38.03942558381134" lon="13.564297551340495"><ele>16.6</ele><time>2026-04-28T14:26:58Z</time></trkpt><trkpt lat="38.039356214284226" lon="13.56439407833342"><ele>16.8</ele><time>2026-04-28T14:27:00Z</time></trkpt><trkpt lat="38.03928300676935" lon="13.564477668434073"><ele>17.0</ele><time>2026-04-28T14:27:02Z</time></trkpt><trkpt lat="38.03920816364124" lon="13.564570461846472"><ele>15.8</ele><time>2026-04-28T14:27:04Z</time></trkpt><trkpt lat="38.03914044922195" lon="13.56466737992218"><ele>14.6</ele><time>2026-04-28T14:27:06Z</time></trkpt><trkpt lat="38.03906269354211" lon="13.564730467393119"><ele>13.4</ele><time>2026-04-28T14:27:08Z</time></trkpt><trkpt lat="38.039007313764294" lon="13.564819929677007"><ele>12.200000000000001</ele><time>2026-04-28T14:27:10Z</time></trkpt><trkpt lat="38.038932494245735" lon="13.564895752992905"><ele>11.0</ele><time>2026-04-28T14:27:12Z</time></trkpt><trkpt lat="38.03886001257793" lon="13.564981332982393"><ele>11.200000000000001</ele><time>2026-04-28T14:27:14Z</time></trkpt><trkpt lat="38.03878730992231" lon="13.565069567775959"><ele>11.4</ele><time>2026-04-28T14:27:16Z</time></trkpt><trkpt lat="38.03871936556558" lon="13.565161134135234"><ele>11.6</ele><time>2026-04-28T14:27:18Z</time></trkpt><trkpt lat="38.03867027044473" lon="13.565257526416989"><ele>11.8</ele><time>2026-04-28T14:27:20Z</time></trkpt><trkpt lat="38.03859295633809" lon="13.565317952691414"><ele>12.0</ele><time>2026-04-28T14:27:22Z</time></trkpt><trkpt lat="38.0385388763132" lon="13.565425210676182"><ele>12.0</ele><time>2026-04-28T14:27:24Z</time></trkpt><trkpt lat="38.03845515897377" lon="13.565511322111886"><ele>12.0</ele><time>2026-04-28T14:27:26Z</time></trkpt><trkpt lat="38.03836105777884" lon="13.565599500987465"><ele>12.0</ele><time>2026-04-28T14:27:28Z</time></trkpt><trkpt lat="38.038279993980005" lon="13.56569386679706"><ele>12.0</ele><time>2026-04-28T14:27:30Z</time></trkpt><trkpt lat="38.038216036641316" lon="13.565789680734975"><ele>12.0</ele><time>2026-04-28T14:27:32Z</time></trkpt><trkpt lat="38.038144495048826" lon="13.565862222191516"><ele>12.8</ele><time>2026-04-28T14:27:34Z</time></trkpt><trkpt lat="38.03805010299128" lon="13.56597262181086"><ele>13.6</ele><time>2026-04-28T14:27:36Z</time></trkpt><trkpt lat="38.037989242916986" lon="13.566036982994769"><ele>14.400000000000002</ele><time>2026-04-28T14:27:38Z</time></trkpt><trkpt lat="38.03793061110222" lon="13.56611590000021"><ele>15.200000000000001</ele><time>2026-04-28T14:27:40Z</time></trkpt><trkpt lat="38.037865131289884" lon="13.5662151852266"><ele>16.0</ele><time>2026-04-28T14:27:42Z</time></trkpt><trkpt lat="38.03779944656499" lon="13.566308519208174"><ele>16.0</ele><time>2026-04-28T14:27:44Z</time></trkpt><trkpt lat="38.037748182567306" lon="13.566418456978287"><ele>16.0</ele><time>2026-04-28T14:27:46Z</time></trkpt><trkpt lat="38.03768959817451" lon="13.566541983954485"><ele>16.0</ele><time>2026-04-28T14:27:48Z</time></trkpt><trkpt lat="38.03763706426108" lon="13.566661209387489"><ele>16.0</ele><time>2026-04-28T14:27:50Z</time></trkpt><trkpt lat="38.037582279972945" lon="13.566790326558365"><ele>16.0</ele><time>2026-04-28T14:27:52Z</time></trkpt><trkpt lat="38.03752781402836" lon="13.566918843174887"><ele>15.0</ele><time>2026-04-28T14:27:54Z</time></trkpt><trkpt lat="38.03747459365756" lon="13.56704860306806"><ele>14.000000000000002</ele><time>2026-04-28T14:27:56Z</time></trkpt><trkpt lat="38.03744261489719" lon="13.567120499872422"><ele>13.0</ele><time>2026-04-28T14:27:56.999Z</time></trkpt><trkpt lat="38.03738643344191" lon="13.567247189095282"><ele>12.0</ele><time>2026-04-28T14:27:58.999Z</time></trkpt><trkpt lat="38.03732930712648" lon="13.567376653399496"><ele>11.0</ele><time>2026-04-28T14:28:00.999Z</time></trkpt><trkpt lat="38.0372852116124" lon="13.567513556726714"><ele>12.600000000000001</ele><time>2026-04-28T14:28:02.999Z</time></trkpt><trkpt lat="38.037229207917306" lon="13.567647085039555"><ele>14.2</ele><time>2026-04-28T14:28:04.999Z</time></trkpt><trkpt lat="38.03716867304929" lon="13.56777022794307"><ele>15.799999999999999</ele><time>2026-04-28T14:28:06.999Z</time></trkpt><trkpt lat="38.037136363444425" lon="13.567842962415883"><ele>17.4</ele><time>2026-04-28T14:28:07.999Z</time></trkpt><trkpt lat="38.037079696841175" lon="13.567984074157723"><ele>19.0</ele><time>2026-04-28T14:28:09.999Z</time></trkpt><trkpt lat="38.037050452848455" lon="13.568056097452498"><ele>19.0</ele><time>2026-04-28T14:28:10.999Z</time></trkpt><trkpt lat="38.037022161956024" lon="13.568131418232847"><ele>19.0</ele><time>2026-04-28T14:28:11.999Z</time></trkpt><trkpt lat="38.03701555400953" lon="13.568260889346123"><ele>19.0</ele><time>2026-04-28T14:28:13.999Z</time></trkpt><trkpt lat="38.03692421664129" lon="13.568393378879195"><ele>19.0</ele><time>2026-04-28T14:28:15.999Z</time></trkpt><trkpt lat="38.03685630237668" lon="13.568536581951474"><ele>19.0</ele><time>2026-04-28T14:28:17.999Z</time></trkpt><trkpt lat="38.036786670321995" lon="13.568662951125148"><ele>17.8</ele><time>2026-04-28T14:28:19.999Z</time></trkpt><trkpt lat="38.036711610073695" lon="13.568768457460667"><ele>16.599999999999998</ele><time>2026-04-28T14:28:21.999Z</time></trkpt><trkpt lat="38.03663624486784" lon="13.568876297466625"><ele>15.4</ele><time>2026-04-28T14:28:23.999Z</time></trkpt><trkpt lat="38.03660605194933" lon="13.568950122745234"><ele>14.2</ele><time>2026-04-28T14:28:24.999Z</time></trkpt><trkpt lat="38.03654118323905" lon="13.569077739380374"><ele>13.0</ele><time>2026-04-28T14:28:26.999Z</time></trkpt><trkpt lat="38.036506356619924" lon="13.56914882813613"><ele>15.5</ele><time>2026-04-28T14:28:27.999Z</time></trkpt><trkpt lat="38.036436316790194" lon="13.569274488729492"><ele>18.0</ele><time>2026-04-28T14:28:29.999Z</time></trkpt><trkpt lat="38.0363709488384" lon="13.569388773642858"><ele>20.5</ele><time>2026-04-28T14:28:32Z</time></trkpt><trkpt lat="38.03631043429186" lon="13.569533380566877"><ele>23.0</ele><time>2026-04-28T14:28:34Z</time></trkpt><trkpt lat="38.03631592383539" lon="13.569645913123134"><ele>23.0</ele><time>2026-04-28T14:28:35Z</time></trkpt><trkpt lat="38.03625540659959" lon="13.569750919552035"><ele>23.0</ele><time>2026-04-28T14:28:37Z</time></trkpt><trkpt lat="38.03622671173747" lon="13.569848153936713"><ele>23.0</ele><time>2026-04-28T14:28:38Z</time></trkpt><trkpt lat="38.03616530846877" lon="13.569957504094566"><ele>23.0</ele><time>2026-04-28T14:28:40Z</time></trkpt><trkpt lat="38.03614499994168" lon="13.570033902881244"><ele>23.0</ele><time>2026-04-28T14:28:41Z</time></trkpt><trkpt lat="38.03610654093479" lon="13.570186478542247"><ele>23.0</ele><time>2026-04-28T14:28:43Z</time></trkpt><trkpt lat="38.036048976011635" lon="13.570298792483593"><ele>23.0</ele><time>2026-04-28T14:28:45Z</time></trkpt><trkpt lat="38.03601171090923" lon="13.570427862420226"><ele>23.0</ele><time>2026-04-28T14:28:47Z</time></trkpt><trkpt lat="38.03596784828697" lon="13.57055988571674"><ele>23.0</ele><time>2026-04-28T14:28:49Z</time></trkpt><trkpt lat="38.035948170230775" lon="13.570644629053579"><ele>23.0</ele><time>2026-04-28T14:28:50Z</time></trkpt><trkpt lat="38.035910558584746" lon="13.57077663027921"><ele>21.0</ele><time>2026-04-28T14:28:52Z</time></trkpt><trkpt lat="38.035853491089256" lon="13.570947311453537"><ele>19.0</ele><time>2026-04-28T14:28:54Z</time></trkpt><trkpt lat="38.0358164200524" lon="13.571081465518606"><ele>17.0</ele><time>2026-04-28T14:28:56Z</time></trkpt><trkpt lat="38.03579157261788" lon="13.57115575954927"><ele>15.0</ele><time>2026-04-28T14:28:57Z</time></trkpt><trkpt lat="38.035749408069854" lon="13.57128108455535"><ele>13.0</ele><time>2026-04-28T14:28:59Z</time></trkpt><trkpt lat="38.03570468650528" lon="13.571405613964798"><ele>17.8</ele><time>2026-04-28T14:29:01Z</time></trkpt><trkpt lat="38.03566110383769" lon="13.571534680929448"><ele>22.6</ele><time>2026-04-28T14:29:03Z</time></trkpt><trkpt lat="38.035621694516855" lon="13.57165821748421"><ele>27.400000000000002</ele><time>2026-04-28T14:29:05Z</time></trkpt><trkpt lat="38.0355700577783" lon="13.571768906906893"><ele>32.2</ele><time>2026-04-28T14:29:07Z</time></trkpt><trkpt lat="38.03553618834336" lon="13.571883455795291"><ele>37.0</ele><time>2026-04-28T14:29:09Z</time></trkpt><trkpt lat="38.035488139076854" lon="13.5719898716954"><ele>35.0</ele><time>2026-04-28T14:29:11Z</time></trkpt><trkpt lat="38.0354452236744" lon="13.57209581881791"><ele>33.0</ele><time>2026-04-28T14:29:13Z</time></trkpt><trkpt lat="38.03540969833816" lon="13.572204220908473"><ele>31.000000000000004</ele><time>2026-04-28T14:29:15Z</time></trkpt><trkpt lat="38.035367534603594" lon="13.572317313639125"><ele>29.0</ele><time>2026-04-28T14:29:17Z</time></trkpt><trkpt lat="38.03531301051363" lon="13.572429648126716"><ele>27.0</ele><time>2026-04-28T14:29:19Z</time></trkpt><trkpt lat="38.03525965106631" lon="13.572542478308192"><ele>27.0</ele><time>2026-04-28T14:29:21Z</time></trkpt><trkpt lat="38.035228630237185" lon="13.57267419642026"><ele>27.000000000000004</ele><time>2026-04-28T14:29:23Z</time></trkpt><trkpt lat="38.035176170221696" lon="13.572785116961919"><ele>27.000000000000004</ele><time>2026-04-28T14:29:25Z</time></trkpt><trkpt lat="38.035130226235864" lon="13.57291114866296"><ele>27.0</ele><time>2026-04-28T14:29:27Z</time></trkpt><trkpt lat="38.035088631300916" lon="13.573036884983763"><ele>27.0</ele><time>2026-04-28T14:29:29Z</time></trkpt><trkpt lat="38.03504271249007" lon="13.573170046934573"><ele>28.0</ele><time>2026-04-28T14:29:31Z</time></trkpt><trkpt lat="38.03501839312065" lon="13.573249758630736"><ele>29.000000000000004</ele><time>2026-04-28T14:29:32Z</time></trkpt><trkpt lat="38.03496784102352" lon="13.573354643162366"><ele>30.000000000000004</ele><time>2026-04-28T14:29:34Z</time></trkpt><trkpt lat="38.0349220465102" lon="13.573507969982323"><ele>31.0</ele><time>2026-04-28T14:29:36Z</time></trkpt><trkpt lat="38.03485188786819" lon="13.573642178920606"><ele>32.0</ele><time>2026-04-28T14:29:38Z</time></trkpt><trkpt lat="38.0348126132904" lon="13.573770305512381"><ele>29.499999999999996</ele><time>2026-04-28T14:29:40Z</time></trkpt><trkpt lat="38.034748072967965" lon="13.573885936088116"><ele>27.0</ele><time>2026-04-28T14:29:42Z</time></trkpt><trkpt lat="38.03470817789575" lon="13.5739622700472"><ele>24.5</ele><time>2026-04-28T14:29:43Z</time></trkpt><trkpt lat="38.03466733942639" lon="13.57402467462276"><ele>22.0</ele><time>2026-04-28T14:29:44Z</time></trkpt><trkpt lat="38.03464004007914" lon="13.574103258790794"><ele>19.5</ele><time>2026-04-28T14:29:45Z</time></trkpt><trkpt lat="38.034589833443064" lon="13.574237887253958"><ele>17.0</ele><time>2026-04-28T14:29:47Z</time></trkpt><trkpt lat="38.03452295513692" lon="13.574363650042047"><ele>17.0</ele><time>2026-04-28T14:29:49Z</time></trkpt><trkpt lat="38.03446663968654" lon="13.574454506756485"><ele>17.0</ele><time>2026-04-28T14:29:51Z</time></trkpt><trkpt lat="38.034426663097776" lon="13.574592021636048"><ele>17.0</ele><time>2026-04-28T14:29:53Z</time></trkpt><trkpt lat="38.03439632445987" lon="13.574703729745865"><ele>17.0</ele><time>2026-04-28T14:29:56.999Z</time></trkpt><trkpt lat="38.034288070392336" lon="13.574995057794508"><ele>17.2</ele><time>2026-04-28T14:29:59.999Z</time></trkpt><trkpt lat="38.03425858739889" lon="13.575122929629224"><ele>17.4</ele><time>2026-04-28T14:30:01.999Z</time></trkpt><trkpt lat="38.034227547084186" lon="13.575242972143412"><ele>17.6</ele><time>2026-04-28T14:30:03.999Z</time></trkpt><trkpt lat="38.03418037384309" lon="13.575362748321005"><ele>17.8</ele><time>2026-04-28T14:30:05.999Z</time></trkpt><trkpt lat="38.034128273975504" lon="13.57547857227467"><ele>18.0</ele><time>2026-04-28T14:30:07.999Z</time></trkpt><trkpt lat="38.03408093500688" lon="13.57559711222627"><ele>22.0</ele><time>2026-04-28T14:30:09.999Z</time></trkpt><trkpt lat="38.034058196087926" lon="13.575729342208689"><ele>26.0</ele><time>2026-04-28T14:30:11.999Z</time></trkpt><trkpt lat="38.03404381176871" lon="13.57583958528811"><ele>29.999999999999996</ele><time>2026-04-28T14:30:13.999Z</time></trkpt><trkpt lat="38.03399719307887" lon="13.575940838576223"><ele>34.0</ele><time>2026-04-28T14:30:15.999Z</time></trkpt><trkpt lat="38.03394663152121" lon="13.576040444199732"><ele>38.0</ele><time>2026-04-28T14:30:17.999Z</time></trkpt><trkpt lat="38.03395024604907" lon="13.576185311243233"><ele>36.666666666666664</ele><time>2026-04-28T14:30:19.999Z</time></trkpt><trkpt lat="38.03387568043384" lon="13.576291250479944"><ele>35.33333333333333</ele><time>2026-04-28T14:30:21.999Z</time></trkpt><trkpt lat="38.033846829672896" lon="13.576364312577804"><ele>34.0</ele><time>2026-04-28T14:30:22.999Z</time></trkpt><trkpt lat="38.03380648274673" lon="13.576435378210636"><ele>32.666666666666664</ele><time>2026-04-28T14:30:23.999Z</time></trkpt><trkpt lat="38.03378760132753" lon="13.576537245821317"><ele>31.333333333333332</ele><time>2026-04-28T14:30:24.999Z</time></trkpt><trkpt lat="38.033781852829186" lon="13.5766340909453"><ele>30.0</ele><time>2026-04-28T14:30:25.999Z</time></trkpt><trkpt lat="38.03375302778224" lon="13.57673364595059"><ele>30.0</ele><time>2026-04-28T14:30:26.999Z</time></trkpt><trkpt lat="38.03373296401191" lon="13.576813330001322"><ele>30.0</ele><time>2026-04-28T14:30:27.999Z</time></trkpt><trkpt lat="38.03377195224775" lon="13.57701659362011"><ele>30.0</ele><time>2026-04-28T14:30:29.999Z</time></trkpt><trkpt lat="38.033763775759994" lon="13.577101338662462"><ele>30.0</ele><time>2026-04-28T14:30:30.999Z</time></trkpt><trkpt lat="38.03372326437923" lon="13.577180604783704"><ele>30.0</ele><time>2026-04-28T14:30:32.999Z</time></trkpt><trkpt lat="38.03370899816764" lon="13.577267749549689"><ele>30.0</ele><time>2026-04-28T14:30:34.999Z</time></trkpt><trkpt lat="38.03366851518072" lon="13.577340889959684"><ele>28.714285714285715</ele><time>2026-04-28T14:30:39Z</time></trkpt><trkpt lat="38.033641786259125" lon="13.5774150332382"><ele>27.428571428571427</ele><time>2026-04-28T14:30:42Z</time></trkpt><trkpt lat="38.03360390251886" lon="13.577494133604286"><ele>26.142857142857142</ele><time>2026-04-28T14:30:45Z</time></trkpt><trkpt lat="38.03358182685288" lon="13.577576729445239"><ele>24.857142857142858</ele><time>2026-04-28T14:30:48Z</time></trkpt><trkpt lat="38.033551156008116" lon="13.577650741822282"><ele>23.57142857142857</ele><time>2026-04-28T14:30:51Z</time></trkpt><trkpt lat="38.0335236674111" lon="13.577743250213912"><ele>22.285714285714285</ele><time>2026-04-28T14:30:54Z</time></trkpt><trkpt lat="38.03348562723413" lon="13.5778516277795"><ele>21.0</ele><time>2026-04-28T14:30:57Z</time></trkpt><trkpt lat="38.033464381310026" lon="13.577931551786365"><ele>20.5</ele><time>2026-04-28T14:30:59Z</time></trkpt><trkpt lat="38.03345510726893" lon="13.578019820125828"><ele>20.0</ele><time>2026-04-28T14:31:01Z</time></trkpt><trkpt lat="38.03340523548948" lon="13.578106115685532"><ele>19.5</ele><time>2026-04-28T14:31:04Z</time></trkpt><trkpt lat="38.03338177359745" lon="13.578233300047215"><ele>19.0</ele><time>2026-04-28T14:31:07Z</time></trkpt><trkpt lat="38.03334309317852" lon="13.578305839389103"><ele>18.5</ele><time>2026-04-28T14:31:09Z</time></trkpt><trkpt lat="38.033325011076926" lon="13.578407564019166"><ele>18.0</ele><time>2026-04-28T14:31:11Z</time></trkpt><trkpt lat="38.03329988669058" lon="13.57849025773359"><ele>20.5</ele><time>2026-04-28T14:31:13Z</time></trkpt><trkpt lat="38.03324589620834" lon="13.578582623070266"><ele>23.0</ele><time>2026-04-28T14:31:16Z</time></trkpt><trkpt lat="38.03323159997538" lon="13.578671092192693"><ele>25.5</ele><time>2026-04-28T14:31:18Z</time></trkpt><trkpt lat="38.0332066919575" lon="13.578781051711053"><ele>28.0</ele><time>2026-04-28T14:31:20Z</time></trkpt><trkpt lat="38.03317527868076" lon="13.578884332725607"><ele>30.5</ele><time>2026-04-28T14:31:22Z</time></trkpt><trkpt lat="38.03313934127536" lon="13.579004862939472"><ele>33.0</ele><time>2026-04-28T14:31:24Z</time></trkpt><trkpt lat="38.03310417902588" lon="13.579151208597255"><ele>33.0</ele><time>2026-04-28T14:31:26Z</time></trkpt><trkpt lat="38.03308339647791" lon="13.579229949313712"><ele>33.0</ele><time>2026-04-28T14:31:27Z</time></trkpt><trkpt lat="38.03306703593025" lon="13.579308506477895"><ele>33.0</ele><time>2026-04-28T14:31:28Z</time></trkpt><trkpt lat="38.03304037088695" lon="13.579383524862651"><ele>33.0</ele><time>2026-04-28T14:31:29Z</time></trkpt><trkpt lat="38.03301513474755" lon="13.57949468763914"><ele>33.0</ele><time>2026-04-28T14:31:31Z</time></trkpt><trkpt lat="38.03299266890109" lon="13.579579673430185"><ele>33.0</ele><time>2026-04-28T14:31:32Z</time></trkpt><trkpt lat="38.03295431957824" lon="13.57973236566282"><ele>32.4</ele><time>2026-04-28T14:31:34Z</time></trkpt><trkpt lat="38.03292969157218" lon="13.57981162604412"><ele>31.799999999999997</ele><time>2026-04-28T14:31:35Z</time></trkpt><trkpt lat="38.03288537529849" lon="13.579961771493313"><ele>31.2</ele><time>2026-04-28T14:31:37Z</time></trkpt><trkpt lat="38.032859527374036" lon="13.580067361892862"><ele>30.6</ele><time>2026-04-28T14:31:39Z</time></trkpt><trkpt lat="38.03281596091382" lon="13.580201291272612"><ele>30.0</ele><time>2026-04-28T14:31:41Z</time></trkpt><trkpt lat="38.03278445333328" lon="13.580340624253921"><ele>28.4</ele><time>2026-04-28T14:31:43Z</time></trkpt><trkpt lat="38.03275792102917" lon="13.580460735145724"><ele>26.8</ele><time>2026-04-28T14:31:45Z</time></trkpt><trkpt lat="38.032723477397475" lon="13.580587984695239"><ele>25.200000000000003</ele><time>2026-04-28T14:31:47Z</time></trkpt><trkpt lat="38.0326917397299" lon="13.580707900699718"><ele>23.6</ele><time>2026-04-28T14:31:49Z</time></trkpt><trkpt lat="38.032663392849884" lon="13.580821723027691"><ele>22.0</ele><time>2026-04-28T14:31:51Z</time></trkpt><trkpt lat="38.03264642041223" lon="13.580934302291224"><ele>22.0</ele><time>2026-04-28T14:31:53Z</time></trkpt><trkpt lat="38.03262911217102" lon="13.581060906439996"><ele>22.0</ele><time>2026-04-28T14:31:55Z</time></trkpt><trkpt lat="38.03259549918359" lon="13.58115559100699"><ele>22.0</ele><time>2026-04-28T14:31:56.999Z</time></trkpt><trkpt lat="38.032575373919045" lon="13.581274458577596"><ele>22.0</ele><time>2026-04-28T14:31:58.999Z</time></trkpt><trkpt lat="38.03256026046004" lon="13.581384542293657"><ele>22.0</ele><time>2026-04-28T14:32:00.999Z</time></trkpt><trkpt lat="38.03253634582466" lon="13.581491643961483"><ele>21.5</ele><time>2026-04-28T14:32:02.999Z</time></trkpt><trkpt lat="38.03251063306689" lon="13.581587839171224"><ele>21.0</ele><time>2026-04-28T14:32:04.999Z</time></trkpt><trkpt lat="38.03248924396027" lon="13.581695841852195"><ele>20.5</ele><time>2026-04-28T14:32:06.999Z</time></trkpt><trkpt lat="38.03245915106884" lon="13.58179011010558"><ele>20.0</ele><time>2026-04-28T14:32:08.999Z</time></trkpt><trkpt lat="38.03243773749353" lon="13.581884495241116"><ele>19.5</ele><time>2026-04-28T14:32:10.999Z</time></trkpt><trkpt lat="38.03241655203667" lon="13.58198171014291"><ele>19.0</ele><time>2026-04-28T14:32:12.999Z</time></trkpt><trkpt lat="38.032403008655166" lon="13.582076351037065"><ele>19.0</ele><time>2026-04-28T14:32:14.999Z</time></trkpt><trkpt lat="38.03238947354238" lon="13.582180882772535"><ele>19.0</ele><time>2026-04-28T14:32:17.999Z</time></trkpt><trkpt lat="38.03237429451074" lon="13.58227087785471"><ele>19.0</ele><time>2026-04-28T14:32:19.999Z</time></trkpt><trkpt lat="38.03239950426091" lon="13.58235348811438"><ele>19.0</ele><time>2026-04-28T14:32:21.999Z</time></trkpt><trkpt lat="38.0324425613727" lon="13.582470965869415"><ele>19.0</ele><time>2026-04-28T14:32:24.999Z</time></trkpt><trkpt lat="38.032477550793494" lon="13.582544351903499"><ele>19.0</ele><time>2026-04-28T14:32:26.999Z</time></trkpt><trkpt lat="38.032500236810414" lon="13.582623818548555"><ele>19.0</ele><time>2026-04-28T14:32:28.999Z</time></trkpt><trkpt lat="38.03251415239878" lon="13.582723677564612"><ele>19.0</ele><time>2026-04-28T14:32:31.999Z</time></trkpt><trkpt lat="38.032496619115314" lon="13.58281381508801"><ele>19.0</ele><time>2026-04-28T14:32:33.999Z</time></trkpt><trkpt lat="38.03246185890822" lon="13.582910470384222"><ele>19.0</ele><time>2026-04-28T14:32:35.999Z</time></trkpt><trkpt lat="38.03240677424622" lon="13.582979914209965"><ele>19.0</ele><time>2026-04-28T14:32:37.999Z</time></trkpt><trkpt lat="38.03236611407684" lon="13.583075801469464"><ele>19.0</ele><time>2026-04-28T14:32:39.999Z</time></trkpt><trkpt lat="38.032325309116715" lon="13.583145230857548"><ele>21.5</ele><time>2026-04-28T14:32:40.999Z</time></trkpt><trkpt lat="38.03227562827762" lon="13.583265140779641"><ele>24.0</ele><time>2026-04-28T14:32:43Z</time></trkpt><trkpt lat="38.03224469112116" lon="13.58335292471523"><ele>26.5</ele><time>2026-04-28T14:32:45Z</time></trkpt><trkpt lat="38.032240531778214" lon="13.58343364101342"><ele>29.0</ele><time>2026-04-28T14:32:46Z</time></trkpt><trkpt lat="38.03222066997722" lon="13.583533895709367"><ele>31.500000000000004</ele><time>2026-04-28T14:32:48Z</time></trkpt><trkpt lat="38.032278543410165" lon="13.583603228137894"><ele>34.0</ele><time>2026-04-28T14:32:53Z</time></trkpt><trkpt lat="38.03235650808869" lon="13.583609894224676"><ele>33.99999999999999</ele><time>2026-04-28T14:32:56Z</time></trkpt><trkpt lat="38.03242149557697" lon="13.58363545169484"><ele>34.0</ele><time>2026-04-28T14:32:58Z</time></trkpt><trkpt lat="38.03245478541246" lon="13.583704603617527"><ele>34.0</ele><time>2026-04-28T14:34:03Z</time></trkpt><trkpt lat="38.03249266589603" lon="13.583776786928915"><ele>34.0</ele><time>2026-04-28T14:34:16.999Z</time></trkpt><trkpt lat="38.03247932317459" lon="13.583869065345166"><ele>34.0</ele><time>2026-04-28T14:34:22.999Z</time></trkpt><trkpt lat="38.03247281397941" lon="13.583976965260552"><ele>33.99999999999999</ele><time>2026-04-28T14:34:27.999Z</time></trkpt><trkpt lat="38.03246061325308" lon="13.584072342495297"><ele>34.0</ele><time>2026-04-28T14:34:31.999Z</time></trkpt><trkpt lat="38.03243321092018" lon="13.584173452424928"><ele>31.0</ele><time>2026-04-28T14:34:40.999Z</time></trkpt></trkseg></trk></gpx>